     2              OBSERVATION DATA    GPS                 RINEX VERSION / TYPE
teqc 1999Jul19 19991123 03:04:11UTC                         PGM / RUN BY / DATE
                                                            COMMENT
Original Marker Name: 0485                                  COMMENT
Campaign Name: HPGN 1991                                    COMMENT
4-Character Station Name: W067                              COMMENT
6-Character Antenna Code: TRMSST                            COMMENT
Vertical Measurement Point: BPA                             COMMENT
Vertical Offset to Rinex Ref. Point: 0.0000                 COMMENT
Radial Measurement Point: RRP                               COMMENT
Radial Offset to Rinex Ref. Point: 0.0000                   COMMENT
Antenna Height from Field Measurement: 2.2200 m             COMMENT
                                                            COMMENT
Original XYZ: 0.0000 0.0000 0.0000                          COMMENT
New XYZ position is based on association with SCEC monument COMMENT
E1P3R5P4+0011. Position of that monument is believed to be  COMMENT
valid to within 1 m horizontally; vertical accuracy         COMMENT
should be no worse than 3-times this value.                 COMMENT
                                                            COMMENT
Revised Rinex header created by UCSD GPS archive for        COMMENT
GSAC on 10-Mar-2000 (2000:070) 17:56:37 GMT                 COMMENT
For assistance contact dagnew@ucsd.edu or hjohnson@ucsd.edu COMMENT
                                                            COMMENT
W 67 RM 1                                                   MARKER NAME
0485                                                        MARKER NUMBER
-Unknown- CALIF DEPT TRANSPORTATION                         OBSERVER / AGENCY
485 TRIMBLE 4000 SST NP 4.30 / SP 4.20                      REC # / TYPE / VERS
16 TR 4000SST L1/L2 GEO                                     ANT # / TYPE
 -2392434.1628 -4084943.7539  4262147.9563                  APPROX POSITION XYZ
        2.2200        0.0000        0.0000                  ANTENNA: DELTA H/E/N
     1     1     0                                          WAVELENGTH FACT L1/2
     5    C1    L1    L2    S1    S2                        # / TYPES OF OBSERV
     0                                                      INTERVAL
  1991     6    25    15    37   45.000000                  TIME OF FIRST OBS
  1991     6    25    17    34   15.000000                  TIME OF LAST OBS
                                                            END OF HEADER
 91  6 25 15 37 45.0000000  0  5G18G16G11G 2G19
  21056193.016          -0.72117                        27.500
  24055057.711          -0.92015                         9.000
  24221018.133          -0.91316                        12.250
  24344069.883          -0.24015                         9.750
  20685031.719          -0.72816                        19.500
 91  6 25 15 38  0.0000000  0  5G18G16G11G 2G19
  21060768.531       24040.268 7        -0.47833        27.000           2.969
  24049020.992      -31722.625 5        -0.03531         9.000           0.469
  24212988.844      -42197.589 6                        12.250
  24333768.344      -54115.417 5                         9.250
  20683919.359       -5830.360 7                        21.000
 91  6 25 15 38 15.0000000  0  5G18G16G11G 2G19
  21065357.914       48153.448 7     18788.98823        27.500           2.750
  24043002.445      -63358.495 5    -24651.33621         9.750           0.500
  24204964.852      -84346.237 5        -0.30931        11.750           0.688
  24323472.227     -108232.276 5        -0.20631         9.500           0.438
  20682816.742      -11627.033 7        -0.26632        20.750           1.531
 91  6 25 15 38 30.0000000  0  5G18G16G11G 2G19
  21069956.703       72326.849 7     37625.39523        27.500           2.750
  24036994.211      -94920.288 5    -49244.91221        10.000           0.438
  24196954.617     -126458.443 6    -32814.95421        12.250           0.656
  24313177.820     -162362.536 5    -42179.58821         9.500           0.531
  20681718.914      -17402.827 6     -4500.87522        19.750           1.594
 91  6 25 15 38 45.0000000  0  5G18G16G11G 2G19
  21074571.211       96575.499 7     56520.43223        27.500           2.688
  24031006.039     -126392.610 5    -73768.76921         9.750           0.406
  24188950.594     -168518.773 6    -65589.19821        12.250           0.563
  24302872.742     -216490.994 5    -84357.53221         9.750           0.469
  20680628.031      -23142.749 6     -8973.54422        19.500           1.531
 91  6 25 15 39  0.0000000  0  5G18G16G11G 2G19
  21079201.367      120898.187 7     75473.16923        27.750           2.750
  24025038.859     -157776.253 5    -98223.53921        10.250           0.406
  24180957.422     -210527.687 5    -98323.37321        11.750           0.531
  24292570.914     -270618.162 5   -126534.48221         9.500           0.500
  20679541.125      -28847.736 7    -13418.98022        20.250           1.563
 91  6 25 15 39 15.0000000  0  5G18G16G11G 2G19
  21083845.422      145307.763 8     94493.59723        28.250           2.750
  24019083.766     -189058.162 5   -122599.03221        10.250           0.563
  24172972.953     -252471.824 5   -131007.08721        10.750           0.469
  24282275.656     -324730.995 5   -168700.28121         9.750           0.500
  20678465.500      -34504.768 6    -17827.05622        19.750           1.594
 91  6 25 15 39 30.0000000  0  5G18G16G11G 2G19
  21088518.789      169864.751 7    113628.89523        27.500           2.719
  24013156.344     -220177.328 5   -146847.69521         9.250           0.531
  24165016.680     -294290.263 6   -163592.85321        12.000           0.313
  24271988.695     -378768.837 5   -210807.63121        10.250           0.531
  20677407.195      -40053.540 7    -22150.77322        20.500           1.563
 91  6 25 15 39 45.0000000  0  5G18G16G11G 2G19
  21093242.141      194684.859 7    132969.22523        27.250           2.625
  24007287.930     -251017.636 5   -170879.06121         9.250           0.563
  24157105.250     -335866.703 6   -195990.06821        12.000           0.531
  24261746.570     -432615.521 5   -252766.01921        11.000           0.500
  20676396.016      -45377.933 6    -26299.64622        19.500           1.500
 91  6 25 15 40  0.0000000  0  5G18G16G11G 2G19
  21097982.203      219602.827 7    152385.80823        26.750           2.750
  24001444.695     -281744.072 5   -194821.71721         9.250           0.375
  24149208.273     -377365.806 5   -228326.98121        11.500           0.563
  24251506.703     -486435.930 5   -294703.95321        11.250           0.469
  20675391.227      -50643.040 7    -30402.32222        20.500           1.531
 91  6 25 15 40 15.0000000  0  5G18G16G11G 2G19
  21102743.344      244605.176 7    171868.15023        27.750           2.781
  23995611.070     -312369.795 5   -218685.87321         8.500           0.438
  24141324.297     -418800.656 5   -260613.79221        11.250           0.500
  24241269.031     -540243.451 5   -336631.83221        11.000           0.438
  20674402.438      -55862.412 6    -34469.36822        19.250           1.625
 91  6 25 15 40 30.0000000  0  5G18G16G11G 2G19
  21107516.625      269696.515 7    191419.82523        27.250           2.781
  23989806.875     -342889.949 5   -242467.79821         9.250           0.281
  24133451.633     -460166.246 6   -292846.66421        12.000           0.500
  24231030.320     -594033.201 5   -378545.86221        11.000           0.469
  20673412.625      -61031.430 6    -38497.17622        19.750           1.563
 91  6 25 15 40 45.0000000  0  5G18G16G11G 2G19
  21112304.523      294863.021 7    211030.07523        27.500           2.688
  23984017.531     -373317.918 5   -266177.88721         9.250           0.344
  24125588.945     -501475.810 6   -325035.95121        12.000           0.500
  24220796.055     -647818.588 5   -420456.50621        11.000           0.438
  20672441.547      -66163.835 6    -42496.44822        19.250           1.563
 91  6 25 15 41  0.0000000  0  5G18G16G11G 2G19
  21117106.727      320105.317 7    230699.37923        27.000           2.875
  23978242.016     -403653.003 5   -289815.59021         9.250           0.344
  24117743.031     -542728.409 6   -357180.83921        12.750           0.594
  24210559.359     -701598.871 5   -462363.15121        10.750           0.500
  20671469.609      -71258.898 7    -46466.62022        20.000           1.563
 91  6 25 15 41 15.0000000  0  5G18G16G11G 2G19
  21121927.500      345421.089 7    250425.94323        27.750           2.813
  23972492.344     -433897.137 5   -313382.42221         9.750           0.313
  24109903.117     -583925.533 6   -389282.44621        12.250           0.594
  24200325.602     -755375.819 5   -504267.20321        10.750           0.531
  20670507.719      -76318.580 6    -50409.23522        18.750           1.531
 91  6 25 15 41 30.0000000  0  5G18G16G11G 2G19
  21126758.711      370810.114 8    270209.58323        28.000           2.906
  23966755.391     -464050.435 5   -336878.48421         9.500           0.469
  24102073.180     -625067.322 5   -421340.92921        11.250           0.469
  24190094.227     -809149.701 5   -546168.89221        10.500           0.594
  20669550.602      -81343.503 7    -54324.75521        20.000           1.469
 91  6 25 15 41 45.0000000  0  5G18G16G11G 2G19
  21131602.398      396268.181 8    290047.02023        28.000           2.875
  23961027.844     -494116.564 5   -360306.60021         9.250           0.344
  24094249.844     -666157.284 5   -453359.03321        11.750           0.500
  24179857.266     -862924.088 5   -588070.95521        10.250           0.531
  20668601.547      -86337.674 6    -58216.31022        18.750           1.531
 91  6 25 15 42  0.0000000  0  5G18G16G11G 2G19
  21136460.125      421795.019 7    309938.04523        27.250           2.906
  23955329.266     -524095.322 5   -383666.64421        10.000           0.438
  24086443.773     -707194.946 6   -485336.40321        12.000           0.344
  24169625.461     -916699.050 5   -629973.48421        10.750           0.531
  20667656.469      -91300.948 6    -62083.79622        19.500           1.563
 91  6 25 15 42 15.0000000  0  5G18G16G11G 2G19
  21141331.789      447396.620 7    329887.32723        27.000           2.875
  23949638.602     -553980.482 5   -406953.77321        10.500           0.406
  24078647.125     -748173.938 5   -517268.07621        11.750           0.438
  24159396.016     -970468.194 5   -671871.47921        11.250           0.563
  20666721.000      -96227.419 6    -65922.60722        19.000           1.500
 91  6 25 15 42 30.0000000  0  5G18G16G11G 2G19
  21146218.500      473076.166 7    349897.34123        26.750           2.813
  23943974.969     -583768.340 5   -430165.05921        11.000           0.594
  24070857.398     -789090.525 5   -549151.11521        11.250           0.438
  24149169.977    -1024228.087 6   -713762.26221        12.000           0.531
  20665791.164     -101113.632 6    -69730.04122        18.500           1.531
 91  6 25 15 42 45.0000000  0  5G18G16G11G 2G19
  21151119.758      498825.722 7    369961.92023        26.750           2.844
  23938323.156     -613466.619 5   -453306.54721        10.500           0.563
  24063083.086     -829952.411 5   -580991.53621        11.500           0.375
  24138942.227    -1077986.547 6   -755651.91921        12.250           0.531
  20664865.578     -105967.780 6    -73512.49522        18.500           1.563
 91  6 25 15 43  0.0000000  0  5G18G16G11G 2G19
  21156032.688      524654.305 7    390088.07123        26.500           2.688
  23932687.117     -643066.099 5   -476371.04821        10.000           0.531
  24055321.633     -870749.820 6   -612781.68821        12.000           0.594
  24128709.867    -1131734.080 5   -797533.09721        11.750           0.438
  20663949.664     -110780.549 6    -77262.70022        18.750           1.500
 91  6 25 15 43 15.0000000  0  5G18G16G11G 2G19
  21160963.000      550559.783 7    410274.13723        26.500           2.625
  23927073.211     -672568.509 5   -499359.91821        10.000           0.563
  24047567.234     -911484.561 5   -644523.00121        11.500           0.531
  24118482.289    -1185472.487 5   -839407.12021        11.250           0.469
  20663043.383     -115554.118 6    -80982.36022        18.750           1.563
 91  6 25 15 43 30.0000000  0  5G18G16G11G 2G19
  21165904.289      576525.071 7    430506.81323        26.750           2.594
  23921473.688     -701990.822 5   -522286.36321        10.000           0.531
  24039825.055     -952173.171 5   -676228.38221        11.750           0.500
  24108254.914    -1239218.697 5   -881287.25021        11.500           0.531
  20662135.047     -120305.462 6    -84684.70722        18.750           1.531
 91  6 25 15 43 45.0000000  0  5G18G16G11G 2G19
  21170858.008      602549.371 7    450785.47823        27.250           2.594
  23915892.234     -731333.423 5   -545150.70221        10.250           0.531
  24032088.961     -992815.918 5   -707898.04321        11.500           0.500
  24098025.852    -1292973.070 5   -923173.74121        11.250           0.438
  20661237.086     -125035.184 6    -88370.20222        18.250           1.563
 91  6 25 15 44  0.0000000  0  5G18G16G11G 2G19
  21175821.156      628645.708 7    471120.27023        26.000           2.625
  23910324.375     -760582.820 5   -567942.41421         9.750           0.438
  24024368.547    -1033399.016 6   -739521.23521        12.500           0.500
  24087796.109    -1346722.040 5   -965056.02621        11.750           0.438
  20660343.930     -129730.016 6    -92028.51622        19.750           1.625
 91  6 25 15 44 15.0000000  0  5G18G16G11G 2G19
  21180800.461      654813.001 7    491510.34123        26.500           2.531
  23904773.797     -789739.483 5   -590661.88221         9.250           0.438
  24016658.195    -1073923.139 5   -771098.44321        11.750           0.500
  24077574.383    -1400466.481 5  -1006934.78121        11.750           0.406
  20659457.359     -134390.951 6    -95660.41122        18.500           1.500
 91  6 25 15 44 30.0000000  0  5G18G16G11G 2G19
  21185792.578      681045.549 7    511951.26923        26.250           2.625
  23899240.148     -818809.486 5   -613313.79021         8.750           0.531
  24008956.414    -1114393.578 6   -802633.80821        12.500           0.594
  24067345.352    -1454211.913 5  -1048814.27821        11.500           0.438
  20658573.133     -139023.689 6    -99270.34022        19.250           1.594
 91  6 25 15 44 45.0000000  0  5G18G16G11G 2G19
  21190795.750      707341.743 7    532441.79323        26.500           2.563
  23893727.094     -847794.144 5   -635899.20621         9.500           0.531
  24001263.813    -1154811.661 5   -834128.36321        11.750           0.594
  24057112.141    -1507960.030 5  -1090695.90321        10.500           0.469
  20657699.711     -143629.863 6   -102859.56322        19.250           1.594
 91  6 25 15 45  0.0000000  0  5G18G16G11G 2G19
  21195813.109      733704.497 7    552984.18523        26.000           2.625
  23888229.945     -876689.691 5   -658415.20121         9.750           0.500
  23993585.672    -1195173.651 6   -865579.23421        13.000           0.531
  24046884.563    -1561707.178 5  -1132576.74421        10.750           0.438
  20656826.539     -148206.232 6   -106425.56422        19.500           1.688
 91  6 25 15 45 15.0000000  0  5G18G16G11G 2G19
  21200844.148      760131.863 7    573576.91623        26.500           2.656
  23882744.656     -905498.064 5   -680863.27421        10.000           0.469
  23985914.617    -1235481.136 6   -896987.65921        13.750           0.531
  24036649.781    -1615455.118 5  -1174458.21921        10.250           0.438
  20655961.344     -152754.768 6   -109969.88222        18.750           1.531
 91  6 25 15 45 30.0000000  0  5G18G16G11G 2G19
  21205884.695      786624.655 7    594220.63823        26.500           2.719
  23877282.031     -934218.047 5   -703242.47021        10.500           0.500
  23978253.750    -1275732.789 6   -928352.56921        12.500           0.438
  24026426.516    -1669202.605 5  -1216339.33621        10.250           0.500
  20655102.695     -157274.546 7   -113491.78422        20.000           1.594
 91  6 25 15 45 45.0000000  0  5G18G16G11G 2G19
  21210939.016      813190.208 7    614921.04823        26.250           2.688
  23871829.922     -962841.934 5   -725546.78321         9.500           0.406
  23970608.563    -1315920.675 6   -959667.78721        12.750           0.563
  24016205.156    -1722941.928 5  -1258214.07421        10.750           0.500
  20654250.102     -161758.007 6   -116985.38422        19.000           1.625
 91  6 25 15 46  0.0000000  0  5G18G16G11G 2G19
  21216005.398      839817.000 7    635669.18323        26.000           2.750
  23866405.625     -991380.825 5   -747784.83721        10.000           0.375
  23962969.125    -1356056.007 6   -990941.99821        12.250           0.688
  24005976.313    -1776684.403 5  -1300091.29721        11.000           0.469
  20653399.734     -166216.765 6   -120459.74122        19.750           1.531
 91  6 25 15 46 15.0000000  0  5G18G16G11G 2G19
  21221088.461      866517.960 7    656475.10823        26.250           2.813
  23860994.336    -1019821.639 5   -769946.48221        10.250           0.438
  23955343.086    -1396125.000 6  -1022164.58021        13.750           0.594
  23995756.555    -1830416.717 5  -1341960.58421        11.500           0.469
  20652559.578     -170637.636 6   -123904.56922        18.500           1.594
 91  6 25 15 46 30.0000000  0  5G18G16G11G 2G19
  21226182.859      893294.720 7    677340.09023        26.000           2.688
  23855597.641    -1048162.513 5   -792030.25221        10.250           0.406
  23947732.266    -1436125.923 6  -1053334.14921        12.500           0.594
  23985531.102    -1884137.161 5  -1383820.62321        11.500           0.531
  20651723.945     -175019.033 6   -127318.63522        19.000           1.500
 91  6 25 15 46 45.0000000  0  5G18G16G11G 2G19
  21231291.398      920138.392 7    698257.21723        26.250           2.688
  23850225.055    -1076411.987 5   -814042.82221        10.500           0.531
  23940132.797    -1476067.046 6  -1084457.07221        12.500           0.594
  23975302.266    -1937854.311 5  -1425678.11721        11.000           0.563
  20650899.180     -179369.687 6   -130708.75322        18.750           1.563
 91  6 25 15 47  0.0000000  0  5G18G16G11G 2G19
  21236413.586      947054.921 7    719231.11823        26.500           2.656
  23844860.883    -1104563.721 5   -835979.21621         9.500           0.406
  23932544.508    -1515941.800 6  -1115528.26821        13.000           0.688
  23965085.711    -1991561.803 5  -1467528.07021        11.500           0.469
  20650074.656     -183683.553 6   -134070.21522        18.750           1.656
 91  6 25 15 47 15.0000000  0  5G18G16G11G 2G19
  21241549.539      974047.865 7    740264.55823        26.750           2.688
  23839527.625    -1132613.730 5   -857836.32621         9.750           0.469
  23924969.289    -1555745.917 6  -1146544.45521        12.750           0.469
  23954873.625    -2045255.625 6  -1509367.37521        12.000           0.438
  20649263.563     -187956.846 6   -137400.05422        18.500           1.625
 91  6 25 15 47 30.0000000  0  5G18G16G11G 2G19
  21246697.992     1001105.677 7    761348.55223        26.500           2.594
  23834210.375    -1160573.308 5   -879622.98121        11.000           0.500
  23917403.891    -1595490.615 6  -1177514.35121        12.750           0.563
  23944651.289    -2098947.018 5  -1551204.79521        11.500           0.531
  20648454.656     -192200.944 6   -140707.14422        19.500           1.594
 91  6 25 15 47 45.0000000  0  5G18G16G11G 2G19
  21251860.453     1028228.939 7    782483.54323        26.750           2.594
  23828904.063    -1188441.761 5   -901338.65321         9.750           0.406
  23909851.031    -1635174.983 6  -1208437.22021        12.750           0.719
  23934440.992    -2152635.273 6  -1593039.76121        12.250           0.563
  20647655.656     -196415.445 6   -143991.17622        19.000           1.594
 91  6 25 15 48  0.0000000  0  5G18G16G11G 2G19
  21257035.117     1055421.886 7    803672.83623        26.000           2.563
  23823616.305    -1216214.427 5   -922979.65621         9.500           0.531
  23902315.242    -1674794.096 6  -1239309.21921        13.500           0.781
  23924223.031    -2206315.622 6  -1634868.56821        12.250           0.531
  20646859.938     -200595.581 6   -147248.42622        19.250           1.531
 91  6 25 15 48 15.0000000  0  5G18G16G11G 2G19
  21262223.992     1082688.315 7    824919.38623        26.250           2.688
  23818356.750    -1243887.033 5   -944542.69821        10.500           0.500
  23894787.367    -1714343.620 6  -1270126.99921        13.250           0.625
  23914008.422    -2259984.005 6  -1676688.05421        12.500           0.625
  20646071.656     -204737.484 6   -150475.88122        18.750           1.563
 91  6 25 15 48 30.0000000  0  5G18G16G11G 2G19
  21267425.320     1110019.998 7    846216.78523        26.250           2.625
  23813107.922    -1271467.682 5   -966034.10221        10.750           0.563
  23887275.523    -1753831.408 6  -1300896.68421        13.500           0.563
  23903795.633    -2313648.405 5  -1718504.43621        11.750           0.594
  20645286.195     -208849.455 6   -153680.01722        19.250           1.563
 91  6 25 15 48 45.0000000  0  5G18G16G11G 2G19
  21272638.461     1137416.861 7    867564.96623        26.500           2.750
  23807869.594    -1298956.024 5   -987453.58321         9.750           0.500
  23879772.867    -1793256.914 6  -1331617.87121        13.250           0.594
  23893583.156    -2367308.742 6  -1760317.64221        12.500           0.719
  20644512.242     -212931.351 6   -156860.71622        18.750           1.594
 91  6 25 15 49  0.0000000  0  5G18G16G11G 2G19
  21277863.805     1164878.416 7    888963.56123        26.500           2.688
  23802662.977    -1326352.323 5  -1008801.30221        10.500           0.344
  23872283.578    -1832620.216 6  -1362290.57321        12.500           0.563
  23883377.078    -2420965.186 6  -1802127.82021        12.500           0.750
  20643738.180     -216983.792 6   -160018.46822        19.250           1.594
 91  6 25 15 49 15.0000000  0  5G18G16G11G 2G19
  21283103.578     1192411.197 7    910417.66023        26.500           2.656
  23797467.133    -1353649.729 5  -1030072.01821        10.750           0.406
  23864802.797    -1871914.236 6  -1392909.25521        12.500           0.688
  23873166.031    -2474610.878 6  -1843929.62221        12.250           0.688
  20642976.383     -221000.176 6   -163148.11322        18.750           1.625
 91  6 25 15 49 30.0000000  0  5G18G16G11G 2G19
  21288354.883     1220018.328 7    931929.68823        26.000           2.781
  23792286.852    -1380844.843 5  -1051262.99521        10.250           0.531
  23857341.477    -1911135.187 6  -1423471.01021        13.250           0.656
  23862961.117    -2528242.080 6  -1885720.13421        12.250           0.625
  20642218.102     -224976.880 6   -166246.84222        19.500           1.594
 91  6 25 15 49 45.0000000  0  5G18G16G11G 2G19
  21293622.477     1247690.740 7    953492.58423        26.750           2.563
  23787133.063    -1407946.515 5  -1072381.14721        10.500           0.406
  23849889.445    -1950291.825 6  -1453982.64421        12.500           0.656
  23852758.734    -2581867.728 6  -1927506.33721        12.500           0.688
  20641468.344     -228923.151 6   -169321.86222        18.500           1.594
 91  6 25 15 50  0.0000000  0  5G18G16G11G 2G19
  21298903.086     1275435.776 7    975112.07623        26.750           2.563
  23782000.977    -1434947.026 5  -1093420.46721        11.000           0.375
  23842453.711    -1989376.159 6  -1484437.96621        12.250           0.594
  23842555.891    -2635480.049 6  -1969282.13621        12.250           0.625
  20640723.391     -232831.317 6   -172367.18322        19.500           1.594
 91  6 25 15 50 15.0000000  0  5G18G16G11G 2G19
  21304196.414     1303257.355 7    996791.21823        26.250           2.625
  23776881.414    -1461841.905 5  -1114377.50421        11.250           0.438
  23835032.172    -2028383.892 6  -1514833.59121        13.500           0.531
  23832355.930    -2689074.795 6  -2011044.25221        12.000           0.750
  20639988.125     -236697.306 6   -175379.64022        18.500           1.594
 91  6 25 15 50 30.0000000  0  5G18G16G11G 2G19
  21309504.625     1331146.282 7   1018522.83323        26.750           2.625
  23771778.227    -1488639.947 5  -1135259.08221        11.000           0.500
  23827613.734    -2067323.536 5  -1545176.15721        11.750           0.688
  23822163.484    -2742660.853 6  -2052799.57821        12.500           0.719
  20639257.719     -240530.201 6   -178366.32022        19.500           1.563
 91  6 25 15 50 45.0000000  0  5G18G16G11G 2G19
  21314825.328     1359108.850 7   1040311.82523        26.250           2.531
  23766703.453    -1515334.837 5  -1156060.26521        11.500           0.406
  23820225.180    -2106188.209 6  -1575460.28121        12.000           0.813
  23811963.742    -2796231.468 6  -2094542.88221        12.250           0.594
  20638539.008     -244323.435 6   -181322.08422        18.750           1.594
 91  6 25 15 51  0.0000000  0  5G18G16G11G 2G19
  21320160.180     1387144.186 7   1062157.52723        26.500           2.688
  23761637.453    -1541927.266 5  -1176781.64321        10.750           0.500
  23812845.391    -2144978.372 6  -1605686.33821        13.250           0.813
  23801770.156    -2849787.445 5  -2136274.78121        11.250           0.625
  20637825.336     -248077.933 6   -184247.67322        18.500           1.594
 91  6 25 15 51 15.0000000  0  5G18G16G11G 2G19
  21325509.273     1415252.797 7   1084060.30923        26.250           2.688
  23756599.867    -1568416.170 5  -1197422.31221        10.500           0.500
  23805474.781    -2183693.053 6  -1635853.60421        13.250           0.688
  23791577.977    -2903327.882 5  -2177994.57321        11.250           0.688
  20637116.797     -251793.224 6   -187142.70921        18.750           1.469
 91  6 25 15 51 30.0000000  0  5G18G16G11G 2G19
  21330870.813     1443426.366 7   1106013.71623        26.250           2.719
  23751573.164    -1594809.603 5  -1217988.60621        10.250           0.469
  23798120.594    -2222340.037 6  -1665968.11621        12.250           0.719
  23781395.242    -2956860.757 5  -2219708.47121        11.500           0.625
  20636414.734     -255477.301 6   -190013.41722        19.750           1.625
 91  6 25 15 51 45.0000000  0  5G18G16G11G 2G19
  21336244.047     1471671.934 7   1128023.22623        25.000           2.656
  23746578.125    -1621100.481 5  -1238474.95921        11.500           0.531
  23790779.102    -2260912.031 5  -1696024.19321        11.750           0.563
  23771214.539    -3010378.881 6  -2261410.88421        12.250           0.688
  20635723.070     -259123.207 6   -192854.38222        19.250           1.563
 91  6 25 15 52  0.0000000  0  5G18G16G11G 2G19
  21341635.250     1499990.599 7   1150089.69523        25.500           2.688
  23741590.828    -1647287.105 5  -1258880.12621        10.500           0.438
  23783457.867    -2299407.213 6  -1726020.42921        14.000           0.719
  23761032.203    -3063880.648 6  -2303100.54621        12.500           0.656
  20635032.922     -262729.471 6   -195664.45722        19.500           1.594
 91  6 25 15 52 15.0000000  0  5G18G16G11G 2G19
  21347036.313     1528381.159 7   1172212.18923        25.250           2.594
  23736624.828    -1673370.424 5  -1279204.76921        10.000           0.500
  23776139.859    -2337826.214 6  -1755957.29621        13.000           0.781
  23750857.500    -3117366.829 6  -2344778.05521        13.000           0.719
  20634356.797     -266297.142 6   -198444.46822        19.000           1.531
 91  6 25 15 52 30.0000000  0  5G18G16G11G 2G19
  21352452.664     1556850.784 7   1194396.28523        24.250           2.750
  23731687.656    -1699342.886 5  -1299443.01321        11.000           0.531
  23768850.680    -2376161.456 6  -1785828.88021        13.250           0.813
  23740682.734    -3170830.221 6  -2386437.80221        12.750           0.750
  20633686.000     -269819.152 7   -201188.89622        20.750           1.688
 91  6 25 15 52 45.0000000  0  5G18G16G11G 2G19
  21357885.477     1585394.726 7   1216638.30423        24.750           2.563
  23726763.125    -1725209.179 5  -1319598.56021        11.000           0.531
  23761567.563    -2414417.002 6  -1815638.38821        13.000           0.594
  23730507.625    -3224275.051 6  -2428083.10021        12.250           0.563
  20633023.867     -273300.050 6   -203901.27822        19.500           1.625
 91  6 25 15 53  0.0000000  0  5G18G16G11G 2G19
  21363329.227     1614009.696 7   1238935.66123        24.750           2.625
  23721857.828    -1750972.322 5  -1339673.71521        10.500           0.594
  23754304.422    -2452595.838 6  -1845388.09121        14.750           0.500
  23720342.789    -3277704.459 6  -2469716.36821        12.750           0.781
  20632369.070     -276743.139 6   -206584.20922        19.000           1.563
 91  6 25 15 53 15.0000000  0  5G18G16G11G 2G19
  21368791.914     1642696.344 7   1261288.86923        25.500           2.500
  23716977.719    -1776631.041 5  -1359667.48421        10.750           0.563
  23747053.695    -2490696.728 6  -1875077.09021        15.000           0.531
  23710178.438    -3331117.198 6  -2511336.64921        12.250           0.625
  20631723.258     -280147.434 6   -209236.90622        19.500           1.625
 91  6 25 15 53 30.0000000  0  5G18G16G11G 2G19
  21374262.961     1671454.427 7   1283697.74623        25.000           2.594
  23712107.547    -1802185.647 5  -1379580.16621        10.250           0.438
  23739819.734    -2528719.604 6  -1904705.30521        14.250           0.656
  23700019.836    -3384513.390 6  -2552944.05321        12.500           0.656
  20631079.867     -283513.194 7   -211859.58522        20.750           1.750
 91  6 25 15 53 45.0000000  0  5G18G16G11G 2G19
  21379746.672     1700283.644 7   1306162.05823        25.000           2.656
  23707267.391    -1827635.559 5  -1399411.24821        10.500           0.500
  23732597.758    -2566663.967 6  -1934272.33521        14.000           0.750
  23689860.047    -3437892.812 6  -2594538.36621        13.000           0.781
  20630446.305     -286840.358 6   -214452.17622        19.000           1.656
 91  6 25 15 54  0.0000000  0  5G18G16G11G 2G19
  21385248.711     1729186.927 7   1328684.08123        25.250           2.563
  23702439.914    -1852978.041 5  -1419158.63021         9.750           0.469
  23725394.000    -2604526.368 6  -1963775.45521        14.500           0.813
  23679703.086    -3491252.241 6  -2636117.10321        12.500           0.688
  20629819.445     -290125.783 7   -217012.25322        20.500           1.719
 91  6 25 15 54 15.0000000  0  5G18G16G11G 2G19
  21390762.078     1758164.939 7   1351264.32823        25.250           2.531
  23697644.922    -1878211.828 5  -1438821.29721        10.500           0.563
  23718204.313    -2642305.496 6  -1993213.67521        15.250           0.656
  23669554.961    -3544590.556 6  -2677679.38521        12.750           0.688
  20629207.070     -293368.505 6   -219539.05622        19.500           1.688
 91  6 25 15 54 30.0000000  0  5G18G16G11G 2G19
  21396291.242     1787218.604 7   1373903.52823        24.500           2.656
  23692871.195    -1903335.628 5  -1458398.26321        11.500           0.625
  23711030.094    -2680000.262 6  -2022586.20021        14.250           0.531
  23659408.211    -3597906.809 6  -2719224.47321        12.250           0.813
  20628596.539     -296567.909 7   -222032.10222        20.500           1.656
 91  6 25 15 54 45.0000000  0  5G18G16G11G 2G19
  21401837.906     1816347.400 7   1396601.26323        25.000           2.750
  23688106.898    -1928350.289 5  -1477890.18921        11.000           0.594
  23703873.031    -2717610.848 6  -2051893.15321        14.500           0.656
  23649267.461    -3651201.405 6  -2760752.70421        12.500           0.750
  20627996.211     -299724.484 6   -224491.77322        19.500           1.625
 91  6 25 15 55  0.0000000  0  5G18G16G11G 2G19
  21407388.727     1845548.618 7   1419355.43923        23.500           2.844
  23683364.367    -1953257.859 5  -1497298.65521        11.250           0.594
  23696731.445    -2755139.332 6  -2081136.11221        14.000           0.656
  23639131.664    -3704476.635 6  -2802265.84521        13.000           0.750
  20627404.141     -302840.785 6   -226920.07122        19.500           1.625
 91  6 25 15 55 15.0000000  0  5G18G16G11G 2G19
  21412965.172     1874833.764 7   1442175.01123        24.750           2.750
  23678647.008    -1978046.391 5  -1516614.37821        10.750           0.531
  23689608.180    -2792573.498 6  -2110305.54721        14.000           0.719
  23628996.922    -3757720.524 6  -2843754.57021        12.750           0.844
  20626820.109     -305904.919 6   -229307.71122        19.500           1.656
 91  6 25 15 55 30.0000000  0  5G18G16G11G 2G19
  21418552.922     1904194.640 7   1465053.59423        25.250           2.656
  23673950.391    -2002724.167 5  -1535843.80521        10.500           0.531
  23682503.555    -2829921.181 6  -2139407.59821        14.000           0.750
  23618871.484    -3810940.928 6  -2885224.98621        13.000           0.750
  20626246.539     -308925.089 7   -231661.09622        20.000           1.563
 91  6 25 15 55 45.0000000  0  5G18G16G11G 2G19
  21424153.875     1933632.390 7   1487992.08923        25.000           2.625
  23669276.508    -2027289.412 5  -1554985.53121        11.000           0.563
  23675413.016    -2867180.657 6  -2168440.92421        15.250           0.813
  23608747.703    -3864136.218 6  -2926675.81821        12.750           0.656
  20625679.367     -311899.965 6   -233979.18622        19.000           1.563
 91  6 25 15 56  0.0000000  0  5G18G16G11G 2G19
  21429767.813     1963143.119 7   1510987.43723        25.000           2.500
  23664625.273    -2051745.774 5  -1574042.43721        10.750           0.594
  23668338.680    -2904355.187 6  -2197408.05921        15.500           0.656
  23598631.727    -3917309.957 6  -2968109.87821        13.000           0.719
  20625119.875     -314833.202 6   -236264.82522        19.250           1.625
 91  6 25 15 56 15.0000000  0  5G18G16G11G 2G19
  21435400.148     1992726.915 7   1534039.73022        26.250           2.469
  23659992.367    -2076092.487 5  -1593013.87721        10.750           0.625
  23661277.703    -2941444.131 6  -2226308.52721        14.000           0.688
  23588510.719    -3970461.517 6  -3009526.64121        12.000           0.719
  20624571.648     -317724.526 6   -238517.81322        19.000           1.656
 91  6 25 15 56 30.0000000  0  5G18G16G11G 2G19
  21441042.391     2022385.496 7   1557150.31222        25.000           2.406
  23655379.766    -2100328.098 5  -1611898.75221        10.750           0.625
  23654238.852    -2978445.359 6  -2255140.63521        15.000           0.781
  23578403.633    -4023589.133 6  -3050924.75621        12.500           0.781
  20624026.828     -320572.027 6   -240736.64622        19.750           1.531
 91  6 25 15 56 45.0000000  0  5G18G16G11G 2G19
  21446701.359     2052116.079 7   1580316.97923        25.000           2.531
  23650786.719    -2124454.909 5  -1630698.85221        10.250           0.656
  23647212.398    -3015361.181 6  -2283906.17421        15.500           0.938
  23568300.836    -4076695.392 6  -3092306.22321        12.750           0.750
  20623494.742     -323378.368 6   -242923.40922        19.000           1.688
 91  6 25 15 57  0.0000000  0  5G18G16G11G 2G19
  21452372.305     2081924.290 7   1603544.14022        24.750           2.438
  23646219.680    -2148467.320 5  -1649409.79521        11.000           0.531
  23640206.328    -3052185.593 6  -2312600.47121        15.250           0.938
  23558201.766    -4129774.282 6  -3133666.36121        13.500           0.719
  20622966.805     -326137.822 6   -245073.63822        19.500           1.625
 91  6 25 15 57 15.0000000  0  5G18G16G11G 2G19
  21458061.234     2111809.806 7   1626831.53622        25.250           2.438
  23641669.016    -2172364.940 5  -1668031.32221        11.000           0.438
  23633219.469    -3088918.224 6  -2341223.27721        15.000           0.844
  23548104.281    -4182825.613 6  -3175005.02821        13.750           0.813
  20622453.336     -328850.505 6   -247187.42122        18.750           1.688
 91  6 25 15 57 30.0000000  0  5G18G16G11G 2G19
  21463763.563     2141781.322 7   1650185.94823        25.000           2.625
  23637147.281    -2196138.861 5  -1686556.44321        11.000           0.563
  23626245.984    -3125549.928 6  -2369767.44221        15.000           0.781
  23538015.797    -4235840.504 6  -3216315.31421        13.750           0.750
  20621947.313     -331507.765 6   -249258.01922        19.250           1.594
 91  6 25 15 57 45.0000000  0  5G18G16G11G 2G19
  21469481.859     2171832.110 7   1673602.13423        24.750           2.500
  23632646.328    -2219795.846 5  -1704990.44621        11.500           0.594
  23619291.453    -3162087.138 6  -2398237.95521        14.250           0.750
  23527932.430    -4288825.518 6  -3257602.30321        13.500           0.875
  20621452.023     -334116.309 6   -251290.65422        19.000           1.563
 91  6 25 15 58  0.0000000  0  5G18G16G11G 2G19
  21475213.234     2201954.071 7   1697073.76523        24.750           2.500
  23628161.539    -2243343.166 5  -1723338.99821        11.000           0.656
  23612356.922    -3198537.067 6  -2426640.48121        14.250           0.688
  23517855.469    -4341788.240 6  -3298871.92921        14.250           0.844
  20620961.016     -336683.737 6   -253291.25222        19.500           1.594
 91  6 25 15 58 15.0000000  0  5G18G16G11G 2G19
  21480960.328     2232148.424 7   1720601.82323        24.750           2.500
  23623704.406    -2266779.242 5  -1741600.85921        11.000           0.688
  23605435.219    -3234898.058 6  -2454973.70621        14.250           0.813
  23507782.047    -4394727.144 6  -3340123.00521        14.000           0.844
  20620483.055     -339208.796 6   -255258.83022        19.250           1.563
 91  6 25 15 58 30.0000000  0  5G18G16G11G 2G19
  21486718.234     2262413.561 7   1744185.02822        24.500           2.375
  23619265.484    -2290105.727 5  -1759777.31521        11.250           0.625
  23598533.773    -3271171.390 6  -2483238.59821        14.000           1.000
  23497714.078    -4447643.511 6  -3381356.51121        14.750           0.906
  20620009.344     -341693.039 6   -257194.60922        19.750           1.625
 91  6 25 15 58 45.0000000  0  5G18G16G11G 2G19
  21492493.180     2292762.679 7   1767833.67622        24.500           2.469
  23614848.547    -2313309.055 5  -1777857.81521        11.000           0.750
  23591649.117    -3307343.088 6  -2511424.28921        14.250           0.781
  23487651.430    -4500523.454 6  -3422561.63321        14.250           0.844
  20619549.813     -344122.751 6   -259087.89322        19.250           1.563
 91  6 25 15 59  0.0000000  0  5G18G16G11G 2G19
  21498284.445     2323190.084 7   1791543.32122        24.750           2.375
  23610454.656    -2336394.836 5  -1795846.72121        11.000           0.625
  23584786.266    -3343418.505 6  -2539534.97021        15.250           0.875
  23477590.977    -4553372.556 6  -3463742.73521        14.000           0.844
  20619094.758     -346503.665 6   -260943.15922        19.250           1.688
 91  6 25 15 59 15.0000000  0  5G18G16G11G 2G19
  21504088.516     2353693.492 7   1815312.19222        24.250           2.406
  23606083.930    -2359364.882 5  -1813745.43421        11.250           0.625
  23577939.297    -3379399.567 6  -2567572.13221        14.500           0.750
  23467537.602    -4606193.118 6  -3504901.60121        13.750           0.781
  20618649.375     -348838.149 6   -262762.24022        19.000           1.719
 91  6 25 15 59 30.0000000  0  5G18G16G11G 2G19
  21509906.813     2384272.883 7   1839140.28222        24.250           2.438
  23601735.023    -2382219.124 5  -1831553.91121        11.250           0.625
  23571112.047    -3415285.785 6  -2595535.38921        15.500           0.781
  23457490.555    -4658984.560 6  -3546037.76421        13.750           0.906
  20618214.094     -351126.026 7   -264545.00022        20.000           1.656
 91  6 25 15 59 45.0000000  0  5G18G16G11G 2G19
  21515742.469     2414929.184 7   1863028.28322        24.500           2.375
  23597408.375    -2404956.341 5  -1849271.20721        11.500           0.469
  23564299.781    -3451075.829 6  -2623423.71321        15.250           1.031
  23447454.227    -4711745.801 6  -3587150.39221        14.500           0.813
  20617789.242     -353366.337 6   -266290.70322        19.250           1.594
 91  6 25 16  0  0.0000000  0  5G18G16G11G 2G19
  21521589.945     2445660.962 7   1886975.09422        25.250           2.375
  23593103.344    -2427577.473 5  -1866898.04421        11.250           0.500
  23557509.094    -3486770.375 6  -2651237.59121        14.750           1.063
  23437421.516    -4764477.609 6  -3628240.07721        15.000           0.844
  20617368.602     -355560.009 6   -268000.05922        19.500           1.688
 91  6 25 16  0 15.0000000  0  5G18G16G11G 2G19
  21527453.344     2476474.001 7   1910985.24222        24.500           2.344
  23588822.688    -2450076.396 5  -1884429.67321        11.750           0.531
  23550733.258    -3522363.086 6  -2678972.15121        14.750           0.938
  23427389.922    -4817174.022 6  -3669302.19321        14.500           0.781
  20616964.313     -357701.103 6   -269668.44722        19.750           1.656
 91  6 25 16  0 30.0000000  0  5G18G16G11G 2G19
  21533328.445     2507360.257 7   1935052.43522        23.250           2.375
  23584562.703    -2472460.966 5  -1901872.17821        11.750           0.438
  23543978.398    -3557861.486 6  -2706633.22421        15.500           0.906
  23417367.992    -4869842.484 6  -3710342.53621        14.750           0.813
  20616562.875     -359797.552 6   -271302.04622        19.250           1.625
 91  6 25 16  0 45.0000000  0  5G18G16G11G 2G19
  21539221.141     2538322.128 7   1959178.55022        23.500           2.375
  23580330.383    -2494728.582 6  -1919223.55621        12.000           0.563
  23537241.734    -3593262.748 6  -2734218.59021        14.750           0.813
  23407349.258    -4922480.699 6  -3751359.30121        14.500           0.875
  20616173.445     -361846.969 7   -272899.00122        20.000           1.656
 91  6 25 16  1  0.0000000  0  5G18G16G11G 2G19
  21545129.797     2569364.646 7   1983367.51122        23.750           2.344
  23576116.672    -2516873.514 6  -1936479.33021        12.000           0.500
  23530526.570    -3628561.353 6  -2761723.96721        13.750           0.875
  23397343.680    -4975083.111 6  -3792348.17921        15.000           0.844
  20615791.633     -363844.144 7   -274455.24322        20.000           1.656
 91  6 25 16  1 15.0000000  0  5G18G16G11G 2G19
  21551050.758     2600480.728 7   2007613.78622        24.250           2.438
  23571920.445    -2538902.899 6  -1953645.07121        12.000           0.563
  23523823.742    -3663763.917 6  -2789154.51821        13.000           0.938
  23387337.719    -5027656.284 6  -3833314.25321        15.250           0.781
  20615422.734     -365795.828 6   -275976.04522        19.750           1.625
 91  6 25 16  1 30.0000000  0  5G18G16G11G 2G19
  21556986.742     2631669.919 7   2031917.02722        24.500           2.344
  23567751.305    -2560817.046 5  -1970721.00121        11.500           0.500
  23517145.141    -3698870.400 6  -2816510.17921        15.000           1.031
  23377337.266    -5080200.585 6  -3874257.84521        14.750           0.781
  20615057.039     -367702.458 6   -277461.73122        19.500           1.625
 91  6 25 16  1 45.0000000  0  5G18G16G11G 2G19
  21562934.180     2662939.057 7   2056282.57422        23.750           2.344
  23563605.789    -2582608.858 5  -1987701.62421        11.750           0.469
  23510486.422    -3733873.597 6  -2843785.38121        15.500           0.906
  23367342.711    -5132708.888 6  -3915173.38721        14.750           0.875
  20614705.148     -369557.058 6   -278906.87622        19.750           1.625
 91  6 25 16  2  0.0000000  0  5G18G16G11G 2G19
  21568899.594     2694287.960 7   2080710.27522        23.750           2.406
  23559478.383    -2604277.906 5  -2004586.57921        11.250           0.500
  23503844.375    -3768773.067 6  -2870979.72921        14.500           0.969
  23357362.852    -5185180.828 6  -3956060.58821        15.500           0.750
  20614362.258     -371359.567 7   -280311.43222        20.250           1.656
 91  6 25 16  2 15.0000000  0  5G18G16G11G 2G19
  21574881.875     2725709.657 7   2105194.69322        25.000           2.281
  23555378.883    -2625830.834 6  -2021381.05021        12.000           0.531
  23497219.703    -3803575.102 6  -2898098.15821        14.000           0.906
  23347383.891    -5237623.064 6  -3996924.62521        15.750           0.844
  20614028.898     -373116.692 6   -281680.61522        19.250           1.625
 91  6 25 16  2 30.0000000  0  5G18G16G11G 2G19
  21580877.445     2757204.592 7   2129736.18022        25.250           2.313
  23551298.508    -2647267.333 5  -2038084.81721        11.500           0.469
  23490616.477    -3838278.940 6  -2925140.10921        14.500           1.031
  23337409.008    -5290034.756 6  -4037764.87521        15.250           0.875
  20613702.969     -374827.958 6   -283014.07922        19.500           1.625
 91  6 25 16  2 45.0000000  0  5G18G16G11G 2G19
  21586884.125     2788778.686 7   2154339.34422        25.000           2.313
  23547239.688    -2668580.835 5  -2054692.71721        11.250           0.563
  23484034.016    -3872878.198 6  -2952100.55221        15.000           1.188
  23327439.297    -5342409.794 6  -4078576.57421        14.750           0.750
  20613389.586     -376487.380 6   -284307.13722        19.750           1.625
 91  6 25 16  3  0.0000000  0  5G18G16G11G 2G19
  21592903.750     2820427.503 7   2179000.74022        24.000           2.281
  23543207.305    -2689775.674 5  -2071208.14921        10.750           0.625
  23477468.953    -3907376.727 6  -2978982.47421        15.000           1.188
  23317481.430    -5394752.341 6  -4119362.94921        15.750           0.844
  20613079.641     -378099.239 7   -285563.13422        20.250           1.656
 91  6 25 16  3 15.0000000  0  5G18G16G11G 2G19
  21598941.336     2852154.557 7   2203723.09622        23.750           2.344
  23539203.031    -2710847.848 5  -2087627.99821        11.750           0.594
  23470922.938    -3941770.322 6  -3005782.65421        14.500           1.063
  23307530.391    -5447058.193 6  -4160120.71921        16.250           0.906
  20612784.781     -379659.582 6   -286778.98722        19.500           1.656
 91  6 25 16  3 30.0000000  0  5G18G16G11G 2G19
  21604995.914     2883957.093 7   2228504.28422        24.500           2.219
  23535213.141    -2731800.140 5  -2103954.44421        11.250           0.625
  23464398.461    -3976061.434 6  -3032502.96921        15.500           1.063
  23297581.984    -5499329.787 6  -4200851.81121        16.250           0.875
  20612498.773     -381170.982 6   -287956.70022        18.750           1.688
 91  6 25 16  3 45.0000000  0  5G18G16G11G 2G19
  21611061.188     2915839.661 7   2253347.82122        23.250           2.219
  23531249.477    -2752627.580 5  -2120183.61821        11.250           0.531
  23457895.117    -4010244.832 6  -3059139.36221        16.250           1.031
  23287643.539    -5551562.330 6  -4241552.47121        16.250           0.813
  20612219.938     -382628.770 6   -289092.64722        19.750           1.688
 91  6 25 16  4  0.0000000  0  5G18G16G11G 2G19
  21617140.367     2947790.313 7   2278244.41222        23.250           2.188
  23527307.570    -2773341.638 5  -2136324.41821        11.500           0.531
  23451409.695    -4044332.058 6  -3085700.81321        16.500           1.281
  23277707.633    -5603767.560 6  -4282231.85121        15.750           0.938
  20611949.594     -384044.954 6   -290196.16722        19.500           1.719
 91  6 25 16  4 15.0000000  0  5G18G16G11G 2G19
  21623236.664     2979819.602 7   2303202.27122        23.750           2.250
  23523390.711    -2793931.808 5  -2152368.70821        11.750           0.563
  23444940.430    -4078312.176 6  -3112178.80221        15.750           1.125
  23267782.039    -5655934.526 6  -4322881.41621        15.500           0.813
  20611689.211     -385408.782 6   -291258.89522        19.250           1.563
 91  6 25 16  4 30.0000000  0  5G18G16G11G 2G19
  21629346.117     3011918.640 7   2328214.48322        23.500           2.156
  23519491.953    -2814406.938 5  -2168323.34221        11.000           0.531
  23438494.336    -4112193.792 6  -3138580.03321        16.500           1.156
  23257861.609    -5708071.892 6  -4363507.91521        15.750           0.906
  20611437.320     -386728.975 6   -292287.62022        19.750           1.531
 91  6 25 16  4 45.0000000  0  5G18G16G11G 2G19
  21635466.492     3044089.756 7   2353282.85422        23.500           2.156
  23515618.961    -2834764.320 5  -2184186.21321        11.000           0.625
  23432066.563    -4145973.841 6  -3164902.12421        18.000           1.063
  23247948.141    -5760176.989 6  -4404109.26121        15.500           1.031
  20611195.156     -388002.908 6   -293280.29022        19.000           1.531
 91  6 25 16  5  0.0000000  0  5G18G16G11G 2G19
  21641606.000     3076340.689 7   2378413.42822        24.000           2.156
  23511770.289    -2854995.646 5  -2199950.86321        11.750           0.625
  23425657.883    -4179644.069 6  -3191138.64421        16.250           1.031
  23238039.266    -5812241.556 6  -4444679.01921        15.250           0.938
  20610962.555     -389222.622 6   -294230.72022        19.750           1.688
 91  6 25 16  5 15.0000000  0  5G18G16G11G 2G19
  21647756.133     3108663.936 7   2403600.34422        23.750           2.094
  23507939.430    -2875108.357 5  -2215623.10921        11.000           0.563
  23419269.508    -4213211.658 6  -3217295.19721        16.750           1.125
  23228135.813    -5864273.019 6  -4485222.98821        15.250           0.969
  20610742.688     -390395.679 6   -295144.78122        19.750           1.563
 91  6 25 16  5 30.0000000  0  5G18G16G11G 2G19
  21653917.602     3141054.129 7   2428839.43222        23.250           2.063
  23504134.234    -2895107.453 5  -2231206.80521        11.000           0.594
  23412900.805    -4246681.144 6  -3243375.30821        16.250           1.063
  23218239.148    -5916275.961 6  -4525744.74621        15.500           0.969
  20610527.414     -391526.887 6   -296026.24422        19.000           1.688
 91  6 25 16  5 45.0000000  0  5G18G16G11G 2G19
  21660098.023     3173527.254 7   2454143.14422        22.250           2.156
  23500355.992    -2914976.525 5  -2246689.17521        11.750           0.625
  23406553.797    -4280036.192 6  -3269366.21421        16.750           0.969
  23208348.859    -5968234.199 6  -4566231.67221        15.250           1.031
  20610321.117     -392600.236 6   -296862.61922        19.500           1.563
 91  6 25 16  6  0.0000000  0  5G18G16G11G 2G19
  21666293.977     3206081.026 7   2479509.69522        22.500           2.063
  23496596.414    -2934717.380 5  -2262071.65521        11.250           0.563
  23400231.086    -4313278.560 6  -3295269.34221        16.250           0.938
  23198475.906    -6020149.745 6  -4606685.31621        16.250           1.156
  20610125.867     -393617.875 6   -297655.58822        19.500           1.688
 91  6 25 16  6 15.0000000  0  5G18G16G11G 2G19
  21672502.891     3238706.915 7   2504932.43622        23.000           2.125
  23492865.945    -2954338.541 5  -2277360.86021        11.000           0.656
  23393922.141    -4346416.574 6  -3321091.15021        15.750           0.938
  23188598.609    -6072030.886 6  -4647112.14821        15.750           1.063
  20609944.039     -394588.388 6   -298411.83322        19.250           1.563
 91  6 25 16  6 30.0000000  0  5G18G16G11G 2G19
  21678724.516     3271402.075 7   2530409.16222        22.750           2.125
  23489154.367    -2973842.816 5  -2292558.98521        11.250           0.656
  23387632.258    -4379452.266 6  -3346833.22921        15.500           0.969
  23178731.453    -6123879.972 6  -4687514.00921        15.750           0.969
  20609765.492     -395514.136 6   -299133.19622        19.500           1.531
 91  6 25 16  6 45.0000000  0  5G18G16G11G 2G19
  21684957.523     3304168.593 7   2555941.47922        21.750           2.125
  23485463.703    -2993227.525 5  -2307663.93021        11.250           0.688
  23381371.063    -4412383.045 6  -3372493.55421        16.250           1.000
  23168869.922    -6175694.850 6  -4727889.22021        15.250           1.000
  20609599.328     -396393.028 6   -299818.04522        19.250           1.531
 91  6 25 16  7  0.0000000  0  5G18G16G11G 2G19
  21691207.664     3337011.166 7   2581533.06922        21.750           2.094
  23481798.359    -3012487.795 5  -2322671.92621        11.500           0.500
  23375122.805    -4445203.838 6  -3398068.17921        15.750           0.969
  23159019.703    -6227470.374 6  -4768233.76321        15.500           1.094
  20609441.641     -397220.182 6   -300462.57622        19.750           1.563
 91  6 25 16  7 15.0000000  0  5G18G16G11G 2G19
  21697473.914     3369923.789 7   2607179.24522        22.750           2.125
  23478157.016    -3031629.539 5  -2337587.55921        10.750           0.531
  23368894.641    -4477920.173 6  -3423561.40921        15.500           0.938
  23149175.313    -6279212.077 6  -4808551.94721        16.000           1.000
  20609292.859     -398001.489 6   -301071.38322        19.250           1.688
 91  6 25 16  7 30.0000000  0  5G18G16G11G 2G19
  21703747.742     3402904.368 7   2632878.36722        22.250           2.125
  23474535.398    -3050654.425 5  -2352412.13321        10.750           0.438
  23362694.867    -4510533.705 6  -3448974.52521        16.250           0.938
  23139335.273    -6330921.737 6  -4848845.16021        16.250           1.063
  20609154.281     -398738.735 6   -301645.86722        18.750           1.594
 91  6 25 16  7 45.0000000  0  5G18G16G11G 2G19
  21710034.570     3435949.740 7   2658627.97222        22.000           2.125
  23470942.047    -3069565.401 5  -2367147.95721        11.750           0.500
  23356506.469    -4543046.664 6  -3474309.28221        17.000           0.938
  23129502.531    -6382601.838 6  -4889115.35021        16.000           0.969
  20609021.344     -399434.561 6   -302188.07622        19.000           1.625
 91  6 25 16  8  0.0000000  0  5G18G16G11G 2G19
  21716337.219     3469069.139 7   2684435.27522        21.750           2.094
  23467363.945    -3088353.201 5  -2381787.81021        11.000           0.500
  23350336.266    -4575449.723 6  -3499558.39321        16.500           1.063
  23119674.703    -6434243.221 6  -4929355.36621        16.000           1.031
  20608900.805     -400079.998 6   -302691.01422        19.000           1.531
 91  6 25 16  8 15.0000000  0  5G18G16G11G 2G19
  21722651.648     3502257.050 7   2710295.96022        21.750           2.031
  23463811.734    -3107022.764 5  -2396335.49121        11.500           0.531
  23344190.891    -4607747.734 6  -3524725.66421        16.750           1.031
  23109853.203    -6485851.018 6  -4969569.22421        16.000           0.969
  20608784.516     -400680.117 6   -303158.63822        19.250           1.563
 91  6 25 16  8 30.0000000  0  5G18G16G11G 2G19
  21728980.555     3535514.035 7   2736210.47322        22.250           2.063
  23460279.891    -3125573.181 5  -2410790.36121        11.250           0.438
  23338064.258    -4639939.709 6  -3549810.30921        16.250           1.188
  23100037.141    -6537424.335 6  -5009756.20721        15.750           1.063
  20608677.297     -401234.344 6   -303590.50022        19.250           1.656
 91  6 25 16  8 45.0000000  0  5G18G16G11G 2G19
  21735326.367     3568840.372 7   2762179.01422        23.500           2.156
  23456774.078    -3144004.458 5  -2425152.39821        11.250           0.500
  23331961.711    -4672025.072 6  -3574811.85521        17.250           0.969
  23090231.320    -6588962.548 6  -5049915.83721        15.750           1.000
  20608581.672     -401742.453 6   -303986.43122        18.750           1.594
 91  6 25 16  9  0.0000000  0  5G18G16G11G 2G19
  21741681.320     3602239.685 7   2788204.42422        23.500           2.094
  23453290.031    -3162312.162 5  -2439418.12721        10.750           0.469
  23325876.148    -4703999.492 6  -3599726.97521        17.250           0.969
  23080429.789    -6640461.431 6  -5090044.81421        15.500           1.063
  20608494.844     -402200.329 6   -304343.21822        19.500           1.625
 91  6 25 16  9 15.0000000  0  5G18G16G11G 2G19
  21748046.477     3635704.401 7   2814280.79922        22.500           2.031
  23449827.586    -3180503.772 5  -2453593.39221        11.250           0.469
  23319814.523    -4735870.058 6  -3624561.16621        17.750           1.094
  23070634.516    -6691928.176 6  -5130148.74421        15.000           1.125
  20608417.469     -402615.287 6   -304666.56622        19.750           1.531
 91  6 25 16  9 30.0000000  0  5G18G16G11G 2G19
  21754427.953     3669235.894 7   2840409.20922        22.500           2.000
  23446389.727    -3198577.866 5  -2467677.08121        11.500           0.531
  23313765.156    -4767635.275 6  -3649313.26021        16.500           1.031
  23060851.344    -6743361.540 6  -5170226.67221        16.000           1.094
  20608345.414     -402986.085 6   -304955.50022        19.750           1.594
 91  6 25 16  9 45.0000000  0  5G18G16G11G 2G19
  21760822.930     3702841.017 7   2866594.99522        22.500           2.000
  23442977.422    -3216527.010 5  -2481663.42021        11.500           0.500
  23307744.305    -4799287.250 6  -3673977.10121        17.000           0.938
  23051069.063    -6794753.793 6  -5210272.55721        15.500           1.156
  20608283.297     -403305.353 6   -305204.28222        19.250           1.563
 91  6 25 16 10  0.0000000  0  5G18G16G11G 2G19
  21767232.156     3736513.027 7   2892832.89622        22.500           1.781
  23439580.352    -3234357.750 5  -2495557.50021        11.250           0.500
  23301741.156    -4830832.510 6  -3698557.79421        16.500           1.000
  23041294.211    -6846111.473 6  -5250291.51421        15.250           1.156
  20608232.031     -403579.872 6   -305418.19922        19.500           1.656
 91  6 25 16 10 15.0000000  0  5G18G16G11G 2G19
  21773650.000     3770247.996 7   2919119.85322        21.750           1.938
  23436204.625    -3252073.904 5  -2509362.29021        11.250           0.469
  23295756.023    -4862274.348 6  -3723057.90121        16.000           0.938
  23031527.852    -6897438.179 6  -5290286.33121        15.500           1.125
  20608188.828     -403813.262 6   -305600.06122        19.750           1.625
 91  6 25 16 10 30.0000000  0  5G18G16G11G 2G19
  21780083.391     3804047.260 7   2945456.91622        22.750           1.781
  23432858.625    -3269673.747 5  -2523076.43821        11.000           0.469
  23289793.766    -4893611.215 6  -3747476.22421        16.250           1.031
  23021771.766    -6948732.413 6  -5330255.83721        16.000           1.156
  20608151.070     -404004.101 6   -305748.76922        19.500           1.563
 91  6 25 16 10 45.0000000  0  5G18G16G11G 2G19
  21786526.805     3837913.451 7   2971846.13922        22.500           1.875
  23429535.789    -3287154.439 5  -2536697.74721        11.250           0.500
  23283849.891    -4924839.742 6  -3771810.10521        15.750           0.969
  23012014.680    -6999991.043 6  -5370197.60521        15.750           1.156
  20608123.266     -404149.358 6                        19.250
 91  6 25 16 11  0.0000000  0  5G18G16G11G 2G19
  21792985.992     3871848.201 7   2998288.77722        22.750           1.813
  23426231.938    -3304514.214 5  -2550224.84221        11.750           0.531
  23277931.727    -4955957.990 6  -3796058.07021        16.000           1.000
  23002267.203    -7051212.262 6  -5410110.21221        15.250           1.188
  20608104.188     -404247.437 6                        19.500
 91  6 25 16 11 15.0000000  0  5G18G16G11G 2G19
  21799455.430     3905849.374 7   3024783.17422        23.000           1.875
  23422947.945    -3321754.719 5  -2563658.99721        11.000           0.656
  23272029.563    -4986967.369 6  -3820221.18921        14.750           1.000
  22992528.758    -7102397.615 6  -5449994.89221        15.750           1.250
  20608095.281     -404300.005 6                        19.000
 91  6 25 16 11 30.0000000  0  5G18G16G11G 2G19
  21805938.367     3939921.374 7   3051332.75422        22.750           1.969
  23419689.055    -3338871.626 5  -2576996.83321        11.000           0.594
  23266150.563    -5017863.273 6  -3844295.88521        15.000           1.125
  22982791.086    -7153542.557 6  -5489848.06521        15.500           1.219
  20608095.625     -404302.602 6                        19.250
 91  6 25 16 11 45.0000000  0  5G18G16G11G 2G19
  21812434.313     3974058.748 7   3077933.27222        22.750           2.031
  23416459.359    -3355869.872 5  -2590242.21021        11.750           0.563
  23260290.070    -5048650.532 6  -3868285.92421        14.000           1.063
  22973072.492    -7204651.933 6  -5529673.52421        16.500           1.125
  20608103.734     -404260.405 6                        19.500
 91  6 25 16 12  0.0000000  0  5G18G16G11G 2G19
  21818945.805     4008267.173 7   3104589.14922        23.500           1.844
  23413247.383    -3372743.771 5  -2603390.71921        11.750           0.531
  23254455.383    -5079323.115 6  -3892186.61221        15.500           0.906
  22963349.750    -7255719.881 6  -5569466.70821        15.750           1.281
  20608122.164     -404167.783 6                        19.000
 91  6 25 16 12 15.0000000  0  5G18G16G11G 2G19
  21825467.563     4042539.950 7   3131295.19122        23.750           1.906
  23410057.289    -3389499.477 5  -2616447.12321        11.250           0.563
  23248639.227    -5109887.169 6  -3916002.73321        15.000           1.000
  22953638.000    -7306752.872 6  -5609232.64821        15.750           1.219
  20608147.438     -404031.038 6                        18.750
 91  6 25 16 12 30.0000000  0  5G18G16G11G 2G19
  21832001.336     4076880.730 7   3158054.20922        23.500           1.906
  23406891.258    -3406132.823 5  -2629408.16521        11.000           0.594
  23242845.461    -5140338.556 6  -3939731.05321        15.250           1.063
  22943935.188    -7357746.766 6  -5648968.13921        15.500           1.281
  20608180.539     -403846.489 6                        18.750
 91  6 25 16 12 45.0000000  0  5G18G16G11G 2G19
  21838551.477     4111286.318 7   3184863.73122        24.500           1.875
  23403752.195    -3422646.958 5  -2642276.32721        11.250           0.563
  23237068.969    -5170679.935 6  -3963373.67421        14.500           0.906
  22934234.266    -7408704.332 6  -5688675.30521        15.250           1.125
  20608225.914     -403617.037 6                        18.500
 91  6 25 16 13  0.0000000  0  5G18G16G11G 2G19
  21845109.711     4145764.944 7   3211730.17222        23.750           1.938
  23400630.586    -3439033.660 5  -2655045.17421        11.000           0.500
  23231318.695    -5200902.586 6  -3986923.75221        15.750           1.063
  22924551.664    -7459616.992 6  -5728347.48621        16.250           1.281
  20608280.484     -403334.269 6   -305226.85022        18.250           1.563
 91  6 25 16 13 15.0000000  0  5G18G16G11G 2G19
  21851684.664     4180314.616 7   3238651.97122        23.250           1.813
  23397537.797    -3455294.974 5  -2667716.32821        11.500           0.594
  23225588.711    -5231008.083 6  -4010382.55621        15.500           0.969
  22914868.258    -7510486.353 6  -5767985.92621        15.750           1.313
  20608342.438     -403000.000 6   -304966.37422        18.250           1.594
 91  6 25 16 13 30.0000000  0  5G18G16G11G 2G19
  21858270.352     4214927.595 7   3265623.10122        23.000           1.906
  23394469.711    -3471437.818 6  -2680295.16821        12.000           0.625
  23219879.555    -5261003.623 6  -4033755.68921        14.750           0.969
  22905198.164    -7561319.826 6  -5807596.40821        16.500           1.219
  20608414.078     -402621.769 6   -304671.65022        18.750           1.625
 91  6 25 16 13 45.0000000  0  5G18G16G11G 2G19
  21864870.398     4249607.376 7   3292646.27322        22.750           1.781
  23391417.633    -3487458.582 5  -2692778.89021        11.500           0.563
  23214196.336    -5290885.146 6  -4057039.95721        15.750           0.938
  22895531.883    -7612113.496 6  -5847175.87321        17.000           1.250
  20608495.172     -402195.856 6   -304339.77922        18.250           1.688
 91  6 25 16 14  0.0000000  0  5G18G16G11G 2G19
  21871484.836     4284366.578 7   3319731.33022        22.500           1.938
  23388394.609    -3503344.687 5  -2705157.66521        11.750           0.625
  23208534.453    -5320639.737 6  -4080225.32621        15.250           0.875
  22885878.758    -7662854.749 6  -5886714.48921        17.250           1.156
  20608586.898     -401709.697 6   -303960.96222        18.000           1.688
 91  6 25 16 14 15.0000000  0  5G18G16G11G 2G19
  21878118.625     4319220.406 7   3346890.12522        22.500           1.813
  23385395.391    -3519080.366 5  -2717419.23821        11.750           0.625
  23202896.805    -5350251.637 6  -4103299.50421        16.000           0.969
  22876233.656    -7713527.716 6  -5926199.90021        16.500           1.188
  20608695.211     -401147.528 6   -303522.91322        18.000           1.656
 91  6 25 16 14 30.0000000  0  5G18G16G11G 2G19
  21884761.906     4354143.643 7   3374103.00722        22.000           1.813
  23382425.797    -3534690.605 6  -2729583.06021        12.000           0.594
  23197287.047    -5379745.529 6  -4126281.73821        15.750           1.063
  22866594.430    -7764157.168 6  -5965651.40921        16.250           1.188
  20608808.883     -400534.442 6   -303045.19222        18.250           1.563
 91  6 25 16 14 45.0000000  0  5G18G16G11G 2G19
  21891421.313     4389134.775 7   3401368.79222        22.000           1.781
  23379482.383    -3550177.117 6  -2741650.46721        12.000           0.563
  23191696.602    -5409122.713 6  -4149173.02221        16.000           0.938
  22856971.883    -7814744.610 6  -6005070.17421        16.250           1.188
  20608936.742     -399872.065 6   -302529.06022        18.500           1.688
 91  6 25 16 15  0.0000000  0  5G18G16G11G 2G19
  21898094.508     4424194.362 7   3428687.93122        22.250           1.781
  23376559.078    -3565538.698 6  -2753620.53821        12.000           0.531
  23186128.328    -5438382.232 6  -4171972.62321        15.500           0.813
  22847351.594    -7865289.057 6  -6044455.43821        16.250           1.313
  20609073.227     -399159.554 6   -301973.86222        18.750           1.531
 91  6 25 16 15 15.0000000  0  5G18G16G11G 2G19
  21904777.102     4459321.695 7   3456059.84622        22.750           1.719
  23373655.758    -3580775.848 5  -2765493.65421        11.250           0.594
  23180582.750    -5467524.098 6  -4194680.54821        15.000           0.906
  22837743.977    -7915790.768 6  -6083807.40021        17.000           1.250
  20609219.938     -398397.451 6   -301380.01922        19.000           1.719
 91  6 25 16 15 30.0000000  0  5G18G16G11G 2G19
  21911477.680     4494517.837 7   3483485.37922        22.750           1.750
  23370786.625    -3595887.105 6  -2777268.64821        12.500           0.563
  23175059.828    -5496546.541 6  -4217295.41021        14.750           0.875
  22828142.273    -7966248.174 6  -6123124.83721        17.000           1.281
  20609370.875     -397584.122 6   -300746.25822        18.750           1.531
 91  6 25 16 15 45.0000000  0  5G18G16G11G 2G19
  21918187.289     4529789.141 7   3510969.47922        22.500           1.844
  23367934.219    -3610866.305 6  -2788940.76421        12.000           0.563
  23169560.281    -5525442.944 6  -4239812.06721        14.500           0.875
  22818549.930    -8016654.815 6  -6162402.72521        17.500           1.281
  20609538.313     -396713.144 6   -300067.58022        18.250           1.719
 91  6 25 16 16  0.0000000  0  5G18G16G11G 2G19
  21924913.813     4565136.617 7   3538512.94122        22.500           1.719
  23365108.359    -3625712.060 6  -2800508.88521        12.000           0.625
  23164085.023    -5554211.816 6  -4262229.34721        14.750           1.031
  22808967.469    -8067009.252 6  -6201639.93021        17.500           1.313
  20609717.188     -395783.257 6   -299342.98922        17.500           1.563
 91  6 25 16 16 15.0000000  0  5G18G16G11G 2G19
  21931654.875     4600553.372 7   3566110.37322        23.250           1.844
  23362304.352    -3640430.939 5  -2811978.15621        11.250           0.594
  23158635.453    -5582859.630 6  -4284552.30221        14.500           1.000
  22799394.844    -8117318.020 6  -6240841.55521        18.000           1.281
  20609902.297     -394801.148 6   -298577.71522        18.000           1.625
 91  6 25 16 16 30.0000000  0  5G18G16G11G 2G19
  21938405.039     4636035.039 7   3593758.39422        22.500           1.688
  23359530.117    -3655027.127 6  -2823351.80121        12.000           0.563
  23153208.039    -5611390.251 6  -4306783.93421        15.250           0.938
  22789825.656    -8167585.114 6  -6280010.69721        17.750           1.438
  20610099.477     -393771.111 6   -297775.08922        18.000           1.594
 91  6 25 16 16 45.0000000  0  5G18G16G11G 2G19
  21945170.313     4671578.083 7   3621454.24222        22.750           1.875
  23356772.242    -3669504.155 5  -2834632.62621        11.750           0.563
  23147797.766    -5639806.967 6  -4328926.79721        15.000           0.906
  22780270.609    -8217813.863 6  -6319149.97821        18.500           1.406
  20610302.695     -392696.613 6   -296937.81722        17.500           1.656
 91  6 25 16 17  0.0000000  0  5G18G16G11G 2G19
  21951944.703     4707178.484 7   3649194.78322        23.000           1.688
  23354039.305    -3683865.657 5  -2845823.40221        11.500           0.594
  23142409.523    -5668113.081 6  -4350983.49821        15.250           1.094
  22770719.273    -8268007.809 6  -6358262.12121        18.250           1.438
  20610515.430     -391581.125 6   -296068.62022        18.000           1.656
 91  6 25 16 17 15.0000000  0  5G18G16G11G 2G19
  21958732.633     4742842.353 7   3676984.78522        23.250           1.781
  23351330.695    -3698105.211 5  -2856919.15721        11.500           0.594
  23137046.539    -5696301.984 6  -4372948.85121        16.000           0.938
  22761174.133    -8318160.386 6  -6397342.03321        17.750           1.406
  20610736.063     -390418.382 6   -295162.59422        17.500           1.594
 91  6 25 16 17 30.0000000  0  5G18G16G11G 2G19
  21965530.922     4778578.920 7   3704831.42322        22.250           1.563
  23348648.609    -3712213.241 6  -2867912.42921        12.250           0.531
  23131707.031    -5724363.949 6  -4394815.31121        16.500           0.906
  22751639.789    -8368261.938 6  -6436382.19121        17.500           1.438
  20610968.664     -389199.009 6   -294212.43922        17.750           1.625
 91  6 25 16 17 45.0000000  0  5G18G16G11G 2G19
  21972345.641     4814387.741 7   3732734.36722        21.750           1.750
  23345984.258    -3726190.009 5  -2878803.42821        11.500           0.563
  23126389.875    -5752299.112 6  -4416582.94621        17.000           1.031
  22742114.977    -8418312.863 6  -6475382.88521        17.250           1.406
  20611210.570     -387923.354 6   -293218.42522        17.750           1.656
 91  6 25 16 18  0.0000000  0  5G18G16G11G 2G19
  21979172.727     4850263.652 7   3760689.58322        22.000           1.594
  23343349.195    -3740040.459 6  -2889595.97321        12.000           0.656
  23121099.078    -5780112.070 6  -4438255.35421        16.500           0.875
  22732601.445    -8468317.739 6  -6514347.71122        17.750           1.531
  20611465.414     -386596.310 6   -292184.36822        17.000           1.813
 91  6 25 16 18 15.0000000  0  5G18G16G11G 2G19
  21986009.953     4886199.442 7   3788691.46222        22.000           1.500
  23340740.984    -3753771.607 6  -2900295.56821        12.000           0.594
  23115826.992    -5807809.668 6  -4459837.88221        17.000           0.938
  22723094.328    -8518283.396 6  -6553281.97121        17.500           1.438
  20611725.305     -385224.949 6   -291115.77722        17.250           1.719
 91  6 25 16 18 30.0000000  0  5G18G16G11G 2G19
  21992860.008     4922202.613 7   3816745.85022        21.500           1.531
  23338151.648    -3767375.747 5  -2910896.20321        11.750           0.531
  23110579.727    -5835383.993 6  -4481324.34921        16.250           1.000
  22713593.680    -8568201.960 6  -6592179.52822        17.500           1.531
  20611994.227     -383801.542 6   -290006.63022        17.750           1.813
 91  6 25 16 18 45.0000000  0  5G18G16G11G 2G19
  21999726.344     4958274.278 7   3844853.61222        21.500           1.531
  23335589.891    -3780851.575 6  -2921396.83421        12.000           0.719
  23105359.266    -5862833.397 6  -4502713.47921        17.750           1.031
  22704101.852    -8618072.028 6  -6631039.30721        16.750           1.438
  20612275.742     -382324.666 6   -288855.81322        17.000           1.688
 91  6 25 16 19  0.0000000  0  5G18G16G11G 2G19
  22006603.297     4994416.158 7   3873016.08222        21.750           1.500
  23333047.422    -3794197.138 6  -2931795.97521        12.500           0.656
  23100156.305    -5890155.693 6  -4524003.56421        17.000           1.031
  22694622.633    -8667891.645 6  -6669859.76822        17.250           1.500
  20612566.688     -380792.362 6   -287661.81022        17.750           1.688
 91  6 25 16 19 15.0000000  0  5G18G16G11G 2G19
  22013492.844     5030615.528 7   3901223.35122        22.000           1.594
  23330530.492    -3807424.454 6  -2942102.98021        12.250           0.625
  23094981.391    -5917362.892 6  -4545203.95321        17.500           0.969
  22685152.813    -8717673.002 6  -6708650.41421        17.500           1.469
  20612867.672     -379217.001 6   -286434.26322        17.250           1.781
 91  6 25 16 19 30.0000000  0  5G18G16G11G 2G19
  22020392.453     5066873.215 7   3929476.06222        21.250           1.500
  23328032.625    -3820533.035 5  -2952317.46821        11.500           0.625
  23089826.977    -5944453.901 6  -4566313.81921        17.500           1.000
  22675684.367    -8767415.044 6  -6747410.43221        17.500           1.375
  20613176.734     -377597.643 6   -285172.42722        18.000           1.750
 91  6 25 16 19 45.0000000  0  5G18G16G11G 2G19
  22027302.367     5103188.044 7   3957773.30322        21.500           1.688
  23325566.828    -3833523.727 6  -2962440.07821        12.250           0.594
  23084690.602    -5971429.444 6  -4587333.69121        16.750           0.875
  22666227.031    -8817118.483 6  -6786140.36321        17.500           1.406
  20613492.758     -375935.287 6   -283877.09122        17.750           1.656
 91  6 25 16 20  0.0000000  0  5G18G16G11G 2G19
  22034225.625     5139562.047 7   3986116.64922        21.750           1.594
  23323110.727    -3846394.553 5  -2972469.30221        11.250           0.500
  23079580.734    -5998287.072 6  -4608261.68921        17.000           1.000
  22656777.047    -8866780.923 6  -6824838.35021        17.750           1.375
  20613818.289     -374227.816 6   -282546.59122        16.750           1.750
 91  6 25 16 20 15.0000000  0  5G18G16G11G 2G19
  22041158.195     5176002.506 7   4014511.77322        21.000           1.625
  23320690.773    -3859137.763 6  -2982399.06321        12.250           0.750
  23074492.961    -6025019.206 6  -4629091.91221        16.500           1.063
  22647335.906    -8916395.008 6  -6863498.65721        17.750           1.344
  20614152.438     -372467.890 6   -281175.22922        17.500           1.656
 91  6 25 16 20 30.0000000  0  5G18G16G11G 2G19
  22048103.859     5212504.453 7   4042954.81622        20.500           1.594
  23318287.938    -3871757.873 6  -2992232.92121        12.750           0.656
  23069429.820    -6051630.289 6  -4649827.79721        16.500           1.031
  22637902.133    -8965965.210 6  -6902124.77621        17.750           1.469
  20614499.125     -370660.074 6   -279766.54922        17.750           1.688
 91  6 25 16 20 45.0000000  0  5G18G16G11G 2G19
  22055061.344     5249069.068 7   4071446.68222        20.500           1.625
  23315910.508    -3884253.843 6  -3001970.04721        12.250           0.625
  23064389.680    -6078118.531 6  -4670467.95521        16.750           1.000
  22628481.789    -9015489.861 6  -6940715.39421        18.250           1.469
  20614850.805     -368802.970 6   -278319.45122        17.500           1.719
 91  6 25 16 21  0.0000000  0  5G18G16G11G 2G19
  22062035.516     5285701.251 7   4099991.20222        21.000           1.531
  23313556.945    -3896620.515 6  -3011606.42521        12.000           0.625
  23059371.781    -6104478.543 6  -4691008.20221        16.750           0.875
  22619062.320    -9064963.639 6  -6979266.36421        17.750           1.375
  20615212.688     -366891.323 6   -276829.85922        17.500           1.750
 91  6 25 16 21 15.0000000  0  5G18G16G11G 2G19
  22069015.586     5322392.818 7   4128582.00022        20.750           1.500
  23311225.539    -3908865.806 6  -3021148.20121        12.000           0.625
  23054380.227    -6130718.174 6  -4711454.66221        16.750           0.938
  22609655.594    -9114394.461 6  -7017783.86421        17.750           1.375
  20615586.609     -364933.263 6   -275304.10922        17.500           1.844
 91  6 25 16 21 30.0000000  0  5G18G16G11G 2G19
  22076011.195     5359154.776 6   4157227.65421        19.750           1.469
  23308919.500    -3920978.649 5  -3030586.78021        11.750           0.594
  23049410.930    -6156826.105 6  -4731798.47821        17.250           1.000
  22600258.711    -9163771.209 6  -7056259.23422        18.250           1.500
  20615971.305     -362917.725 6   -273733.55722        18.000           1.750
 91  6 25 16 21 45.0000000  0  5G18G16G11G 2G19
  22083017.906     5395978.223 7   4185921.21322        20.000           1.563
  23306642.469    -3932967.489 5  -3039928.73621        11.750           0.625
  23044469.195    -6182810.523 6  -4752046.06421        17.500           1.063
  22590873.563    -9213102.239 6  -7094698.97321        18.250           1.344
  20616362.422     -360853.023 6   -272124.69822        17.750           1.844
 91  6 25 16 22  0.0000000  0  5G18G16G11G 2G19
  22090039.844     5432865.375 7   4214664.40421        21.250           1.469
  23304381.430    -3944829.523 5  -3049171.89021        11.500           0.625
  23039548.273    -6208668.694 6  -4772195.25321        17.500           0.969
  22581492.336    -9262384.896 6  -7133101.03421        18.000           1.438
  20616765.398     -358736.635 6   -270475.56422        17.500           1.781
 91  6 25 16 22 15.0000000  0  5G18G16G11G 2G19
  22097070.508     5469810.117 7   4243452.48221        21.500           1.438
  23302150.313    -3956571.262 5  -3058321.29521        11.500           0.563
  23034649.313    -6234406.661 6  -4792250.80321        16.750           0.969
  22572125.141    -9311625.261 6  -7171470.13321        18.750           1.406
  20617177.922     -356574.940 6   -268791.13122        17.000           1.813
 91  6 25 16 22 30.0000000  0  5G18G16G11G 2G19
  22104110.734     5506814.582 7   4272287.09321        21.000           1.438
  23299938.734    -3968190.305 5  -3067375.10721        11.500           0.500
  23029776.047    -6260021.569 6  -4812210.43721        17.250           1.000
  22562760.313    -9360820.523 6  -7209804.08821        18.500           1.406
  20617598.008     -354365.375 6   -267069.39622        17.000           2.000
 91  6 25 16 22 45.0000000  0  5G18G16G11G 2G19
  22111163.656     5543878.885 7   4301168.32921        20.250           1.438
  23297745.203    -3979686.330 5  -3076333.05821        11.250           0.563
  23024923.195    -6285512.729 6  -4832073.66121        17.500           0.969
  22553409.992    -9409970.017 6  -7248102.37121        19.000           1.406
  20618027.289     -352107.387 6   -265309.93422        17.500           1.813
 91  6 25 16 23  0.0000000  0  5G18G16G11G 2G19
  22118226.797     5581006.810 6   4330099.13621        19.500           1.406
  23295590.398    -3991055.495 6  -3085192.15621        12.000           0.563
  23020098.664    -6310876.232 6  -4851837.40821        17.750           1.000
  22544068.438    -9459069.902 6  -7286362.01121        19.250           1.313
  20618466.422     -349797.102 6   -263509.71322        17.500           1.906
 91  6 25 16 23 15.0000000  0  5G18G16G11G 2G19
  22125307.344     5618199.762 7   4359080.62621        20.000           1.438
  23293448.820    -4002295.438 5  -3093950.57021        11.750           0.594
  23015295.094    -6336110.005 6  -4871500.07721        17.500           1.031
  22534735.156    -9508118.247 6  -7324581.47921        19.250           1.375
  20618916.617     -347432.840 6   -261667.42822        17.500           1.813
 91  6 25 16 23 30.0000000  0  5G18G16G11G 2G19
  22132395.102     5655452.112 7   4388108.39221        20.000           1.375
  23291333.406    -4013412.029 5  -3102612.85921        11.250           0.563
  23010516.828    -6361219.266 6  -4891065.70821        17.500           1.031
  22525410.867    -9557120.448 6  -7362764.99821        19.250           1.406
  20619377.070     -345020.102 6   -259787.38022        18.000           1.813
 91  6 25 16 23 45.0000000  0  5G18G16G11G 2G19
  22139495.680     5692766.627 6   4417184.60621        19.750           1.406
  23289241.992    -4024402.354 5  -3111176.76021        11.500           0.625
  23005763.617    -6386201.032 6  -4910531.99321        17.500           1.031
  22516093.422    -9606073.521 6  -7400910.23722        19.250           1.500
  20619846.695     -342556.035 6   -257867.33422        18.000           1.781
 91  6 25 16 24  0.0000000  0  5G18G16G11G 2G19
  22146609.250     5730143.970 7   4446309.76721        20.000           1.281
  23287176.398    -4035265.750 5  -3119641.74321        11.750           0.563
  23001035.320    -6411054.186 6  -4929898.07021        17.500           1.094
  22506787.219    -9654976.310 6  -7439016.29221        19.000           1.438
  20620325.078     -340039.683 6   -255906.54722        17.250           1.813
 91  6 25 16 24 15.0000000  0  5G18G16G11G 2G19
  22153732.648     5767577.054 7   4475478.37321        20.000           1.375
  23285124.727    -4046008.992 5  -3128013.11021        11.500           0.594
  22996325.211    -6435785.484 6  -4949169.18821        16.500           1.125
  22497489.477    -9703835.560 6  -7477088.41421        18.750           1.438
  20620811.805     -337477.957 6   -253910.40322        17.500           1.906
 91  6 25 16 24 30.0000000  0  5G18G16G11G 2G19
  22160866.047     5805070.588 7   4504694.07121        20.000           1.281
  23283109.273    -4056627.029 5  -3136286.91121        11.750           0.531
  22991643.844    -6460389.444 6  -4968341.08421        16.500           1.031
  22488201.539    -9752646.118 6  -7515122.60222        19.000           1.500
  20621308.859     -334865.830 6   -251874.98822        18.250           1.938
 91  6 25 16 24 45.0000000  0  5G18G16G11G 2G19
  22168012.273     5842623.223 6   4533955.82121        19.750           1.344
  23281116.344    -4067120.819 6  -3144463.89121        12.000           0.563
  22986988.125    -6484866.989 6  -4987414.48321        16.750           0.906
  22478923.023    -9801409.086 6  -7553119.70422        19.000           1.500
  20621815.414     -332204.313 6   -249801.08422        18.000           1.875
 91  6 25 16 25  0.0000000  0  5G18G16G11G 2G19
  22175171.805     5880242.216 6   4563269.28121        19.500           1.438
  23279141.273    -4077483.187 5  -3152538.47921        11.750           0.563
  22982354.797    -6509210.522 6  -5006383.44421        17.000           0.938
  22469652.234    -9850116.863 6  -7591073.80022        18.500           1.594
  20622333.039     -329486.077 6   -247682.97922        18.000           1.875
 91  6 25 16 25 15.0000000  0  5G18G16G11G 2G19
  22182340.234     5917922.673 6   4592630.63021        19.250           1.344
  23277192.586    -4087718.780 5  -3160514.27121        11.750           0.563
  22977749.117    -6533424.495 6  -5025251.45821        17.750           0.875
  22460393.492    -9898773.888 6  -7628988.35222        18.500           1.594
  20622860.500     -326715.630 6   -245524.19122        17.750           1.844
 91  6 25 16 25 30.0000000  0  5G18G16G11G 2G19
  22189523.469     5955667.770 6   4622042.35221        19.250           1.469
  23275267.820    -4097824.288 5  -3168388.71221        11.750           0.500
  22973163.344    -6557505.152 6  -5044015.59221        17.500           0.844
  22451142.086    -9947376.518 6  -7666860.51022        18.250           1.500
  20623399.055     -323889.627 6   -243322.12022        17.750           1.781
 91  6 25 16 25 45.0000000  0  5G18G16G11G 2G19
  22196719.883     5993475.981 6   4651503.25121        19.250           1.375
  23273369.883    -4107800.977 5  -3176162.76421        11.750           0.625
  22968608.195    -6581453.745 6  -5062676.81121        17.000           0.969
  22441904.391    -9995926.007 6  -7704691.26122        18.500           1.594
  20623945.664     -321009.431 6   -241077.81722        18.000           1.813
 91  6 25 16 26  0.0000000  0  5G18G16G11G 2G19
  22203925.594     6031340.856 6   4681008.30221        19.250           1.375
  23271491.180    -4117655.155 5  -3183841.35221        10.750           0.531
  22964075.047    -6605276.312 6  -5081239.82721        17.750           1.031
  22432678.688   -10044428.572 6  -7742485.45122        18.750           1.594
  20624503.227     -318081.349 6   -238796.20522        18.000           1.688
 91  6 25 16 26 15.0000000  0  5G18G16G11G 2G19
  22211141.141     6069268.745 6   4710562.45721        18.750           1.313
  23269642.477    -4127380.170 5  -3191419.28321        11.500           0.531
  22959566.641    -6628966.076 6  -5099699.36721        18.000           1.063
  22423454.836   -10092877.307 6  -7780237.69622        18.000           1.656
  20625070.883     -315098.684 6   -236472.05922        18.000           1.781
 91  6 25 16 26 30.0000000  0  5G18G16G11G 2G19
  22218371.898     6107264.309 6   4740169.34721        19.250           1.250
  23267820.930    -4136971.312 5  -3198892.91021        11.750           0.500
  22955082.102    -6652517.973 6  -5118051.46721        17.250           1.094
  22414250.266   -10141267.354 6  -7817944.21022        18.750           1.656
  20625649.000     -312056.578 6   -234101.59922        18.000           1.813
 91  6 25 16 26 45.0000000  0  5G18G16G11G 2G19
  22225613.148     6145323.005 6   4769825.43421        18.750           1.313
  23266016.672    -4146433.091 5  -3206265.75821        11.250           0.531
  22950628.602    -6675936.174 6  -5136299.41121        17.500           0.906
  22405050.758   -10189602.802 6  -7855608.17622        19.000           1.719
  20626240.070     -308959.407 6   -231688.22122        18.500           1.750
 91  6 25 16 27  0.0000000  0  5G18G16G11G 2G19
  22232869.320     6183440.359 6   4799527.22621        18.750           1.313
  23264241.680    -4155769.176 5  -3213540.63221        11.250           0.531
  22946198.563    -6699224.373 6  -5154446.04221        17.500           1.094
  22395864.188   -10237887.560 6  -7893232.64822        19.000           1.563
  20626839.281     -305811.206 6   -229235.08722        18.750           1.719
 91  6 25 16 27 15.0000000  0  5G18G16G11G 2G19
  22240132.930     6221621.615 6   4829278.80721        19.250           1.250
  23262489.633    -4164974.515 5  -3220713.62821        11.250           0.531
  22941790.242    -6722376.989 6  -5172487.01821        17.500           1.063
  22386684.133   -10286116.265 6  -7930813.44022        18.750           1.688
  20627448.758     -302606.555 6   -226737.96122        18.500           1.844
 91  6 25 16 27 30.0000000  0  5G18G16G11G 2G19
  22247412.344     6259861.695 7   4859076.23321        20.250           1.375
  23260763.953    -4174054.068 5  -3227788.60721        11.250           0.563
  22937409.797    -6745398.847 6  -5190426.11521        16.750           1.000
  22377514.719   -10334293.942 6  -7968354.46722        18.000           1.625
  20628066.047     -299350.479 6   -224200.77422        18.500           1.875
 91  6 25 16 27 45.0000000  0  5G18G16G11G 2G19
  22254698.852     6298159.034 6   4888918.27421        19.750           1.313
  23259057.797    -4183009.249 5  -3234766.69021        11.250           0.594
  22933053.633    -6768291.016 6  -5208264.13521        16.750           1.000
  22368358.992   -10382421.625 6  -8005856.54222        18.750           1.750
  20628694.844     -296044.286 6   -221624.52922        18.250           1.844
 91  6 25 16 28  0.0000000  0  5G18G16G11G 2G19
  22261998.391     6336520.294 6   4918810.11121        19.500           1.313
  23257381.039    -4191833.402 6  -3241642.67621        12.250           0.531
  22928722.906    -6791046.396 6  -5225995.59321        16.250           0.969
  22359208.516   -10430492.158 6  -8043314.08422        18.500           1.594
  20629334.172     -292680.976 6   -219003.77522        18.750           1.938
 91  6 25 16 28 15.0000000  0  5G18G16G11G 2G19
  22269310.953     6374940.275 6   4948747.71721        19.500           1.313
  23255725.008    -4200531.254 5  -3248420.25621        11.750           0.656
  22924417.367    -6813669.911 6  -5243624.29221        16.000           0.969
  22350074.750   -10478510.452 6  -8080730.91622        19.000           1.688
  20629985.859     -289265.697 6   -216342.53122        18.250           1.844
 91  6 25 16 28 30.0000000  0  5G18G16G11G 2G19
  22276631.930     6413420.858 6   4978732.54221        18.750           1.281
  23254093.914    -4209100.665 5  -3255097.71121        11.250           0.594
  22920141.539    -6836159.182 6  -5261148.37721        17.000           0.969
  22340946.664   -10526474.105 6  -8118105.17322        19.000           1.719
  20630648.508     -285796.121 6   -213638.97022        17.750           1.813
 91  6 25 16 28 45.0000000  0  5G18G16G11G 2G19
  22283965.922     6451961.357 6   5008764.04921        18.500           1.313
  23252489.102    -4217542.165 5  -3261675.50521        11.500           0.688
  22915885.258    -6858514.515 6  -5278568.10721        16.500           0.938
  22331832.688   -10574383.728 6  -8155437.33122        19.250           1.750
  20631317.063     -282272.739 6   -210893.48722        18.750           1.719
 91  6 25 16 29  0.0000000  0  5G18G16G11G 2G19
  22291312.391     6490561.994 6   5038842.42121        18.250           1.281
  23250903.531    -4225855.388 5  -3268153.35621        11.500           0.656
  22911657.273    -6880735.088 6  -5295882.82321        17.250           0.938
  22322723.273   -10622238.509 6  -8192726.75522        18.500           1.625
  20631998.523     -278695.043 6   -208105.68522        18.750           1.719
 91  6 25 16 29 15.0000000  0  5G18G16G11G 2G19
  22298668.055     6529226.407 6   5068970.48221        18.500           1.188
  23249342.922    -4234036.503 5  -3274528.26721        11.000           0.625
  22907455.961    -6902816.961 6  -5313089.46621        17.000           1.094
  22313627.484   -10670034.492 6  -8229970.36322        19.000           1.656
  20632690.703     -275059.248 6   -205272.60722        18.250           1.781
 91  6 25 16 29 30.0000000  0  5G18G16G11G 2G19
  22306040.391     6567962.189 6   5099154.16221        18.250           1.188
  23247817.969    -4242077.766 5  -3280794.18121        11.750           0.625
  22903280.336    -6924752.167 6  -5330181.82021        16.750           1.000
  22304544.859   -10717763.672 6  -8267161.92222        19.500           1.688
  20633394.484     -271357.592 6   -202388.21222        18.500           1.781
 91  6 25 16 29 45.0000000  0  5G18G16G11G 2G19
  22313423.938     6606761.781 6   5129387.56921        18.750           1.094
  23246311.492    -4249986.357 5  -3286956.75121        11.750           0.656
  22899130.172    -6946547.698 6  -5347165.35621        16.750           1.063
  22295474.695   -10765433.282 6  -8304307.05622        19.750           1.594
  20634110.297     -267597.202 6   -199458.04722        17.750           1.750
 91  6 25 16 30  0.0000000  0  5G18G16G11G 2G19
  22320818.094     6645616.898 6   5159664.23821        17.750           1.156
  23244831.500    -4257770.768 6  -3293022.52821        12.000           0.625
  22895011.258    -6968211.757 6  -5364046.42521        18.000           1.031
  22286413.094   -10813051.462 6  -8341412.11422        19.750           1.813
  20634833.945     -263786.414 6   -196488.61622        18.000           1.750
 91  6 25 16 30 15.0000000  0  5G18G16G11G 2G19
  22328223.539     6684534.100 6   5189989.26921        18.500           1.156
  23243377.078    -4265424.341 6  -3298986.36221        12.500           0.625
  22890911.641    -6989737.175 6  -5380819.47221        16.750           0.969
  22277360.977   -10860611.026 6  -8378471.50222        19.000           1.844
  20635571.055     -259918.338 6   -193474.54022        17.750           1.656
 91  6 25 16 30 30.0000000  0  5G18G16G11G 2G19
  22335642.758     6723517.214 6   5220365.68121        18.750           1.156
  23241944.336    -4272942.967 6  -3304845.05221        12.000           0.719
  22886845.305    -7011119.723 6  -5397481.17721        17.750           1.000
  22268322.172   -10908107.926 6  -8415482.06422        19.000           1.719
  20636320.602     -255988.842 6   -190412.60722        17.250           1.719
 91  6 25 16 30 45.0000000  0  5G18G16G11G 2G19
  22343071.742     6762561.671 6   5250789.87621        18.500           1.094
  23240537.039    -4280330.758 5  -3310601.77621        11.750           0.688
  22882801.875    -7032363.520 6  -5414034.78321        17.250           0.906
  22259295.922   -10955546.344 6  -8452447.04922        19.500           1.625
  20637076.969     -252002.185 6   -187306.13622        17.500           1.688
 91  6 25 16 31  0.0000000  0  5G18G16G11G 2G19
  22350514.594     6801666.676 6   5281261.27021        18.250           1.156
  23239159.250    -4287588.236 6  -3316256.96121        12.000           0.500
  22878785.367    -7053468.786 6  -5430480.41821        16.750           0.844
  22250281.594   -11002926.555 7  -8489366.68022        20.250           1.781
  20637846.289     -247958.793 6   -184155.44822        17.750           1.656
 91  6 25 16 31 15.0000000  0  5G18G16G11G 2G19
  22357966.953     6840834.031 6   5311781.23421        18.250           1.125
  23237802.250    -4294713.966 6  -3321809.49721        12.250           0.531
  22874796.586    -7074433.655 6  -5446816.67721        16.500           1.000
  22241276.414   -11050246.770 7  -8526239.56322        20.250           1.781
  20638625.867     -243856.891 6   -180959.16722        17.000           1.656
 91  6 25 16 31 30.0000000  0  5G18G16G11G 2G19
  22365431.891     6880058.326 6   5342345.57521        18.750           1.094
  23236467.023    -4301712.856 5  -3327263.19121        11.750           0.625
  22870833.594    -7095262.950 6  -5463047.28721        16.250           1.031
  22232280.883   -11097511.805 6  -8563069.44222        19.750           1.781
  20639417.695     -239701.548 6   -177721.25722        17.750           1.719
 91  6 25 16 31 45.0000000  0  5G18G16G11G 2G19
  22372906.625     6919343.203 6   5372957.12121        18.250           1.125
  23235163.484    -4308581.033 6  -3332615.02321        12.250           0.594
  22866894.602    -7115952.534 6  -5479169.03921        16.500           1.000
  22223298.047   -11144717.495 7  -8599853.08422        20.250           1.813
  20640220.133     -235488.908 6   -174438.69322        17.250           1.625
 91  6 25 16 32  0.0000000  0  5G18G16G11G 2G19
  22380392.531     6958687.811 6   5403615.20021        18.250           1.094
  23233880.750    -4315318.932 6  -3337865.34721        12.000           0.563
  22862983.539    -7136502.899 6  -5495182.30421        16.500           0.938
  22214326.617   -11191864.416 7  -8636590.92922        20.250           1.688
  20641032.625     -231219.652 6   -171112.00722        17.750           1.656
 91  6 25 16 32 15.0000000  0  5G18G16G11G 2G19
  22387892.852     6998090.699 6   5434318.69821        18.750           1.188
  23232624.742    -4321928.528 5  -3343015.68721        11.750           0.500
  22859096.664    -7156915.114 6  -5511087.91021        16.250           0.938
  22205366.922   -11238953.630 7  -8673283.81222        20.500           1.844
  20641853.109     -226894.953 6   -167742.12622        17.250           1.719
 91  6 25 16 32 30.0000000  0  5G18G16G11G 2G19
  22395404.016     7037559.652 6   5465073.66721        19.000           1.219
  23231386.398    -4328401.929 5  -3348059.91721        11.500           0.656
  22855241.148    -7177181.321 6  -5526879.76221        16.750           1.000
  22196418.305   -11285977.437 7  -8709925.72522        20.250           1.813
  20642693.227     -222507.063 6   -164322.99722        16.500           1.625
 91  6 25 16 32 45.0000000  0  5G18G16G11G 2G19
  22402925.734     7077095.440 6   5495880.72021        18.250           1.188
  23230182.813    -4334737.787 5  -3352996.95621        11.500           0.531
  22851414.859    -7197300.127 6  -5542556.73621        17.000           1.094
  22187484.313   -11332934.478 7  -8746515.61322        20.500           1.781
  20643536.930     -218054.605 6   -160853.56322        17.250           1.656
 91  6 25 16 33  0.0000000  0  5G18G16G11G 2G19
  22410459.250     7116699.045 6   5526740.62121        17.500           1.250
  23229006.484    -4340934.715 5  -3357825.75621        11.500           0.500
  22847615.406    -7217270.032 6  -5558117.70121        17.500           1.094
  22178558.586   -11379823.091 7  -8783052.18122        20.250           1.719
  20644398.430     -213536.196 6   -157332.72722        16.750           1.688
 91  6 25 16 33 15.0000000  0  5G18G16G11G 2G19
  22418009.266     7156366.844 6   5557650.55021        18.250           1.219
  23227857.969    -4346996.266 5  -3362549.03021        11.750           0.469
  22843846.516    -7237094.162 6  -5573565.06221        18.000           1.063
  22169647.125   -11426646.657 6  -8819538.07122        19.750           1.719
  20645268.188     -208955.331 6   -153763.23822        16.750           1.625
 91  6 25 16 33 30.0000000  0  5G18G16G11G 2G19
  22425572.820     7196100.120 6   5588611.49021        18.750           1.188
  23226726.898    -4352921.264 5  -3367165.93621        11.500           0.469
  22840098.977    -7256771.078 6  -5588897.72121        17.250           1.031
  22160751.047   -11473403.651 7  -8855972.07422        20.250           1.781
  20646151.680     -204310.584 6   -150143.96122        17.000           1.594
 91  6 25 16 33 45.0000000  0  5G18G16G11G 2G19
  22433142.555     7235888.362 6   5619615.26321        18.000           1.250
  23225623.109    -4358720.137 5  -3371684.55221        11.000           0.625
  22836379.766    -7276310.908 6  -5604123.55821        16.750           1.063
  22151868.211   -11520104.272 7  -8892362.16222        21.500           1.719
  20647047.188     -199612.364 6   -146483.02522        17.250           1.625
 91  6 25 16 34  0.0000000  0  5G18G16G11G 2G19
  22440728.430     7275743.298 6   5650671.00221        18.250           1.125
  23224544.359    -4364380.969 5  -3376095.61121        11.000           0.500
  22832692.492    -7295701.371 6  -5619232.99921        17.000           1.094
  22142991.344   -11566736.532 7  -8928698.96722        21.000           1.781
  20647954.227     -194848.591 6   -142771.00722        17.500           1.594
 91  6 25 16 34 15.0000000  0  5G18G16G11G 2G19
  22448323.484     7315661.636 6   5681776.13921        18.000           1.125
  23223494.180    -4369906.602 5  -3380401.30621        11.500           0.563
  22829030.914    -7314945.411 6  -5634228.35321        16.750           1.188
  22134130.086   -11613303.209 7  -8964984.67622        21.000           1.781
  20648872.680     -190022.261 6   -139010.24322        17.000           1.500
 91  6 25 16 34 30.0000000  0  5G18G16G11G 2G19
  22455930.609     7355639.893 6   5712927.97121        17.250           1.156
  23222468.961    -4375300.078 5  -3384604.03121        11.750           0.594
  22825393.438    -7334045.991 6  -5649111.91921        17.500           1.250
  22125281.633   -11659807.356 7  -9001221.66522        21.250           1.719
  20649800.109     -185136.406 6   -135203.09422        17.250           1.531
 91  6 25 16 34 45.0000000  0  5G18G16G11G 2G19
  22463551.328     7395678.536 6   5744126.85521        18.250           1.156
  23221459.109    -4380561.331 5  -3388703.73221        10.750           0.594
  22821788.961    -7353002.468 6  -5663883.19321        17.500           1.219
  22116439.148   -11706248.183 7  -9037409.31722        20.500           1.719
  20650742.336     -180190.562 6   -131349.20222        16.750           1.531
 91  6 25 16 35  0.0000000  0  5G18G16G11G 2G19
  22471184.195     7435782.110 6   5775376.33421        18.500           1.094
  23220493.500    -4385685.508 5  -3392696.59521        11.750           0.500
  22818207.508    -7371810.012 6  -5678538.42421        17.250           1.250
  22107617.602   -11752621.001 7  -9073543.96422        21.000           1.844
  20651696.406     -175180.157 6   -127445.00722        17.000           1.594
 91  6 25 16 35 15.0000000  0  5G18G16G11G 2G19
  22478824.336     7475944.189 6   5806671.40521        17.750           0.969
  23219540.391    -4390679.069 6  -3396587.70621        12.000           0.594
  22814652.563    -7390474.563 6  -5693082.22021        16.500           1.094
  22098805.992   -11798931.811 7  -9109630.29822        21.250           1.750
  20652661.070     -170111.382 6   -123495.32922        17.000           1.594
 91  6 25 16 35 29.9990000  0  5G18G16G11G 2G19
  22486479.526     7516170.773 6   5838016.73521        17.500           1.094
  23218622.315    -4395532.556 6  -3400369.64821        12.000           0.531
  22811129.331    -7408985.551 6  -5707506.36721        16.500           1.031
  22090006.925   -11845168.157 7  -9145658.60222        21.250           1.844
  20653637.628     -164975.428 6   -119493.30622        17.000           1.500
 91  6 25 16 35 44.9990000  0  5G18G16G11G 2G19
  22494148.565     7556460.545 6   5869411.29321        17.500           1.094
  23217715.206    -4400253.623 5  -3404048.43321        11.500           0.563
  22807636.925    -7427352.137 6  -5721817.99021        17.250           1.063
  22081222.940   -11891342.898 7  -9181638.91322        22.000           1.781
  20654626.386     -159778.134 6   -115443.48522        16.750           1.531
 91  6 25 16 35 59.9990000  0  5G18G16G11G 2G19
  22501825.370     7596815.658 6   5900856.78321        16.750           1.094
  23216847.511    -4404836.482 6  -3407619.49021        12.000           0.563
  22804171.042    -7445567.740 6  -5736011.95821        17.000           1.156
  22072447.433   -11937447.768 7  -9217564.77422        21.500           1.906
  20655628.339     -154514.574 6   -111342.02422        17.250           1.594
 91  6 25 16 36 14.9990000  0  5G18G16G11G 2G19
  22509515.120     7637235.237 6   5932352.50721        16.250           1.031
  23216001.394    -4409281.773 6  -3411083.39021        12.250           0.656
  22800735.605    -7463632.546 6  -5750088.43021        17.750           1.188
  22063685.690   -11983482.915 7  -9253436.30722        21.500           1.844
  20656643.495     -149185.145 6   -107189.23821        17.000           1.469
 91  6 25 16 36 29.9990000  0  5G18G16G11G 2G19
  22517223.737     7677719.768 6   5963898.84121        16.750           1.094
  23215184.667    -4413588.918 5  -3414439.61121        11.750           0.438
  22797325.980    -7481545.799 6  -5764046.80921        17.750           1.250
  22054942.433   -12029447.635 7  -9289252.95622        22.000           1.844
  20657670.136     -143789.556 6   -102984.89322        16.500           1.531
 91  6 25 16 36 44.9990000  0  5G18G16G11G 2G19
  22524940.042     7718275.394 6   5995500.54621        16.750           1.063
  23214389.565    -4417751.985 6  -3417683.57121        12.250           0.500
  22793947.401    -7499301.101 6  -5777882.10721        17.500           1.219
  22046208.253   -12075335.795 7  -9325009.94822        21.250           1.969
  20658710.120     -138321.484 6    -98724.07222        17.000           1.594
 91  6 25 16 36 59.9990000  0  5G18G16G11G 2G19
  22532668.222     7758894.444 6   6027151.68021        17.000           0.969
  23213623.026    -4421778.653 5  -3420821.27221        11.750           0.500
  22790594.870    -7516905.853 6  -5791600.09021        17.250           1.313
  22037489.003   -12121154.505 7  -9360712.83422        21.500           1.938
  20659763.855     -132788.308 6    -94412.52322        17.250           1.500
 91  6 25 16 37 14.9990000  0  5G18G16G11G 2G19
  22540408.198     7799566.955 6   6058844.48321        17.250           0.969
  23212886.683    -4425678.386 6  -3423860.03621        12.500           0.625
  22787272.620    -7534369.528 6  -5805208.15521        17.000           1.219
  22028780.894   -12166913.139 7  -9396368.89822        22.000           2.000
  20660826.995     -127199.533 6    -90057.64522        16.500           1.531
 91  6 25 16 37 29.9990000  0  5G18G16G11G 2G19
  22548158.815     7840292.650 6   6090578.74321        17.500           0.938
  23212159.261    -4429451.249 5  -3426799.94421        11.500           0.594
  22783977.019    -7551691.892 6  -5818706.10521        16.750           1.094
  22020087.112   -12212611.732 7  -9431978.17622        22.000           1.875
  20661899.901     -121555.171 6    -85659.45222        16.500           1.594
 91  6 25 16 37 44.9990000  0  5G18G16G11G 2G19
  22555919.808     7881079.465 6   6122360.60721        16.750           1.063
  23211472.980    -4433089.363 5  -3429634.85221        11.750           0.531
  22780706.855    -7568864.482 6  -5832087.33421        17.000           1.156
  22011401.597   -12258241.760 7  -9467534.02522        21.500           2.125
  20662984.433     -115847.081 6    -81211.60022        16.500           1.625
 91  6 25 16 37 59.9990000  0  5G18G16G11G 2G19
  22563693.472     7921924.975 6   6154188.21821        16.500           0.969
  23210802.784    -4436595.153 5  -3432366.66021        11.500           0.594
  22777465.933    -7585889.699 6  -5845353.74721        16.750           1.094
  22002728.753   -12303805.776 7  -9503038.44222        21.750           1.906
  20664085.136     -110077.533 6    -76715.86722        17.000           1.563
 91  6 25 16 38 14.9990000  0  5G18G16G11G 2G19
  22571478.620     7962828.788 6   6186061.24621        16.250           1.094
  23210160.011    -4439968.412 5  -3434995.17821        11.000           0.500
  22774261.503    -7602767.497 6  -5858505.26721        17.250           1.125
  21994074.894   -12349303.667 7  -9538491.33022        22.250           2.031
  20665194.628     -104246.514 6    -72172.23222        17.500           1.594
 91  6 25 16 38 29.9990000  0  5G18G16G11G 2G19
  22579273.550     8003786.816 6   6217976.53221        16.750           1.031
  23209546.698    -4443213.232 5  -3437523.63821        11.500           0.500
  22771074.722    -7619501.447 6  -5871544.71321        17.000           1.063
  21985429.581   -12394739.033 7  -9573895.49422        22.250           2.000
  20666313.784      -98357.904 6    -67583.72222        17.000           1.531
 91  6 25 16 38 44.9990000  0  5G18G16G11G 2G19
  22587078.308     8044813.351 6   6249945.19821        16.500           1.031
  23208950.878    -4446315.323 5  -3439940.86921        10.500           0.438
  22767921.362    -7636077.163 6  -5884460.86321        17.000           1.000
  21976796.245   -12440097.347 7  -9609239.62122        22.000           1.969
  20667451.175      -92397.267 6    -62939.09022        17.500           1.625
 91  6 25 16 38 59.9990000  0  5G18G16G11G 2G19
  22594897.425     8085906.526 6   6281965.76321        16.250           1.125
  23208394.362    -4449276.031 6  -3442247.91421        12.000           0.563
  22764796.261    -7652495.992 6  -5897254.76221        17.000           1.063
  21968182.737   -12485379.969 7  -9644524.76922        22.500           2.031
  20668595.292      -86366.027 6    -58239.44422        17.000           1.688
 91  6 25 16 39 14.9990000  0  5G18G16G11G 2G19
  22602727.550     8127054.661 6   6314029.17121        16.250           1.094
  23207848.440    -4452107.398 5  -3444454.20621        11.250           0.531
  22761701.878    -7668769.298 6  -5909935.26221        16.750           1.031
  21959574.612   -12530598.309 7  -9679759.82922        22.250           2.063
  20669756.050      -80275.705 6    -53493.75422        17.250           1.719
 91  6 25 16 39 29.9990000  0  5G18G16G11G 2G19
  22610568.698     8168263.525 6   6346139.90321        16.000           1.063
  23207341.331    -4454803.622 5  -3446555.16921        11.500           0.531
  22758631.464    -7684891.110 6  -5922497.71421        17.250           1.063
  21950982.753   -12575746.578 7  -9714940.28022        22.250           2.094
  20670926.253      -74120.660 6    -48697.63322        17.000           1.719
 91  6 25 16 39 44.9990000  0  5G18G16G11G 2G19
  22618421.136     8209532.604 6   6378297.56221        15.250           0.938
  23206851.589    -4457365.068 5  -3448551.11421        11.500           0.594
  22755591.050    -7700861.561 6  -5934942.22221        17.250           1.125
  21942404.339   -12620824.715 7  -9750066.09122        22.500           2.094
  20672110.597      -67901.042 6    -43851.18722        17.500           1.781
 91  6 25 16 39 59.9990000  0  5G18G16G11G 2G19
  22626284.003     8250859.887 6   6410500.57321        14.500           0.844
  23206387.378    -4459793.316 5  -3450443.27421        11.500           0.469
  22752578.417    -7716682.036 6  -5947269.85921        17.000           1.063
  21933840.362   -12665834.204 7  -9785138.40922        22.500           2.094
  20673306.972      -61618.327 6    -38955.58322        18.000           1.688
 91  6 25 16 40 14.9990000  0  5G18G16G11G 2G19
  22634163.347     8292258.161 6   6442758.89521        15.250           0.875
  23205952.698    -4462075.471 5  -3452221.58921        11.000           0.438
  22749601.987    -7732339.509 6  -5959470.49421        17.750           1.063
  21925289.253   -12710761.914 7  -9820146.99622        21.750           2.094
  20674517.370      -55259.511 6    -34000.66822        18.250           1.719
 91  6 25 16 40 29.9990000  0  5G18G16G11G 2G19
  22642052.339     8333709.243 6   6475058.37021        15.750           0.844
  23205544.675    -4464229.350 5  -3453899.95221        11.250           0.594
  22746651.761    -7747851.587 6  -5971557.81721        17.750           0.938
  21916751.769   -12755625.549 7  -9855105.66722        22.000           2.219
  20675736.605      -48842.353 6    -29000.30322        18.500           1.781
 91  6 25 16 40 44.9990000  0  5G18G16G11G 2G19
  22649952.487     8375217.130 6   6507402.09921        16.250           0.844
  23205157.644    -4466251.157 5  -3455475.39621        11.000           0.531
  22743726.073    -7763214.040 6  -5983528.54821        17.250           1.031
  21908228.151   -12800420.830 7  -9890011.07122        22.500           2.063
  20676970.011      -42362.850 6    -23951.34522        17.500           1.750
 91  6 25 16 40 59.9990000  0  5G18G16G11G 2G19
  22657863.065     8416781.288 6   6539789.68821        16.500           0.813
  23204801.558    -4468141.578 5  -3456948.46921        11.000           0.438
  22740831.589    -7778427.351 6  -5995383.06621        17.000           1.000
  21899718.339   -12845148.371 7  -9924863.69022        23.000           2.156
  20678217.026      -35821.529 6    -18854.23122        17.250           1.906
 91  6 25 16 41 14.9990000  0  5G18G16G11G 2G19
  22665780.003     8458407.127 6   6572225.34321        15.500           0.781
  23204467.175    -4469895.086 5  -3458314.86021        11.500           0.625
  22737967.542    -7793485.676 6  -6007116.83721        16.750           1.063
  21891215.565   -12889802.393 7  -9959659.01922        21.750           2.156
  20679473.972      -29212.570 6    -13704.40622        18.250           1.938
 91  6 25 16 41 29.9990000  0  5G18G16G11G 2G19
  22673716.769     8500094.251 6   6604708.74521        16.500           0.781
  23204158.058    -4471511.388 5  -3459574.33521        11.000           0.531
  22735129.901    -7808388.817 6  -6018729.66621        17.000           1.125
  21882739.558   -12934382.537 7  -9994396.78222        22.500           2.250
  20680745.644      -22535.930 6     -8501.85322        18.250           1.781
 91  6 25 16 41 44.9990000  0  5G18G16G11G 2G19
  22681658.261     8541839.089 6   6637237.11721        16.500           0.750
  23203874.284    -4472994.152 5  -3460729.74221        10.750           0.500
  22732319.612    -7823139.943 6  -6030224.06621        17.000           1.063
  21874267.597   -12978891.985 7 -10029079.45022        22.000           2.125
  20682027.425      -15794.897 6     -3249.11422        18.250           1.781
 91  6 25 16 41 59.9990000  0  5G18G16G11G 2G19
  22689614.730     8583641.302 6   6669810.20821        16.250           0.750
  23203623.487    -4474343.786 5  -3461781.42421        11.750           0.594
  22729545.308    -7837739.277 6  -6041600.16621        17.250           1.250
  21865807.151   -13023330.927 7 -10063707.18722        21.250           2.281
  20683320.917       -8989.749 6      2053.57822        18.750           1.969
 91  6 25 16 42 14.9990000  0  5G18G16G11G 2G19
  22697581.011     8625512.402 6   6702436.97621        15.500           0.781
  23203390.573    -4475548.341 5  -3462720.06421        11.250           0.563
  22726799.909    -7852174.726 6  -6052848.56121        18.250           1.125
  21857368.550   -13067687.071 7 -10098270.40622        22.000           2.094
  20684633.175       -2108.436 6      7415.62422        18.500           2.000
 91  6 25 16 42 29.9990000  0  5G18G16G11G 2G19
  22705564.769     8667443.021 6   6735110.11721        16.750           0.875
  23203188.956    -4476617.044 5  -3463552.83121        11.250           0.406
  22724084.183    -7866455.441 6  -6063976.38921        17.750           1.188
  21848944.409   -13111969.828 7 -10132776.43422        22.500           2.125
  20685953.737        4839.727 6     12829.76522        18.500           1.906
 91  6 25 16 42 44.9990000  0  5G18G16G11G 2G19
  22713552.097     8709429.386 6   6767826.70021        16.500           0.719
  23203010.026    -4477553.931 5  -3464282.89521        11.000           0.469
  22721394.347    -7880584.846 6  -6074986.30821        17.750           1.125
  21840531.417   -13156182.527 7 -10167227.87922        22.500           2.313
  20687287.839       11851.233 6     18293.26322        18.250           2.000
 91  6 25 16 42 59.9990000  0  5G18G16G11G 2G19
  22721549.011     8751468.978 6   6800584.77621        15.500           0.969
  23202853.472    -4478361.204 5  -3464911.95321        11.250           0.500
  22718729.698    -7894565.086 6  -6085879.99521        17.250           1.094
  21832129.480   -13200327.460 7 -10201626.51922        22.500           2.094
  20688636.253       18923.606 6     23804.18722        18.250           1.938
 91  6 25 16 43 14.9990000  0  5G18G16G11G 2G19
  22729562.370     8793560.940 6   6833383.63521        15.750           0.875
  23202730.987    -4479039.519 5  -3465440.54321        11.500           0.563
  22716098.964    -7908396.747 6  -6096657.91221        17.500           1.094
  21823741.315   -13244405.217 7 -10235972.81222        22.250           2.063
  20689990.995       26056.366 6     29362.16722        18.750           1.969
 91  6 25 16 43 29.9990000  0  5G18G16G11G 2G19
  22737579.089     8835704.258 6   6866222.51721        15.250           0.813
  23202623.995    -4479589.755 5  -3465869.31721        11.500           0.594
  22713496.206    -7922080.460 6  -6107320.53921        17.750           1.063
  21815367.995   -13288416.413 7 -10270267.24922        22.500           2.156
  20691359.683       33248.938 6     34966.75322        19.250           1.906
 91  6 25 16 43 44.9990000  0  5G18G16G11G 2G19
  22745611.815     8877900.237 6   6899102.44321        14.750           0.813
  23202542.823    -4480010.707 5  -3466197.35621        11.500           0.469
  22710918.823    -7935614.511 6  -6117866.54121        17.500           1.125
  21807006.237   -13332359.319 7 -10304508.45722        23.250           2.188
  20692739.644       40502.977 6     40619.23722        18.500           1.844
 91  6 25 16 43 59.9990000  0  5G18G16G11G 2G19
  22753649.730     8920153.975 6   6932027.37021        14.250           0.875
  23202488.495    -4480296.834 5  -3466420.33121        11.250           0.563
  22708374.081    -7948993.557 6  -6128291.76421        18.250           1.188
  21798657.745   -13376228.377 7 -10338692.13022        22.500           2.094
  20694131.433       47823.672 6     46323.65822        19.000           1.875
 91  6 25 16 44 14.9990000  0  5G18G16G11G 2G19
  22761703.089     8962460.564 6   6964993.49821        15.000           0.844
  23202463.222    -4480453.308 5                        11.750
  22705858.065    -7962222.213 6  -6138599.79921        18.250           1.125
  21790321.878   -13420028.129 7 -10372821.80822        22.500           2.156
  20695538.019       55206.377 6     52076.40022        18.500           1.844
 91  6 25 16 44 29.9990000  0  5G18G16G11G 2G19
  22769764.417     9004815.849 6   6997997.54721        15.000           0.750
  23202453.308    -4480484.110 5                        11.500
  22703368.073    -7975304.320 6  -6148793.63321        18.250           1.156
  21782000.034   -13463762.601 7 -10406900.60722        22.500           2.125
  20696954.800       62647.004 6     57874.27322        19.000           1.813
 91  6 25 16 44 44.9990000  0  5G18G16G11G 2G19
  22777830.987     9047221.783 6   7031041.07621        15.000           0.844
  23202473.097    -4480387.161 5                        11.250
  22700907.089    -7988237.414 6  -6158871.36621        18.750           1.281
  21773692.644   -13507429.331 7 -10440926.61622        22.500           2.219
  20698382.331       70147.972 6     63719.16522        18.500           1.938
 91  6 25 16 44 59.9990000  0  5G18G16G11G 2G19
  22785914.300     9089683.201 6   7064127.84921        15.000           0.875
  23202514.081    -4480157.060 5                        11.000
  22698473.878    -8001016.177 6  -6168828.82621        18.500           1.125
  21765393.245   -13551022.823 7 -10474895.56122        22.000           2.219
  20699825.105       77714.567 6     69615.19622        18.000           1.875
 91  6 25 16 45 14.9990000  0  5G18G16G11G 2G19
  22794002.183     9132198.047 6   7097256.24221        14.500           0.813
  23202585.339    -4479796.081 5                        11.750
  22696067.550    -8013642.590 6  -6178667.60121        16.750           1.188
  21757111.730   -13594545.111 7 -10508809.02122        22.000           2.250
  20701271.612       85344.815 6     75560.83022        18.500           1.938
 91  6 25 16 45 29.9990000  0  5G18G16G11G 2G19
  22802101.847     9174760.470 6   7130421.69421        14.000           0.906
  23202673.448    -4479310.100 5  -3465651.57821        11.000           0.594
  22693695.167    -8026122.288 6  -6188392.03921        17.250           1.188
  21748840.980   -13638001.818 7 -10542671.37722        22.500           2.281
  20702737.175       93032.903 6     81551.53722        18.500           1.969
 91  6 25 16 45 44.9990000  0  5G18G16G11G 2G19
  22810212.245     9217383.335 6   7163634.25321        13.750           0.813
  23202799.698    -4478686.325 5  -3465165.54121        11.250           0.500
  22691351.519    -8038441.899 6  -6197991.73521        18.000           1.094
  21740585.987   -13681379.691 7 -10576472.30722        22.250           2.219
  20704212.112      100792.135 6     87597.67722        18.750           1.969
 91  6 25 16 45 59.9990000  0  5G18G16G11G 2G19
  22818334.144     9260064.627 6   7196892.34621        14.000           0.875
  23202938.370    -4477926.352 5  -3464573.37721        10.750           0.531
  22689036.683    -8050602.998 6  -6207467.89721        18.000           1.094
  21732350.620   -13724680.030 7 -10610212.81822        22.750           2.281
  20705702.097      108620.956 6     93698.04322        18.750           2.063
 91  6 25 16 46 14.9990000  0  5G18G16G11G 2G19
  22826461.769     9302797.666 6   7230190.75321        14.000           0.875
  23203109.378    -4477036.726 5  -3463880.17921        10.750           0.438
  22686750.815    -8062612.124 6  -6216825.65521        18.750           1.094
  21724122.683   -13767909.529 7 -10643898.13222        22.250           2.219
  20707205.097      116512.733 6     99847.46422        18.750           2.063
 91  6 25 16 46 29.9990000  0  5G18G16G11G 2G19
  22834612.573     9345597.977 6   7263541.59721        15.000           0.938
  23203306.019    -4476002.008 5  -3463073.91421        10.500           0.469
  22684498.073    -8074453.387 6  -6226052.60721        18.000           1.219
  21715912.214   -13811052.255 7 -10677515.83022        22.250           2.281
  20708721.081      124483.256 6    106058.24122        19.250           2.125
 91  6 25 16 46 44.9990000  0  5G18G16G11G 2G19
  22842767.206     9388451.805 6   7296934.12721        15.250           0.750
  23203525.167    -4474835.607 5  -3462165.06021        11.000           0.531
  22682271.769    -8086139.949 6  -6235159.01021        17.500           1.250
  21707717.331   -13854121.352 7 -10711076.15622        22.250           2.344
  20710252.011      132519.265 6    112320.05222        18.750           2.031
 91  6 25 16 46 59.9990000  0  5G18G16G11G 2G19
  22850928.464     9431351.965 6   7330362.76221        15.000           0.750
  23203778.362    -4473544.850 5  -3461159.30721        11.250           0.500
  22680080.378    -8097679.158 6  -6244150.60321        18.250           1.281
  21699533.964   -13897124.099 7 -10744584.78122        22.000           2.406
  20711791.120      140613.435 6    118627.17922        18.500           2.031
 91  6 25 16 47 14.9990000  0  5G18G16G11G 2G19
  22859101.409     9474307.206 6   7363834.34121        14.750           0.656
  23204043.425    -4472120.794 5  -3460049.67421        10.750           0.469
  22677914.839    -8109061.762 6  -6253020.16421        18.250           1.344
  21691365.792   -13940051.047 7 -10778034.33322        22.500           2.375
  20713342.605      148774.863 6    124986.71622        18.250           2.063
 91  6 25 16 47 29.9990000  0  5G18G16G11G 2G19
  22867287.698     9517313.183 6   7397345.45821        15.250           0.688
  23204340.511    -4470567.587 5  -3458839.39321        10.750           0.500
  22675777.487    -8120291.675 6  -6261770.73721        18.000           1.188
  21683208.722   -13982906.114 7 -10811427.88422        22.000           2.375
  20714909.644      156999.683 6    131395.65022        18.000           1.969
 91  6 25 16 47 44.9990000  0  5G18G16G11G 2G19
  22875482.237     9560369.825 6   7430896.02321        15.250           0.688
  23204662.651    -4468885.393 5  -3457528.60921        11.000           0.406
  22673666.269    -8131368.898 6  -6270402.33321        17.250           1.188
  21675070.737   -14025689.464 7 -10844765.55222        22.750           2.375
  20716485.815      165287.848 6    137853.94622        17.500           1.906
 91  6 25 16 47 59.9990000  0  5G18G16G11G 2G19
  22883684.808     9603483.092 6   7464490.72921        15.500           0.750
  23205001.589    -4467068.113 5  -3456112.57921        10.000           0.469
  22671590.636    -8142286.886 6  -6278909.85521        17.750           1.188
  21666939.597   -14068394.396 7 -10878042.10622        22.250           2.375
  20718076.284      173645.808 6    144366.62522        17.750           2.031
 91  6 25 16 48 14.9990000  0  5G18G16G11G 2G19
  22891900.565     9646655.855 6   7498131.79421        14.750           0.750
  23205374.792    -4465112.839 5  -3454588.99721        10.250           0.469
  22669547.237    -8153042.652 6  -6287290.96821        18.750           1.156
  21658829.534   -14111018.051 7 -10911255.33422        21.250           2.344
  20719682.042      182076.520 6    150935.99622        17.750           1.938
 91  6 25 16 48 29.9990000  0  5G18G16G11G 2G19
  22900127.401     9689886.404 6   7531817.86721        14.750           0.688
  23205773.972    -4463021.197 5  -3452959.18021        10.500           0.438
  22667530.190    -8163637.629 6  -6295546.79721        18.250           1.188
  21650733.972   -14153561.772 7 -10944406.27922        22.250           2.375
  20721300.245      190578.443 6    157560.84922        18.000           1.938
 91  6 25 16 48 44.9990000  0  5G18G16G11G 2G19
  22908360.511     9733168.618 6   7565544.20121        13.500           0.750
  23206198.933    -4460799.013 5  -3451227.63721        10.750           0.406
  22665543.433    -8174077.484 6  -6303681.73121        18.500           1.125
  21642653.120   -14196031.073 7 -10977499.23122        22.500           2.313
  20722928.183      199145.841 6    164236.73222        17.500           1.813
 91  6 25 16 48 59.9990000  0  5G18G16G11G 2G19
  22916606.222     9776510.419 6   7599316.96321        12.750           0.688
  23206648.690    -4458438.212 5  -3449388.07821        11.000           0.500
  22663589.230    -8184354.027 6  -6311689.42021        18.750           1.125
  21634586.940   -14238417.787 7 -11010527.82622        21.750           2.469
  20724575.081      207786.891 6    170969.99522        17.500           1.875
 91  6 25 16 49 14.9990000  0  5G18G16G11G 2G19
  22924869.730     9819907.084 6   7633132.50621        14.000           0.594
  23207125.331    -4455944.016 5  -3447444.56221        11.500           0.594
  22661660.901    -8194471.876 6  -6319573.44121        18.250           1.250
  21626535.339   -14280726.360 7 -11043495.54222        21.750           2.375
  20726232.628      216497.034 6    177757.10022        17.250           1.844
 91  6 25 16 49 29.9990000  0  5G18G16G11G 2G19
  22933140.659     9863359.537 6   7666991.51221        13.500           0.625
  23207618.737    -4453314.995 5  -3445396.00221        10.500           0.656
  22659764.526    -8204429.498 6  -6327332.64421        17.500           1.188
  21618498.331   -14322955.216 7 -11076401.13122        22.250           2.438
  20727902.308      225277.593 6    184599.07022        17.250           1.906
 91  6 25 16 49 44.9990000  0  5G18G16G11G 2G19
  22941418.019     9906862.784 6   7700890.08821        14.000           0.656
  23208147.190    -4450556.177 5  -3443246.29721        11.500           0.438
  22657900.089    -8214231.749 6  -6334970.75621        18.000           1.125
  21610474.706   -14365109.328 7 -11109248.48022        21.500           2.344
  20729585.480      234123.670 6    191492.10122        17.000           1.875
 91  6 25 16 49 59.9990000  0  5G18G16G11G 2G19
  22949707.870     9950425.555 6   7734835.03021        14.000           0.563
  23208694.526    -4447658.795 5  -3440988.62321        11.500           0.438
  22656064.972    -8223869.467 6  -6342480.67721        17.250           1.219
  21602473.753   -14407179.555 7 -11142030.46923        22.000           2.500
  20731283.058      243044.428 6    198443.32522        17.750           1.844
 91  6 25 16 50 14.9990000  0  5G18G16G11G 2G19
  22958008.761     9994048.004 6   7768826.49021        13.750           0.688
  23209276.355    -4444622.474 5  -3438622.67321        10.750           0.406
  22654263.175    -8233342.140 6  -6349861.98321        19.000           1.094
  21594483.980   -14449165.316 7 -11174746.63922        21.500           2.438
  20732995.378      252040.386 6    205453.14222        17.500           1.813
 91  6 25 16 50 29.9990000  0  5G18G16G11G 2G19
  22966319.519    10037735.257 6   7802868.43921        13.250           0.656
  23209881.565    -4441441.801 5  -3436144.24821        11.250           0.500
  22652492.417    -8242644.373 6  -6357110.47821        18.500           1.125
  21586509.011   -14491061.165 7 -11207392.74422        21.500           2.438
  20734723.214      261116.904 6    212525.74722        17.250           1.875
 91  6 25 16 50 44.9990000  0  5G18G16G11G 2G19
  22974647.378    10081479.339 6   7836954.68621        13.250           0.656
  23210510.534    -4438124.723 5  -3433559.54521        10.750           0.438
  22650754.128    -8251783.784 6  -6364232.09721        18.250           1.125
  21578555.940   -14532874.578 7 -11239974.61622        21.750           2.469
  20736462.495      270266.268 6    219655.10622        17.000           1.844
 91  6 25 16 50 59.9990000  0  5G18G16G11G 2G19
  22982981.878    10125282.075 6   7871086.60221        13.750           0.594
  23211171.198    -4434669.571 5  -3430867.23421        10.750           0.469
  22649043.487    -8260758.440 6  -6371225.32921        17.500           0.938
  21570613.894   -14574603.587 7 -11272490.71122        21.500           2.438
  20738219.222      279490.423 6    226842.73922        18.000           1.969
 91  6 25 16 51 14.9990000  0  5G18G16G11G 2G19
  22991326.987    10169132.849 6   7905255.98921        13.250           0.625
  23211855.558    -4431086.845 5  -3428075.51321        11.000           0.438
  22647368.769    -8269578.764 6  -6378098.30421        17.500           1.219
  21562687.269   -14616258.452 7 -11304949.04123        22.000           2.563
  20739985.042      288778.854 6    234080.46022        17.500           1.875
 91  6 25 16 51 29.9990000  0  5G18G16G11G 2G19
  22999679.058    10213032.388 6   7939463.35921        13.500           0.563
  23212558.597    -4427375.648 5  -3425183.68321        10.250           0.500
  22645721.940    -8278243.558 6  -6384850.08821        17.500           1.125
  21554775.659   -14657837.900 7 -11337348.59523        22.250           2.531
  20741764.245      298132.828 6    241369.25522        17.500           1.906
 91  6 25 16 51 44.9990000  0  5G18G16G11G 2G19
  23008043.487    10256986.472 6   7973713.23921        13.250           0.594
  23213290.589    -4423529.830 5  -3422186.96521        11.000           0.469
  22644101.386    -8286746.565 6  -6391475.80521        18.000           1.219
  21546877.815   -14699335.821 7 -11369684.62822        22.000           2.438
  20743560.815      307558.543 6    248713.95322        17.500           1.813
 91  6 25 16 51 59.9990000  0  5G18G16G11G 2G19
  23016420.565    10301005.216 6   8008013.51421        13.250           0.625
  23214054.526    -4419539.519 5  -3419077.66021        11.000           0.531
  22642516.386    -8295077.649 6  -6397967.56421        18.500           1.156
  21538999.612   -14740741.936 7 -11401949.12023        22.000           2.563
  20745367.097      317065.986 6    256122.33722        17.250           1.875
 91  6 25 16 52 14.9990000  0  5G18G16G11G 2G19
  23024809.464    10345087.787 6   8042363.47921        13.750           0.594
  23214836.440    -4415405.719 5  -3415856.54721        10.750           0.563
  22640964.870    -8303237.379 6  -6404325.79621        18.750           1.281
  21531134.370   -14782056.813 7 -11434142.52623        22.750           2.594
  20747191.667      326654.553 6    263593.92822        16.750           1.781
 91  6 25 16 52 29.9990000  0  5G18G16G11G 2G19
  23033205.019    10389216.287 6   8076749.25821        12.500           0.688
  23215649.706    -4411146.222 5  -3412537.47621        11.000           0.563
  22639440.612    -8311243.336 6  -6410564.19721        18.250           1.219
  21523289.901   -14823297.944 7 -11466278.45823        23.500           2.594
  20749028.167      336306.676 6    271115.04522        16.750           1.781
 91  6 25 16 52 44.9990000  0  5G18G16G11G 2G19
  23041609.558    10433393.416 6   8111172.92721        13.000           0.750
  23216485.120    -4406757.951 5  -3409118.06521        11.500           0.531
  22637949.011    -8319092.245 6  -6416680.23221        18.000           1.281
  21515454.105   -14864462.084 7 -11498354.40323        23.000           2.531
  20750878.620      346025.654 6    278688.26422        16.750           1.750
 91  6 25 16 52 59.9990000  0  5G18G16G11G 2G19
  23050028.761    10477618.338 6   8145633.83221        13.500           0.625
  23217339.495    -4402241.801 5  -3405599.03121        10.250           0.594
  22636485.128    -8326784.956 6  -6422674.54221        17.750           1.188
  21507636.362   -14905549.905 7 -11530370.88223        23.250           2.563
  20752740.628      355810.840 6    286313.06022        17.500           1.750
 91  6 25 16 53 14.9990000  0  5G18G16G11G 2G19
  23058455.183    10521900.255 6   8180139.15821        13.500           0.656
  23218227.894    -4397588.461 5  -3401973.07221        11.000           0.594
  22635051.769    -8334312.024 6  -6428539.79621        17.500           1.250
  21499834.675   -14946551.882 7 -11562320.46923        23.500           2.531
  20754617.503      365671.588 6    293996.74522        16.750           1.750
 91  6 25 16 53 29.9990000  0  5G18G16G11G 2G19
  23066892.565    10566242.345 6   8214691.37721        13.250           0.656
  23219143.690    -4392794.748 5  -3398237.74121        11.500           0.563
  22633649.253    -8341669.903 6  -6434273.20921        17.250           1.250
  21492048.472   -14987464.392 7 -11594200.33422        23.750           2.438
  20756509.167      375611.479 6    301742.09722        16.250           1.813
 91  6 25 16 53 44.9990000  0  5G18G16G11G 2G19
  23075338.636    10610636.144 6   8249283.88121        13.250           0.688
  23220081.448    -4387869.053 5  -3394399.56721        10.750           0.438
  22632281.792    -8348866.874 6  -6439881.24121        17.750           1.094
  21484275.175   -15028295.725 7 -11626016.95023        22.500           2.500
  20758414.487      385622.213 6    309542.64922        17.250           1.656
 91  6 25 16 53 59.9990000  0  5G18G16G11G 2G19
  23083800.417    10655080.070 6   8283915.45921        13.000           0.563
  23221035.933    -4382812.735 5  -3390459.59621        10.500           0.625
  22630941.659    -8355904.145 6  -6445364.82821        18.500           1.250
  21476523.980   -15069047.049 7 -11657771.22422        22.750           2.469
  20760333.378      395702.500 6    317397.39622        17.250           1.625
 91  6 25 16 54 14.9990000  0  5G18G16G11G 2G19
  23092264.878    10699575.387 6   8318587.05921        12.750           0.625
  23222027.331    -4377624.755 5  -3386417.04221        10.750           0.531
  22629634.714    -8362780.307 6  -6450722.87721        18.250           1.219
  21468783.964   -15109716.952 7 -11689462.05123        23.500           2.625
  20762264.378      405853.760 6    325307.44522        17.000           1.781
 91  6 25 16 54 29.9990000  0  5G18G16G11G 2G19
  23100744.558    10744121.540 6   8353298.26421        13.000           0.594
  23223039.620    -4372305.436 5  -3382272.15621        10.250           0.531
  22628359.206    -8369495.519 6  -6455955.51621        18.500           1.219
  21461060.659   -15150305.304 7 -11721089.33223        23.250           2.531
  20764209.612      416075.716 6    333272.59222        18.250           1.688
 91  6 25 16 54 44.9990000  0  5G18G16G11G 2G19
  23109229.917    10788719.011 6   8388049.50021        12.500           0.656
  23224077.472    -4366854.051 5  -3378024.33821        10.750           0.469
  22627111.292    -8376048.779 6  -6461061.96821        18.250           1.156
  21453353.073   -15190811.109 7 -11752652.28923        23.250           2.594
  20766168.808      426369.364 6    341293.59822        17.750           1.719
 91  6 25 16 54 59.9990000  0  5G18G16G11G 2G19
  23117725.745    10833361.073 6   8422835.43721        13.000           0.719
  23225135.206    -4361277.475 5  -3373678.98621        10.250           0.438
  22625890.206    -8382446.722 6  -6466047.38921        18.000           1.188
  21445660.222   -15231241.014 7 -11784156.09923        23.500           2.656
  20768138.683      436728.081 6    349365.31222        18.000           1.688
 91  6 25 16 55 14.9990000  0  5G18G16G11G 2G19
  23126231.292    10878050.185 6   8457658.07321        12.250           0.750
  23226225.480    -4355573.043 5  -3369233.98621        11.000           0.469
  22624705.081    -8388686.787 6  -6470909.77721        18.250           1.219
  21437979.753   -15271592.386 7 -11815598.72323        23.250           2.625
  20770121.573      447154.488 6    357489.76822        17.000           1.688
 91  6 25 16 55 29.9990000  0  5G18G16G11G 2G19
  23134739.300    10922790.783 5   8492520.79421        11.250           0.500
  23227331.901    -4349736.384 5  -3364685.97221        10.500           0.469
  22623548.519    -8394764.176 6  -6475645.41521        18.250           1.094
  21430320.065   -15311860.156 7 -11846976.20223        24.250           2.563
  20772123.878      457653.297 6    365670.63722        17.250           1.563
 91  6 25 16 55 44.9990000  0  5G18G16G11G 2G19
  23143264.269    10967580.414 5   8527421.73221        11.750           0.656
  23228472.987    -4343769.832 5  -3360036.72021        10.500           0.375
  22622423.034    -8400681.033 6  -6480255.95521        18.250           1.125
  21422674.269   -15352046.526 7 -11878290.25023        24.250           2.656
  20774134.097      468222.401 6    373906.27922        17.500           1.688
 91  6 25 16 55 59.9990000  0  5G18G16G11G 2G19
  23151801.245    11012420.462 6   8562361.95621        12.250           0.688
  23229627.323    -4337672.109 5  -3355285.28221        10.250           0.406
  22621324.573    -8406435.864 6  -6484740.25621        18.250           1.063
  21415036.237   -15392149.884 7 -11909539.61123        23.500           2.656
  20776155.980      478863.121 6    382197.73722        18.000           1.625
 91  6 25 16 56 14.9990000  0  5G18G16G11G 2G19
  23160339.503    11057304.241 6   8597336.25021        12.500           0.531
  23230815.675    -4331450.092 5  -3350436.99221        10.500           0.469
  22620260.956    -8412034.967 6  -6489103.19621        18.250           0.969
  21407423.472   -15432176.527 7 -11940729.20323        24.500           2.531
  20778194.190      489569.287 6    390540.18422        17.000           1.750
 91  6 25 16 56 29.9990000  0  5G18G16G11G 2G19
  23168891.214    11102239.976 6   8632351.05321        12.250           0.563
  23232023.355    -4325095.086 5  -3345485.07421        10.000           0.469
  22619228.440    -8417469.672 6  -6493338.03321        18.000           1.000
  21399821.503   -15472117.773 7 -11971852.24323        24.250           2.594
  20780246.909      500349.541 6    398940.36422        18.000           1.813
 91  6 25 16 56 44.9990000  0  5G18G16G11G 2G19
  23177454.292    11147217.450 6   8667398.36621        13.250           0.594
  23233261.933    -4318617.216 5  -3340437.38821        11.250           0.406
  22618223.909    -8422750.242 6  -6497452.76321        17.750           1.094
  21392237.159   -15511983.670 7 -12002916.57923        24.250           2.688
  20782310.011      511193.691 6    407390.33522        16.750           1.813
 91  6 25 16 56 59.9990000  0  5G18G16G11G 2G19
  23186014.815    11192238.868 6   8702479.90721        12.250           0.594
  23234514.503    -4312014.476 5  -3335292.43021        10.500           0.563
  22617247.355    -8427874.164 6  -6501445.43221        18.000           1.188
  21384664.519   -15551771.718 7 -12033920.24123        23.750           2.750
  20784385.925      522104.377 6    415892.14622        17.500           1.844
 91  6 25 16 57 14.9990000  0  5G18G16G11G 2G19
  23194594.753    11237303.430 6   8737595.09921        12.500           0.531
  23235793.011    -4305287.297 5  -3330050.51621        10.250           0.500
  22616297.730    -8432841.741 6  -6505316.28521        17.250           1.188
  21377105.519   -15591482.184 7 -12064863.45823        23.750           2.625
  20786475.917      533081.217 6    424445.51022        17.250           1.906
 91  6 25 16 57 29.9990000  0  5G18G16G11G 2G19
  23203176.378    11282410.944 6   8772743.72121        12.500           0.594
  23237097.730    -4298436.039 5  -3324711.88121        10.500           0.438
  22615385.175    -8437653.043 6  -6509065.35021        17.500           1.219
  21369564.831   -15631114.914 7 -12095746.09623        23.750           2.750
  20788577.292      544124.151 6    433050.37022        16.750           1.719
 91  6 25 16 57 44.9990000  0  5G18G16G11G 2G19
  23211767.323    11327562.087 6   8807926.34821        12.000           0.531
  23238420.683    -4291459.819 5  -3319275.89621        10.250           0.406
  22614499.144    -8442307.201 6  -6512691.97321        16.750           1.313
  21362040.644   -15670668.977 7 -12126567.44323        24.250           2.688
  20790690.886      555234.055 6    441707.42622        17.500           1.750
 91  6 25 16 57 59.9990000  0  5G18G16G11G 2G19
  23220366.519    11372755.304 6   8843141.76721        12.250           0.625
  23239772.972    -4284360.141 5  -3313743.70021        10.500           0.469
  22613647.198    -8446805.506 6  -6516197.14921        17.750           1.219
  21354528.237   -15710145.493 7 -12157328.35523        23.750           2.813
  20792817.722      566409.615 6    450415.63222        17.000           1.781
 91  6 25 16 58 14.9990000  0  5G18G16G11G 2G19
  23228976.659    11417989.037 6   8878388.76621        12.250           0.500
  23241152.378    -4277138.839 5  -3308116.74021        10.500           0.469
  22612817.003    -8451149.374 6  -6519581.98821        17.250           1.219
  21347029.901   -15749546.070 7 -12188030.09623        23.500           2.781
  20794955.667      577649.390 6    459173.87922        17.250           1.781
 91  6 25 16 58 29.9990000  0  5G18G16G11G 2G19
  23237594.331    11463263.114 6   8913667.18021        12.500           0.563
  23242545.901    -4269795.828 5  -3302394.93921        10.250           0.500
  22612018.862    -8455338.586 6  -6522846.30221        18.250           1.219
  21339546.597   -15788870.190 7 -12218672.26623        23.250           2.719
  20797106.964      588953.665 6    467982.39622        17.500           1.719
 91  6 25 16 58 44.9990000  0  5G18G16G11G 2G19
  23246216.433    11508581.745 6   8948980.33021        12.500           0.500
  23243971.003    -4262326.634 5  -3296574.79621        10.750           0.469
  22611249.987    -8459368.559 6  -6525986.55321        17.500           1.063
  21332077.440   -15828113.243 7 -12249251.26623        23.500           2.750
  20799272.136      600327.075 6    476844.77522        17.750           1.719
 91  6 25 16 58 59.9990000  0  5G18G16G11G 2G19
  23254849.558    11553946.731 6   8984329.58221        12.000           0.406
  23245411.667    -4254729.554 5  -3290655.04121        10.000           0.500
  22610516.573    -8463237.304 6  -6529001.15621        18.000           1.125
  21324627.526   -15867273.198 7 -12279765.51223        23.750           2.875
  20801449.573      611771.695 6    485762.64822        18.500           1.594
 91  6 25 16 59 14.9990000  0  5G18G16G11G 2G19
  23263489.573    11599353.123 6   9019711.12621        12.250           0.469
  23246879.519    -4247009.765 5  -3284639.62521         9.750           0.406
  22609809.440    -8466949.647 6  -6531893.90121        17.250           1.125
  21317188.206   -15906354.791 7 -12310218.69723        23.750           2.906
  20803641.042      623282.535 6    494732.12622        18.000           1.625
 91  6 25 16 59 29.9990000  0  5G18G16G11G 2G19
  23272138.347    11644793.653 6   9055119.22721        12.750           0.406
  23248375.730    -4239174.457 5  -3278534.21421        10.250           0.438
  22609131.690    -8470512.677 6  -6534670.29621        17.750           1.281
  21309765.448   -15945364.966 7 -12340616.23523        23.250           2.938
  20805842.917      634852.577 6    503747.72522        18.250           1.688
 91  6 25 16 59 44.9990000  0  5G18G16G11G 2G19
  23280791.698    11690277.512 6   9090561.13321        12.500           0.406
  23249888.167    -4231213.932 5  -3272331.22821        10.250           0.500
  22608481.230    -8473916.611 6  -6537322.72221        17.000           1.281
  21302356.667   -15984293.775 7 -12370950.35623        23.750           2.938
  20808056.831      646491.581 6    512817.06322        17.500           1.781
 91  6 25 16 59 59.9990000  0  5G18G16G11G 2G19
  23289448.698    11735792.702 5   9126027.43221        11.250           0.344
  23251422.456    -4223140.632 5  -3266040.36621        10.250           0.563
  22607864.784    -8477173.604 6  -6539860.65721        18.000           1.344
  21294962.440   -16023153.319 7 -12401230.51923        24.000           2.906
  20810281.534      658187.575 6    521930.80222        17.250           1.781
 91  6 25 17  0 14.9990000  0  5G18G16G11G 2G19
  23298123.026    11781353.201 5   9161529.04421        11.250           0.500
  23252985.409    -4214940.094 5  -3259650.37321        10.000           0.500
  22607278.425    -8480269.134 6  -6542272.77721        18.500           1.188
  21287584.495   -16061928.984 7 -12431445.31823        24.000           2.906
  20812521.800      669955.247 6    531100.40322        16.750           1.906
 91  6 25 17  0 29.9990000  0  5G18G16G11G 2G19
  23306802.722    11826954.508 5   9197062.44221        10.750           0.438
  23254567.480    -4206616.930 5  -3253164.82421        10.250           0.500
  22606719.315    -8483207.536 6  -6544562.45121        18.750           1.219
  21280218.261   -16100625.125 7 -12461598.14723        23.500           2.875
  20814773.925      681790.085 6    540322.32622        17.750           1.844
 91  6 25 17  0 44.9990000  0  5G18G16G11G 2G19
  23315491.347    11872604.127 5   9232633.49021        10.750           0.531
  23256183.011    -4198163.993 5  -3246578.13521        10.500           0.469
  22606190.878    -8485981.143 6  -6546723.70321        19.500           1.125
  21272875.839   -16139233.853 7 -12491682.86423        23.750           2.969
  20817037.222      693699.722 6    549602.54822        15.750           1.906
 91  6 25 17  0 59.9990000  0  5G18G16G11G 2G19
  23324183.456    11918291.563 5   9268233.98121        10.000           0.406
  23257809.753    -4189591.714 5  -3239898.46321        10.500           0.406
  22605689.105    -8488600.448 6  -6548764.73021        18.250           1.125
  21265541.565   -16177765.478 7 -12521707.49723        24.000           2.906
  20819318.011      705673.843 6    558933.00722        17.250           1.906
 91  6 25 17  1 14.9990000  0  5G18G16G11G 2G19
  23332888.776    11964018.626 5   9303865.36121        10.250           0.406
  23259463.542    -4180897.968 5  -3233124.14421        10.750           0.438
  22605223.151    -8491063.225 6  -6550683.77321        17.750           1.125
  21258222.683   -16216217.754 7 -12551670.30323        23.750           2.938
  20821611.503      717714.727 6    568315.49622        17.250           2.000
 91  6 25 17  1 29.9990000  0  5G18G16G11G 2G19
  23341591.480    12009785.715 5   9339527.94721         9.500           0.469
  23261145.222    -4172082.522 5  -3226254.98721        11.000           0.500
  22604782.190    -8493368.752 6  -6552480.29721        17.500           1.031
  21250920.042   -16254589.974 7 -12581570.73023        23.750           2.875
  20823915.620      729823.091 6    577750.56622        17.500           1.969
 91  6 25 17  1 44.9990000  0  5G18G16G11G 2G19
  23350306.058    12055596.073 5   9375224.20621        10.250           0.406
  23262841.690    -4163142.148 5  -3219288.49921        10.000           0.469
  22604374.714    -8495513.916 6  -6554151.85521        17.750           1.156
  21243636.120   -16292878.756 7 -12611406.14123        24.000           2.875
  20826232.081      742002.106 6    587240.69222        17.250           1.781
 91  6 25 17  1 59.9990000  0  5G18G16G11G 2G19
  23359033.558    12101446.887 5   9410952.04021        10.000           0.531
  23264568.722    -4154079.293 5  -3212226.55421        10.500           0.500
  22603997.886    -8497500.915 6  -6555700.17621        18.750           1.188
  21236366.448   -16331086.193 7 -12641178.16223        23.750           2.844
  20828563.581      754249.579 6    596784.15322        18.000           1.938
 91  6 25 17  2 14.9990000  0  5G18G16G11G 2G19
  23367769.128    12147337.318 5   9446710.70721        10.750           0.531
  23266315.026    -4144894.611 5  -3205069.69321         9.750           0.500
  22603648.261    -8499330.424 6  -6557125.78221        19.500           1.219
  21229110.261   -16369212.902 7 -12670887.28123        23.750           2.875
  20830906.870      766564.851 6    606380.45322        17.250           1.844
 91  6 25 17  2 29.9990000  0  5G18G16G11G 2G19
  23376505.456    12193259.810 5   9482494.36121        10.750           0.375
  23268084.159    -4135596.063 5  -3197824.10021         9.750           0.469
  22603328.019    -8501009.658 6  -6558434.28621        19.250           1.281
  21221869.308   -16407266.032 7 -12700539.06423        23.750           2.813
  20833260.870      778940.913 6    616024.11722        17.250           1.906
 91  6 25 17  2 44.9990000  0  5G18G16G11G 2G19
  23385256.808    12239222.372 5   9518309.26121        10.500           0.500
  23269877.019    -4126175.355 5  -3190483.32121         9.750           0.500
  22603039.597    -8502530.688 6  -6559619.51721        18.750           1.281
  21214644.698   -16445237.553 7 -12730127.25823        24.250           2.969
  20835630.487      791385.517 6    625721.18822        17.500           1.875
 91  6 25 17  2 59.9990000  0  5G18G16G11G 2G19
  23394007.511    12285222.949 5   9554153.74021        10.500           0.531
  23271695.284    -4116634.585 5  -3183048.97321         9.500           0.438
  22602781.362    -8503895.330 6  -6560682.88921        18.750           1.219
  21207434.394   -16483129.139 7 -12759653.15523        24.500           2.688
  20838010.808      803897.112 6    635470.46322        16.750           1.938
 91  6 25 17  3 14.9990000  0  5G18G16G11G 2G19
  23402765.425    12331260.299 5   9590026.91721        11.000           0.500
  23273531.909    -4106974.980 5  -3175522.04021        10.000           0.406
  22602550.269    -8505104.423 6  -6561625.04521        18.000           1.000
  21200235.503   -16520941.458 7 -12789117.29623        23.750           2.875
  20840403.190      816474.918 6    645271.33822        16.500           1.938
 91  6 25 17  3 29.9990000  0  5G18G16G11G 2G19
  23411533.948    12377339.262 5   9625932.50921        10.750           0.500
  23275389.800    -4097191.835 5  -3167898.82621         9.500           0.500
  22602349.784    -8506152.967 6  -6562442.09221        18.000           1.125
  21193059.706   -16558669.498 7 -12818515.76323        24.250           2.875
  20842812.480      829123.863 6    655127.63722        17.500           1.875
 91  6 25 17  3 44.9990000  0  5G18G16G11G 2G19
  23420311.058    12423459.628 5   9661870.35221        11.250           0.344
  23277278.245    -4087285.014 5  -3160179.26221        10.000           0.500
  22602177.612    -8507040.793 6  -6563133.91321        17.500           1.125
  21185893.034   -16596312.910 7 -12847848.28123        23.750           2.906
  20845232.097      841844.066 6    665039.45822        17.000           1.938
 91  6 25 17  3 59.9990000  0  5G18G16G11G 2G19
  23429094.605    12469612.538 5   9697833.56921        11.500           0.469
  23279180.308    -4077263.944 5  -3152370.67721         9.500           0.406
  22602041.073    -8507776.914 6  -6563707.51321        18.750           1.125
  21178745.776   -16633880.494 7 -12877121.71823        23.750           2.750
  20847661.269      854626.657 6    674999.90722        16.500           1.969
 91  6 25 17  4 14.9990000  0  5G18G16G11G 2G19
  23437884.269    12515799.205 5   9733823.07021        11.750           0.469
  23281112.065    -4067126.720 5  -3144471.55421        10.000           0.438
  22601931.448    -8508359.623 6  -6564161.57921        18.750           1.188
  21171612.276   -16671370.415 7 -12906334.63923        23.750           2.906
  20850109.019      867473.622 6    685010.49922        16.750           1.875
 91  6 25 17  4 29.9990000  0  5G18G16G11G 2G19
  23446683.730    12562027.116 5   9769844.71521        11.250           0.438
  23283067.456    -4056865.869 5  -3136476.11221        10.250           0.281
  22601850.409    -8508781.251 6  -6564490.13321        18.750           1.125
  21164493.784   -16708775.041 7 -12935481.09923        24.000           2.844
  20852565.323      880392.468 6    695077.11822        16.250           1.875
 91  6 25 17  4 44.9990000  0  5G18G16G11G 2G19
  23455484.847    12608294.930 5   9805897.45121        11.250           0.344
  23285038.151    -4046483.035 5  -3128385.62521         9.750           0.500
  22601799.550    -8509042.861 6  -6564694.00121        19.000           1.406
  21157388.909   -16746095.407 7 -12964561.90223        23.500           2.969
  20855038.386      893382.255 6    705199.01722        16.250           1.813
 91  6 25 17  4 59.9990000  0  5G18G16G11G 2G19
  23464298.261    12654599.078 5   9841978.52121        11.000           0.438
  23287034.519    -4035981.877 5  -3120202.93221         9.250           0.375
  22601779.948    -8509147.958 6                        18.250
  21150306.120   -16783334.785 7 -12993579.59823        24.500           2.906
  20857522.972      906439.304 6    715373.31822        16.750           1.875
 91  6 25 17  5 14.9990000  0  5G18G16G11G 2G19
  23473118.511    12700949.323 5   9878095.50621        11.000           0.406
  23289064.519    -4025352.456 5  -3111920.28721        10.000           0.438
  22601788.808    -8509086.523 6                        17.000
  21143237.355   -16820483.104 7 -13022526.33423        24.750           2.906
  20860025.198      919573.717 6    725607.90422        16.750           1.719
 91  6 25 17  5 29.9990000  0  5G18G16G11G 2G19
  23481947.026    12747335.187 5   9914240.22721        11.250           0.375
  23291110.855    -4014604.784 5  -3103545.50021        10.000           0.438
  22601832.050    -8508868.660 6                        17.750
  21136181.495   -16857550.273 7 -13051409.83523        23.500           2.875
  20862531.831      932775.626 6    735895.09922        16.750           1.844
 91  6 25 17  5 44.9990000  0  5G18G16G11G 2G19
  23490781.550    12793768.016 5   9950421.57221        10.250           0.313
  23293183.050    -4003727.751 5  -3095069.92121        10.250           0.469
  22601906.183    -8508483.050 6                        17.250
  21129148.253   -16894524.953 7 -13080221.27623        24.250           2.875
  20865065.019      946056.511 6    746243.81422        16.750           1.781
 91  6 25 17  5 59.9990000  0  5G18G16G11G 2G19
  23499622.925    12840243.402 5   9986636.06021         9.750           0.469
  23295275.144    -3992726.023 5  -3086497.17621         9.500           0.375
  22602012.651    -8507933.954 6  -6563829.95421        18.250           1.000
  21122127.737   -16931411.178 7 -13108963.78523        24.250           2.938
  20867605.284      959412.106 6    756650.75722        15.750           1.875
 91  6 25 17  6 14.9990000  0  5G18G16G11G 2G19
  23508477.511    12886766.302 5  10022887.57721         9.500           0.375
  23297388.542    -3981594.532 5  -3077823.31521         9.500           0.313
  22602149.855    -8507216.118 6  -6563270.60221        18.000           1.063
  21115124.300   -16968203.492 7 -13137633.11823        24.000           2.875
  20870160.409      972847.768 6    767120.08022        16.500           1.875
 91  6 25 17  6 29.9990000  0  5G18G16G11G 2G19
  23517341.034    12933342.885 5  10059180.91221         9.500           0.531
  23299533.808    -3970327.404 5  -3069043.75521         9.000           0.344
  22602314.964    -8506323.413 6  -6562574.99121        18.250           1.156
  21108144.019   -17004895.606 7 -13166224.37423        24.000           2.875
  20872733.675      986369.855 6    777656.75522        17.000           1.844
 91  6 25 17  6 44.9990000  0  5G18G16G11G 2G19
  23526208.534    12979956.147 5  10095502.82621         9.250           0.469
  23301702.206    -3958941.197 5  -3060171.42221         9.250           0.406
  22602517.308    -8505272.463 6  -6561756.07421        18.000           1.094
  21101177.745   -17041504.001 7 -13194750.38423        24.000           2.813
  20875320.464      999961.561 6    788247.67622        16.500           1.813
 91  6 25 17  6 59.9990000  0  5G18G16G11G 2G19
  23535087.605    13026605.135 5  10131852.56321         9.500           0.375
  23303892.855    -3947437.045 5  -3051207.18621         9.250           0.406
  22602747.245    -8504063.938 6  -6560814.38021        18.500           1.156
  21094223.815   -17078029.271 7 -13223211.63023        23.000           2.875
  20877918.901     1013622.222 6    798892.33022        16.750           1.844
 91  6 25 17  7 14.9990000  0  5G18G16G11G 2G19
  23543974.526    13073292.885 5  10168232.52221         9.750           0.469
  23306099.409    -3935811.754 5  -3042148.52921         8.750           0.500
  22603008.573    -8502694.563 6  -6559747.34621        17.250           1.313
  21087293.745   -17114468.036 7 -13251605.47523        24.250           2.875
  20880532.206     1027355.366 6    809593.46322        16.250           1.844
 91  6 25 17  7 29.9990000  0  5G18G16G11G 2G19
  23552863.323    13120027.959 5  10204649.35121         8.500           0.500
  23308339.495    -3924057.093 5  -3032989.10021         9.250           0.375
  22603302.284    -8501155.889 6  -6558548.39521        17.750           1.219
  21080377.581   -17150811.768 7 -13279925.25623        24.000           2.781
  20883161.089     1041169.597 6    820357.77922        16.750           1.781
 91  6 25 17  7 44.9990000  0  5G18G16G11G 2G19
  23561766.175    13166805.501 5  10241099.24821         9.250           0.531
  23310598.589    -3912177.243 5  -3023732.08821         9.250           0.438
  22603626.151    -8499452.293 6  -6557220.93521        17.750           1.219
  21073476.940   -17187064.635 7 -13308174.24123        23.250           2.750
  20885805.284     1055060.540 6    831181.87322        16.500           1.844
 91  6 25 17  7 59.9990000  0  5G18G16G11G 2G19
  23570678.519    13213635.169 5  10277589.81921         9.000           0.531
  23312887.214    -3900162.994 5  -3014370.38021         9.500           0.438
  22603981.456    -8497574.035 6  -6555757.36521        18.000           1.281
  21066598.440   -17223216.706 7 -13336344.68023        23.500           2.750
  20888467.362     1069037.840 6    842073.25722        16.000           1.781
 91  6 25 17  8 14.9990000  0  5G18G16G11G 2G19
  23579597.565    13260508.703 5  10314114.52921         9.750           0.406
  23315196.167    -3888022.540 5  -3004910.32421         9.250           0.469
  22604368.136    -8495529.091 6  -6554163.91321        17.500           1.188
  21059735.784   -17259276.021 7 -13364442.84023        23.500           2.719
  20891139.581     1083093.780 6    853025.91322        16.500           1.688
 91  6 25 17  8 29.9990000  0  5G18G16G11G 2G19
  23588524.284    13307427.444 5  10350674.49721         9.500           0.469
  23317530.089    -3875754.393 5  -2995350.74821         9.250           0.375
  22604789.847    -8493315.992 6  -6552439.43421        17.250           1.125
  21052889.839   -17295241.035 7 -13392467.52323        22.750           2.813
  20893828.495     1097229.915 6    864041.07122        16.750           1.625
 91  6 25 17  8 44.9990000  0  5G18G16G11G 2G19
  23597462.886    13354390.015 5  10387268.58621         9.500           0.469
  23319889.956    -3863360.195 5  -2985692.96521         9.000           0.313
  22605246.511    -8490936.108 6  -6550584.99721        17.500           1.156
  21046065.917   -17331112.780 7 -13420419.52923        23.250           2.781
  20896535.284     1111444.811 6    875117.58922        16.500           1.750
 91  6 25 17  8 59.9990000  0  5G18G16G11G 2G19
  23606409.120    13401393.234 5  10423894.36321        10.000           0.375
  23322274.800    -3850842.793 5  -2975939.16221         9.500           0.344
  22605729.823    -8488392.280 6  -6548602.79421        16.750           1.156
  21039256.651   -17366893.803 7 -13448300.83623        23.000           2.813
  20899252.612     1125735.863 6    886253.44822        17.500           1.719
 91  6 25 17  9 14.9990000  0  5G18G16G11G 2G19
  23615360.214    13448442.712 5  10460556.19821         9.250           0.438
  23324679.948    -3838196.789 5  -2966085.17421         9.250           0.313
  22606246.284    -8485678.612 6  -6546488.25821        16.750           1.188
  21032464.698   -17402578.164 7 -13476106.83423        22.750           2.844
  20901988.526     1140108.904 6    897453.20722        16.750           1.688
 91  6 25 17  9 29.9990000  0  5G18G16G11G 2G19
  23624321.097    13495536.424 5  10497252.47921         9.000           0.313
  23327111.339    -3825424.180 5  -2956132.52621         9.250           0.281
  22606796.714    -8482797.087 6  -6544242.92321        16.250           1.156
  21025693.995   -17438167.808 7 -13503839.01623        23.000           2.844
  20904739.042     1154562.021 6    908715.36022        17.250           1.781
 91  6 25 17  9 44.9990000  0  5G18G16G11G 2G19
  23633293.519    13542674.265 5  10533983.15021         8.750           0.313
  23329566.300    -3812525.127 5  -2946081.35821         9.250           0.344
  22607374.222    -8479747.536 6  -6541866.67021        16.750           1.156
  21018940.487   -17473662.526 7 -13531497.22723        23.000           2.875
  20907505.151     1169095.627 6    920040.22622        17.000           1.594
 91  6 25 17  9 59.9990000  0  5G18G16G11G 2G19
  23642271.128    13589858.559 5  10570750.05221         9.250           0.375
  23332040.792    -3799497.237 5  -2935929.76621         8.750           0.281
  22607985.253    -8476527.595 6  -6539357.62221        17.250           1.281
  21012201.894   -17509059.621 7 -13559079.37823        22.750           2.906
  20910288.144     1183712.200 6    931429.74622        16.500           1.688
 91  6 25 17 10 14.9990000  0  5G18G16G11G 2G19
  23651257.526    13637087.193 5  10607551.46521         8.750           0.313
  23334539.995    -3786342.937 5  -2925679.70521         8.500           0.281
  22608631.105    -8473139.207 6  -6536717.32721        16.750           1.125
  21005485.667   -17544360.967 7 -13586586.91823        23.500           2.938
  20913084.378     1198409.886 6    942882.47722        16.750           1.656
 91  6 25 17 10 29.9990000  0  5G18G16G11G 2G19
  23660254.800    13684360.205 5  10644387.46021         9.750           0.156
  23337074.909    -3773062.007 5  -2915330.94821         8.500           0.250
  22609312.894    -8469582.088 6  -6533945.55221        17.500           1.125
  20998785.214   -17579566.067 7 -13614019.45923        23.000           3.063
  20915898.597     1213189.121 6    954398.73722        16.750           1.719
 91  6 25 17 10 44.9990000  0  5G18G16G11G 2G19
  23669260.183    13731672.878 5  10681254.39321         9.500           0.250
  23339621.722    -3759659.063 5  -2904887.13021         8.250           0.344
  22610014.386    -8465860.811 6  -6531045.87721        17.000           1.156
  20992105.901   -17614679.311 7 -13641380.42523        24.250           3.063
  20918720.745     1228045.310 6    965974.97422        16.000           1.688
 91  6 25 17 10 59.9990000  0  5G18G16G11G 2G19
  23678271.925    13779030.485 5  10718156.31821         9.750           0.406
  23342198.409    -3746128.724 5  -2894344.04421         8.500           0.250
  22610754.386    -8461969.794 6  -6528013.92921        17.000           1.188
  20985441.909   -17649695.224 7 -13668665.55123        23.750           3.031
  20921566.698     1242984.108 6    977615.57122        17.000           1.656
 91  6 25 17 11 14.9990000  0  5G18G16G11G 2G19
  23687289.886    13826429.815 5  10755090.75521         9.250           0.344
  23344796.245    -3732474.108 5  -2883704.11921         8.750           0.250
  22611528.480    -8457912.153 6  -6524852.15921        16.500           1.188
  20978796.612   -17684616.484 7 -13695876.91323        24.000           3.031
  20924424.425     1258002.576 6    989318.25122        16.750           1.750
 91  6 25 17 11 29.9990000  0  5G18G16G11G 2G19
  23696320.019    13873875.770 5  10792061.54721         9.500           0.219
  23347421.823    -3718690.540 5  -2872963.71821         8.500           0.375
  22612339.065    -8453682.794 6  -6521556.56621        17.500           1.156
  20972168.136   -17719438.061 7 -13723010.60923        23.500           3.063
  20927297.511     1273105.818 6   1001086.99322        17.000           1.719
 91  6 25 17 11 44.9990000  0  5G18G16G11G 2G19
  23705359.503    13921365.073 5  10829066.06721         9.500           0.344
  23350061.730    -3704781.388 5  -2862125.45121         7.750           0.281
  22613173.956    -8449284.970 6  -6518129.69921        17.500           1.094
  20965563.136   -17754163.068 7 -13750069.04823        23.750           3.031
  20930189.073     1288290.768 6   1012919.39122        16.750           1.656
 91  6 25 17 11 59.9990000  0  5G18G16G11G 2G19
  23714405.425    13968893.129 5  10866100.77821         9.750           0.250
  23352732.026    -3690751.056 5  -2851192.74521         8.250           0.375
  22614043.323    -8444723.014 6  -6514574.92621        18.000           1.219
  20958970.870   -17788795.438 7 -13777055.30223        23.750           3.031
  20933090.581     1303553.043 6   1024812.06122        16.500           1.750
 91  6 25 17 12 14.9990000  0  5G18G16G11G 2G19
  23723454.823    14016467.909 5  10903171.94121        10.000           0.281
  23355431.214    -3676591.628 5  -2840159.45621         8.500           0.375
  22614936.878    -8439988.778 6  -6510885.92721        17.500           1.188
  20952400.690   -17823326.983 7 -13803962.99123        24.000           3.000
  20936012.425     1318901.069 6   1036771.53522        16.500           1.781
 91  6 25 17 12 29.9990000  0  5G18G16G11G 2G19
  23732515.917    14064084.314 5  10940275.49721         9.750           0.344
  23358143.862    -3662308.409 5  -2829029.70421         8.000           0.313
  22615868.292    -8435087.282 6  -6507066.59421        16.500           1.188
  20945846.339   -17857762.628 7 -13830795.95523        23.750           3.063
  20938948.862     1334329.727 6   1048793.83822        16.500           1.719
 91  6 25 17 12 44.9990000  0  5G18G16G11G 2G19
  23741588.292    14111741.483 5  10977410.84321        10.750           0.438
  23360886.815    -3647902.222 5  -2817804.13021         8.250           0.406
  22616837.534    -8430019.310 6  -6503117.54421        17.500           1.344
  20939311.792   -17892102.948 7 -13857554.64423        23.500           3.094
  20941900.034     1349838.492 6   1060878.57822        16.500           1.844
 91  6 25 17 12 59.9990000  0  5G18G16G11G 2G19
  23750661.511    14159442.314 5  11014580.23321        10.000           0.438
  23363653.464    -3633370.184 5  -2806480.49021         8.500           0.281
  22617830.870    -8424781.649 6  -6499036.26221        17.000           1.219
  20932797.081   -17926344.684 7 -13884236.50823        24.000           3.000
  20944865.855     1365430.740 6   1073028.35222        16.500           1.688
 91  6 25 17 13 14.9990000  0  5G18G16G11G 2G19
  23759747.183    14207183.878 5  11051781.33221         9.750           0.344
  23366442.159    -3618715.273 5  -2795061.12821         8.250           0.281
  22618865.956    -8419377.127 6  -6494824.97121        17.000           1.188
  20926300.745   -17960490.413 7 -13910843.56423        24.500           3.031
  20947850.183     1381103.785 6   1085241.09522        16.500           1.719
 91  6 25 17 13 29.9990000  0  5G18G16G11G 2G19
  23768839.644    14254964.064 5  11089012.50421         9.500           0.344
  23369258.722    -3603939.428 5  -2783547.51221         8.500           0.375
  22619926.089    -8413807.687 6  -6490485.17421        17.250           1.094
  20919820.206   -17994541.873 7 -13937377.16523        24.000           2.938
  20950846.683     1396855.680 6   1097515.28022        16.500           1.719
 91  6 25 17 13 44.9990000  0  5G18G16G11G 2G19
  23777937.620    14302780.031 5  11126271.60921         9.000           0.313
  23372092.894    -3589045.359 5  -2771941.79121         8.750           0.219
  22621013.948    -8408075.930 6  -6486018.87721        17.000           1.125
  20913357.761   -18028501.579 7 -13963839.27023        24.000           3.000
  20953858.948     1412684.006 6   1109849.01722        16.750           1.813
 91  6 25 17 13 59.9990000  0  5G18G16G11G 2G19
  23787045.276    14350636.173 5  11163561.97221         9.250           0.438
  23374945.167    -3574028.747 5  -2760240.56321         8.000           0.219
  22622134.612    -8402177.358 6  -6481422.61321        17.750           1.125
  20906912.276   -18062364.924 7 -13990226.28823        24.250           3.063
  20956887.605     1428593.336 6   1122245.87422        16.250           1.750
 91  6 25 17 14 14.9990000  0  5G18G16G11G 2G19
  23796161.706    14398531.843 5  11200883.15421         9.250           0.438
  23377823.526    -3558890.648 5  -2748444.65721         8.250           0.344
  22623289.550    -8396112.558 6  -6476696.81021        17.750           1.188
  20900487.987   -18096132.234 7 -14016538.46923        24.750           2.875
  20959930.784     1444583.325 6   1134705.58722        16.250           1.781
 91  6 25 17 14 29.9990000  0  5G18G16G11G 2G19
  23805279.511    14446463.750 5  11238232.58021         8.000           0.406
  23380732.683    -3543634.089 5  -2736556.48121         8.500           0.313
  22624474.706    -8389884.617 6  -6471843.88521        18.250           1.156
  20894079.261   -18129806.327 7 -14042778.01723        24.500           2.875
  20962988.097     1460650.916 6   1147225.76122        16.500           1.844
 91  6 25 17 14 44.9990000  0  5G18G16G11G 2G19
  23814408.058    14494430.154 5  11275608.86521         9.250           0.375
  23383659.862    -3528261.016 5  -2724577.49221         8.500           0.406
  22625688.464    -8383495.370 6  -6466865.25921        17.250           1.250
  20887691.034   -18163388.952 7 -14068946.29323        25.500           2.875
  20966059.706     1476794.485 6   1159805.14022        16.000           1.875
 91  6 25 17 14 59.9990000  0  5G18G16G11G 2G19
  23823543.245    14542436.269 5  11313016.10921         8.000           0.313
  23386604.901    -3512766.101 5  -2712503.55721         8.500           0.344
  22626939.862    -8376939.241 6  -6461756.60021        18.500           1.156
  20881315.042   -18196874.350 7 -14095038.80323        24.500           2.875
  20969143.753     1493019.579 6   1172448.04822        15.750           1.750
 91  6 25 17 15 14.9990000  0  5G18G16G11G 2G19
  23832688.167    14590476.083 5  11350449.58221         8.500           0.406
  23389572.815    -3497155.313 5  -2700339.33921         8.500           0.375
  22628215.253    -8370222.153 6  -6456522.52821        17.750           1.188
  20874962.495   -18230268.176 7 -14121059.96923        25.250           2.906
  20972248.222     1509320.377 6   1185149.95022        15.750           1.906
 91  6 25 17 15 29.9990000  0  5G18G16G11G 2G19
  23841838.394    14638548.463 5  11387908.46921         9.000           0.344
  23392568.503    -3481429.801 5  -2688085.72921         8.000           0.313
  22629522.698    -8363345.018 6  -6451163.72621        18.250           1.250
  20868621.597   -18263571.198 7 -14147010.36123        24.250           2.844
  20975366.659     1525696.228 6   1197910.33522        15.500           1.844
 91  6 25 17 15 44.9990000  0  5G18G16G11G 2G19
  23850989.909    14686659.787 5  11425397.67421         8.250           0.344
  23395585.862    -3465583.374 5  -2675737.90021         8.500           0.375
  22630864.519    -8356301.476 6  -6445675.28021        18.000           1.188
  20862306.730   -18296776.985 7 -14172885.01323        25.000           2.969
  20978495.823     1542153.477 6   1210734.14022        15.500           1.750
 91  6 25 17 15 59.9990000  0  5G18G16G11G 2G19
  23860151.120    14734806.488 5  11462914.44821         8.750           0.313
  23398623.245    -3449619.579 5  -2663298.61921         8.250           0.344
  22632242.011    -8349094.776 6  -6440059.69021        18.000           1.250
  20856006.190   -18329888.724 7 -14198686.35223        25.500           3.000
  20981642.206     1558689.037 6   1223618.97422        15.750           1.875
 91  6 25 17 16 14.9990000  0  5G18G16G11G 2G19
  23869320.370    14782993.080 5  11500462.31421         7.750           0.156
  23401681.386    -3433533.919 5  -2650764.38821         8.500           0.375
  22633638.355    -8341720.343 6  -6434313.40521        17.750           1.188
  20849722.042   -18362901.348 7 -14224410.47923        25.750           2.969
  20984805.456     1575307.799 6   1236568.64322        15.750           1.813
 91  6 25 17 16 29.9990000  0  5G18G16G11G 2G19
  23878495.925    14831216.129 5  11538038.60021         8.000           0.313
  23404765.386    -3417329.945 5  -2638137.94921         8.500           0.250
  22635079.808    -8334181.516 6  -6428439.01321        18.500           1.188
  20843461.706   -18395818.181 7 -14250059.94723        25.750           3.000
  20987984.175     1592006.496 6   1249580.58622        16.250           1.781
 91  6 25 17 16 44.9990000  0  5G18G16G11G 2G19
  23887674.003    14879470.486 5  11575639.24621         8.250           0.156
  23407865.706    -3401012.686 5  -2625423.24821         8.250           0.406
  22636540.722    -8326483.406 6  -6422440.49921        18.500           1.156
  20837211.003   -18428644.268 7 -14275638.71823        25.000           3.031
  20991175.909     1608780.092 6   1262650.91222        15.500           1.844
 91  6 25 17 16 59.9990000  0  5G18G16G11G 2G19
  23896867.308    14927761.054 5  11613268.13521         7.750           0.281
  23411001.081    -3384577.190 5  -2612616.39821         8.750           0.344
  22638036.878    -8318620.848 6  -6416313.84821        17.750           1.063
  20830986.878   -18461374.131 7 -14301142.50223        26.000           3.063
  20994382.097     1625634.053 6   1275783.84422        15.500           1.781
 91  6 25 17 17 14.9990000  0  5G18G16G11G 2G19
  23906068.136    14976090.507 5  11650927.37221         8.250           0.188
  23414153.964    -3368020.801 5  -2599715.36921         9.250           0.438
  22639564.378    -8310590.901 6  -6410056.76621        17.500           1.094
  20824774.011   -18494004.863 7 -14326569.03823        25.250           3.031
  20997606.698     1642571.247 6   1288981.62922        15.750           1.750
 91  6 25 17 17 29.9990000  0  5G18G16G11G 2G19
  23915271.120    15024452.779 5  11688612.10221         8.250           0.250
  23417323.894    -3351349.836 5  -2586725.05021         9.000           0.250
  22641123.011    -8302399.633 6  -6403673.97821        17.250           1.188
  20818583.401   -18526542.171 7 -14351922.78523        26.000           3.000
  21000842.972     1659585.817 6   1302239.71522        15.750           1.781
 91  6 25 17 17 44.9990000  0  5G18G16G11G 2G19
  23924480.378    15072848.570 5  11726322.96321         8.000           0.281
  23420515.097    -3334563.397 5  -2573644.75621         8.750           0.313
  22642712.362    -8294046.236 6  -6397164.85921        18.000           1.094
  20812409.706   -18558985.116 7 -14377202.99423        25.500           3.125
  21004097.128     1676678.689 6   1315558.81522        15.500           1.781
 91  6 25 17 17 59.9990000  0  5G18G16G11G 2G19
  23933696.253    15121276.416 5  11764058.83521         8.750           0.313
  23423731.472    -3317662.934 5  -2560475.59821         8.750           0.406
  22644331.769    -8285531.900 6  -6390530.32121        17.250           1.063
  20806253.620   -18591334.791 7 -14402410.53723        26.250           2.969
  21007360.714     1693848.893 6   1328938.17522        15.500           1.844
 91  6 25 17 18 14.9990000  0  5G18G16G11G 2G19
  23942916.620    15169735.892 5  11801819.33521         7.500           0.344
  23426968.651    -3300649.286 5  -2547218.23021         9.250           0.375
  22645985.690    -8276857.219 6  -6383770.84721        17.250           1.125
  20800116.433   -18623591.531 7 -14427545.65223        26.250           3.000
  21010643.175     1711095.851 6   1342377.33322        15.500           1.688
 91  6 25 17 18 29.9990000  0  5G18G16G11G 2G19
  23952133.972    15218227.275 4  11839604.66621         6.250           0.313
  23430235.112    -3283521.996 5  -2533872.33921        10.000           0.313
  22647666.589    -8268021.593 6  -6376885.96621        17.750           1.125
  20793993.956   -18655754.451 7 -14452607.65923        25.500           2.969
  21013943.565     1728420.178 6   1355876.79722        15.000           1.750
 91  6 25 17 18 44.9990000  0  5G18G16G11G 2G19
  23961369.386    15266749.825 4  11877414.30721         6.750           0.344
  23433514.440    -3266281.567 5  -2520438.27321        10.000           0.344
  22649380.425    -8259025.494 6  -6369876.02421        18.000           1.094
  20787894.636   -18687824.003 7 -14477596.92123        26.250           3.063
  21017254.151     1745821.642 6   1369436.35022        15.750           1.719
 91  6 25 17 18 59.9990000  0  5G18G16G11G 2G19
  23970617.378    15315310.058 4  11915253.33621         6.750           0.344
  23436816.097    -3248921.807 5  -2506911.23821         9.250           0.438
  22651121.065    -8249862.654 6  -6362736.16021        18.000           1.094
  20781809.589   -18719793.590 7 -14502508.27623        26.250           3.125
  21020580.339     1763306.730 6   1383061.06722        15.750           1.813
 91  6 25 17 19 14.9990000  0  5G18G16G11G 2G19
  23979861.386    15363897.887 4  11953113.81621         6.500           0.344
  23440140.605    -3231452.976 5                         9.750
  22652894.081    -8240542.860 6  -6355474.00021        17.750           1.094
  20775739.847   -18751672.738 7 -14527349.17123        25.250           2.875
  21023923.425     1780865.834 6                        15.750
 91  6 25 17 19 29.9990000  0  5G18G16G11G 2G19
  23989115.909    15412519.104 4  11991000.31721         6.750           0.281
  23443486.964    -3213869.021 5                         9.500
  22654700.870    -8231060.394 6  -6348085.08421        18.250           1.125
  20769694.878   -18783455.699 7 -14552115.11523        26.500           3.063
  21027278.378     1798504.639 6                        15.750
 91  6 25 17 19 44.9990000  0  5G18G16G11G 2G19
  23998369.456    15461173.362 4  12028912.58721         6.250           0.125
  23446852.401    -3196170.466 5                         9.250
  22656536.394    -8221415.396 6  -6340569.51821        18.000           1.125
  20763664.105   -18815142.266 7 -14576805.95123        26.000           3.063
  21030649.065     1816223.371 6                        15.500
 91  6 25 17 19 59.9990000  0  5G18G16G11G 2G19
  24007639.839    15509858.652 5  12066849.03721         7.500           0.188
  23450245.230    -3178359.255 5                         9.000
  22658401.487    -8211609.550 6  -6332928.61121        17.750           1.094
  20757654.214   -18846733.999 7 -14601422.88723        26.750           3.063
  21034036.253     1834020.522 6                        15.500
 91  6 25 17 20 14.9990000  0  5G18G16G11G 2G19
  24016912.886    15558576.045 5  12104810.52221         8.250           0.344
  23453655.253    -3160434.329 5                         9.000
  22660296.792    -8201641.788 6  -6325161.54021        17.750           1.000
  20751659.097   -18878229.572 7 -14625964.89123        26.250           3.063
  21037440.722     1851897.427 6                        15.500
 91  6 25 17 20 29.9990000  0  5G18G16G11G 2G19
  24026188.448    15607319.333 5  12142792.14721         8.000           0.250
  23457078.776    -3142402.314 5  -2423909.27021         8.750           0.344
  22662226.190    -8191518.395 6  -6317273.20121        17.750           1.219
  20745683.589   -18909635.170 7 -14650436.78723        26.000           2.969
  21040857.776     1869847.768 6   1466079.94122        15.500           1.563
 91  6 25 17 20 44.9990000  0  4G16G11G 2G19
  23460540.276    -3124258.637 5  -2409771.36121         9.000           0.406
  22664177.214    -8181234.721 6  -6309259.96921        17.000           0.969
  20739724.823   -18940946.074 7 -14674834.89423        26.000           3.000
  21044285.065     1887876.331 6   1480128.15221        16.000           1.469
 91  6 25 17 20 59.9990000  0  4G16G11G 2G19
  23464013.073    -3105999.940 5  -2395543.84921         8.750           0.313
  22666167.183    -8170787.389 6  -6301119.21121        16.750           1.125
  20733784.730   -18972158.687 7 -14699156.40623        25.750           2.938
  21047730.917     1905986.573 6   1494240.01122        16.750           1.594
 91  6 25 17 21 14.9990000  0  4G16G11G 2G19
  23467503.253    -3087631.012 5  -2381230.45221         8.500           0.344
  22668184.831    -8160180.849 6  -6292854.38921        17.000           1.094
  20727862.276   -19003277.222 7 -14723404.61923        25.500           3.125
  21051193.480     1924174.162 6   1508412.14222        16.000           1.594
 91  6 25 17 21 29.9990000  0  4G16G11G 2G19
  23471021.323    -3069152.410 5  -2366831.55521         8.750           0.344
  22670233.784    -8149415.577 6  -6284465.88821        16.500           1.125
  20721960.909   -19034301.933 7 -14747579.72223        26.000           2.906
  21054667.894     1942438.947 6   1522644.41422        16.500           1.656
 91  6 25 17 21 44.9990000  0  4G16G11G 2G19
  23474558.722    -3050557.518 5  -2352342.07621         8.250           0.406
  22672315.901    -8138484.829 6  -6275948.45521        16.750           1.188
  20716074.605   -19065225.866 7 -14771676.28923        26.000           3.063
  21058160.214     1960787.737 6   1536942.16122        16.000           1.625
 91  6 25 17 21 59.9980000  0  4G16G11G 2G19
  23478121.850    -3031859.073 5  -2337771.90221         8.500           0.375
  22674426.545    -8127400.757 6  -6267311.53821        17.000           1.000
  20710208.311   -19096058.161 7 -14795701.45823        26.000           2.969
  21061664.826     1979208.006 6   1551295.59022        16.500           1.563
 91  6 25 17 22 14.9980000  0  4G16G11G 2G19
  23481699.139    -3013046.253 5  -2323112.61221         8.250           0.375
  22676562.772    -8116153.527 6  -6258547.47521        16.750           1.000
  20704359.076   -19126794.488 7 -14819651.84023        26.000           2.938
  21065187.014     1997710.891 6   1565713.41122        16.500           1.656
 91  6 25 17 22 29.9980000  0  4G16G11G 2G19
  23485295.420    -2994125.647 5  -2308369.32121         7.500           0.219
  22678732.647    -8104748.800 6  -6249660.70221        16.750           1.156
  20698528.639   -19157437.458 7 -14843529.48723        26.500           2.969
  21068724.037     2016290.330 6   1580190.87822        15.750           1.625
 91  6 25 17 22 44.9980000  0  4G16G11G 2G19
  23488917.897    -2975103.947 5  -2293547.23621         7.750           0.344
  22680936.553    -8093193.277 6  -6240656.41121        17.000           1.125
  20692713.529   -19187993.489 7 -14867339.36423        26.250           2.938
  21072271.014     2034939.904 6   1594722.99422        16.250           1.625
 91  6 25 17 22 59.9980000  0  4G16G11G 2G19
  23492558.764    -2955970.890 5  -2278638.41521         8.250           0.406
  22683163.818    -8081476.289 6  -6231526.31421        16.750           1.188
  20686918.193   -19218451.768 7 -14891073.08423        26.500           3.000
  21075837.389     2053670.289 6   1609318.08422        16.250           1.531
 91  6 25 17 23 14.9980000  0  4G16G11G 2G19
  23496227.365    -2936727.922 5  -2263643.90821         8.250           0.375
  22685423.459    -8069599.171 6  -6222271.42321        16.500           1.000
  20681138.592   -19248813.401 7 -14914731.49523        26.500           3.000
  21079414.436     2072480.180 6   1623975.12621        16.250           1.406
 91  6 25 17 23 29.9980000  0  4G16G11G 2G19
  23499906.053    -2917386.562 5  -2248572.79821         7.500           0.250
  22687712.139    -8057573.705 6  -6212900.94921        16.750           1.125
  20675379.897   -19279089.908 7 -14938323.57323        27.250           3.000
  21083006.178     2091358.230 6   1638685.27322        15.750           1.531
 91  6 25 17 23 44.9980000  0  4G16G11G 2G19
  23503607.193    -2897941.181 5  -2233420.55521         8.000           0.344
  22690029.412    -8045394.231 6  -6203410.46921        17.250           1.219
  20669630.842   -19309275.408 7 -14961844.73623        26.000           3.156
  21086611.303     2110310.208 6   1653453.02722        15.500           1.563
 91  6 25 17 23 59.9980000  0  4G16G11G 2G19
  23507324.193    -2878388.263 4  -2218184.57821         7.250           0.344
  22692378.545    -8033056.804 6  -6193796.90421        16.750           1.094
  20663909.342   -19339365.906 7 -14985291.87723        27.000           3.094
  21090234.178     2129340.097 6   1668281.48822        16.000           1.594
 91  6 25 17 24 14.9980000  0  4G16G11G 2G19
  23511063.982    -2858726.667 4  -2202863.89821         7.250           0.375
  22694756.568    -8020560.085 6  -6184059.21721        16.500           1.125
  20658199.701   -19369359.697 7 -15008663.65023        27.000           3.125
  21093870.561     2148449.526 6   1683171.93922        15.500           1.594
 91  6 25 17 24 29.9980000  0  4G16G11G 2G19
  23514827.834    -2838956.853 5  -2187458.90621         7.750           0.469
  22697165.842    -8007904.329 6  -6174197.60621        17.000           1.250
  20652511.162   -19399256.921 7 -15031960.18723        26.750           3.000
  21097522.975     2167638.477 6   1698124.34422        16.000           1.625
 91  6 25 17 24 44.9980000  0  4G16G11G 2G19
  23518606.381    -2819078.571 4  -2171969.36721         7.250           0.344
  22699601.998    -7995089.496 6  -6164212.04721        16.750           1.125
  20646840.240   -19429057.442 7 -15055181.36123        27.000           2.938
  21101186.701     2186907.235 6   1713138.94422        15.250           1.531
 91  6 25 17 24 59.9980000  0  4G16G11G 2G19
  23522409.662    -2799093.327 4  -2156396.52421         7.250           0.313
  22702069.498    -7982116.867 6  -6154103.51921        17.250           1.156
  20641187.857   -19458761.988 7 -15078327.75523        27.000           3.063
  21104871.272     2206254.594 6   1728214.78322        15.750           1.531
 91  6 25 17 25 14.9980000  0  4G16G11G 2G19
  23526235.693    -2779003.350 5  -2140742.02921         7.750           0.375
  22704568.404    -7968988.273 6  -6143873.46721        17.500           1.031
  20635554.506   -19488372.634 7 -15101400.98623        26.750           3.063
  21108566.412     2225678.795 6   1743350.51122        15.750           1.594
 91  6 25 17 25 29.9980000  0  4G16G11G 2G19
  23530085.459    -2758814.654 5  -2125010.61721         7.500           0.344
  22707097.443    -7955709.629 6  -6133526.47821        18.000           1.156
  20629934.998   -19517894.890 7 -15124405.33323        26.750           3.125
  21112276.256     2245174.379 6   1758541.85322        16.500           1.563
 91  6 25 17 25 44.9980000  0  4G16G11G 2G19
  23533944.459    -2738522.106 5  -2109198.29421         8.000           0.281
  22709653.732    -7942275.927 6  -6123058.66821        17.750           1.125
  20624335.225   -19547323.390 7 -15147336.62623        26.500           3.063
  21116002.068     2264746.340 6   1773792.71822        16.250           1.531
 91  6 25 17 25 59.9980000  0  4G16G11G 2G19
  23537825.006    -2718125.507 5  -2093304.89321         8.250           0.375
  22712238.725    -7928686.681 6  -6112469.66821        16.750           1.125
  20618752.264   -19576657.442 7 -15170194.32323        26.750           3.188
  21119739.889     2284395.352 6   1789103.62021        16.000           1.469
 91  6 25 17 26 14.9980000  0  4G16G11G 2G19
  23541727.053    -2697624.706 5  -2077330.28821         8.750           0.281
  22714854.490    -7914941.319 6  -6101759.01921        17.000           1.156
  20613187.842   -19605896.287 7 -15192977.83023        26.000           3.000
  21123496.576     2304122.055 6   1804475.06022        16.750           1.656
 91  6 25 17 26 29.9980000  0  4G16G11G 2G19
  23545651.904    -2677018.326 5  -2061273.41321         8.500           0.375
  22717500.115    -7901038.634 6  -6090925.78121        17.250           1.094
  20607642.451   -19635038.474 7 -15215686.02323        26.500           2.969
  21127265.545     2323927.920 6   1819908.18522        16.000           1.531
 91  6 25 17 26 44.9980000  0  4G16G11G 2G19
  23549588.256    -2656306.025 5  -2045133.99621         8.500           0.281
  22720174.998    -7886978.236 6  -6079969.64421        16.500           1.188
  20602118.311   -19664083.418 7 -15238318.44123        27.500           3.094
  21131048.022     2343813.727 6   1835403.59822        16.000           1.625
 91  6 25 17 26 59.9980000  0  4G16G11G 2G19
  23553549.022    -2635490.161 5  -2028913.86721         8.500           0.313
  22722883.998    -7872762.318 6  -6068892.32321        17.000           1.094
  20596605.615   -19693033.129 7 -15260876.65023        26.000           3.031
  21134845.412     2363777.244 6   1850959.57222        15.750           1.656
 91  6 25 17 27 14.9980000  0  4G16G11G 2G19
  23557529.553    -2614574.469 5  -2012615.96821         8.500           0.313
  22725616.975    -7858394.287 6  -6057696.47721        17.000           1.094
  20591116.139   -19721890.793 7 -15283363.14223        26.500           3.031
  21138659.420     2383815.294 6   1866573.61122        16.000           1.625
 91  6 25 17 27 29.9980000  0  4G16G11G 2G19
  23561528.951    -2593561.105 5  -1996241.97121         8.500           0.281
  22728377.397    -7843876.199 6  -6046383.70321        17.000           1.031
  20585641.092   -19750658.311 7 -15305779.37923        26.500           3.125
  21142488.357     2403925.959 6   1882244.24222        16.000           1.688
 91  6 25 17 27 44.9980000  0  4G16G11G 2G19
  23565547.022    -2572447.524 5  -1979789.87721         8.000           0.281
  22731170.084    -7829205.416 6  -6034951.93521        16.500           1.156
  20580184.967   -19779332.743 7 -15328123.08723        26.750           3.188
  21146328.443     2424112.173 6   1897973.73822        15.750           1.500
 91  6 25 17 27 59.9980000  0  4G16G11G 2G19
  23569585.701    -2551235.602 5  -1963261.15521         8.000           0.375
  22733990.537    -7814384.044 6  -6023402.84221        16.500           1.063
  20574747.162   -19807915.884 7 -15350395.66323        26.750           3.094
  21150184.990     2444372.025 6   1913760.61322        15.500           1.625
 91  6 25 17 28 14.9980000  0  4G16G11G 2G19
  23573644.897    -2529923.840 5  -1946654.60921         8.250           0.250
  22736840.584    -7799410.133 6  -6011734.88621        16.250           1.094
  20569324.936   -19836405.720 7 -15372595.53223        26.500           3.219
  21154053.264     2464707.631 6   1929606.51322        15.750           1.688
 91  6 25 17 28 29.9980000  0  4G16G11G 2G19
  23577715.100    -2508509.044 5  -1929967.83421         7.500           0.250
  22739717.365    -7784280.350 6  -5999945.45921        16.500           1.031
  20563922.076   -19864798.703 7 -15394719.92623        26.500           3.094
  21157937.311     2485122.347 6   1945514.05722        16.000           1.656
 91  6 25 17 28 44.9980000  0  4G16G11G 2G19
  23581803.326    -2486997.398 4  -1913205.53121         7.250           0.281
  22742625.397    -7769000.672 6  -5988039.24121        16.250           1.031
  20558534.654   -19893100.629 7 -15416773.37123        26.000           3.063
  21161835.717     2505610.436 6   1961478.79222        15.250           1.531
 91  6 25 17 28 59.9980000  0  4G16G11G 2G19
  23585920.865    -2465387.966 4  -1896367.07921         7.000           0.250
  22745561.936    -7753570.130 6  -5976015.46621        16.750           1.031
  20553165.373   -19921310.259 7 -15438754.89523        26.000           3.219
  21165749.834     2526173.236 6   1977501.71921        16.250           1.469
 91  6 25 17 29 14.9980000  0  4G16G11G 2G19
  23590045.100    -2443679.037 4  -1879451.07021         6.500           0.313
  22748530.381    -7737986.770 6  -5963872.60521        17.000           1.063
  20547818.240   -19949425.316 7 -15460662.73123        26.500           3.125
  21169677.748     2546812.785 6   1993584.46922        15.750           1.594
 91  6 25 17 29 29.9980000  0  4G16G11G 2G19
  23594193.826    -2421875.661 4  -1862461.47221         7.250           0.313
  22751521.428    -7722255.597 6  -5951614.55821        16.500           1.031
  20542483.100   -19977450.450 7 -15482500.49123        26.000           3.156
  21173617.873     2567524.490 6   2009723.43522        16.000           1.594
 91  6 25 17 29 44.9980000  0  4G16G11G 2G19
  23598369.381    -2399975.510 5  -1845396.47221         7.500           0.313
  22754542.936    -7706374.301 6  -5939239.55321        16.750           0.906
  20537167.826   -20005383.366 7 -15504266.39923        26.250           3.188
  21177574.475     2588310.420 6   2025920.24622        16.000           1.500
 91  6 25 17 29 59.9980000  0  4G16G11G 2G19
  23602553.100    -2377979.681 4  -1828256.90821         7.250           0.125
  22757596.397    -7690343.936 6  -5926748.38021        16.750           1.000
  20531870.162   -20033224.738 7 -15525960.97223        26.000           3.031
  21181543.186     2609170.082 6   2042174.50422        16.000           1.563
 91  6 25 17 30 14.9980000  0  4G16G11G 2G19
  23606753.998    -2355888.988 5  -1811043.41521         7.500           0.156
  22760671.881    -7674165.148 6  -5914141.55321        16.250           1.063
  20526589.092   -20060975.205 7 -15547584.70523        26.250           3.063
  21185526.709     2630102.988 6   2058485.84522        15.500           1.563
 91  6 25 17 30 29.9980000  0  4G16G11G 2G19
  23610979.475    -2333697.609 5  -1793751.47821         7.750           0.219
  22763779.717    -7657832.030 6  -5901414.47321        16.000           1.094
  20521329.420   -20088628.477 7 -15569132.70623        26.250           3.094
  21189524.162     2651115.240 6   2074859.00722        16.000           1.688
 91  6 25 17 30 44.9980000  0  4G16G11G 2G19
  23615220.264    -2311415.972 5  -1776389.21421         7.750           0.188
  22766915.631    -7641354.751 6  -5888575.06321        16.250           0.969
  20516081.897   -20116194.301 7 -15590612.56623        26.000           3.094
  21193538.795     2672196.796 6   2091286.16522        15.000           1.656
 91  6 25 17 30 59.9980000  0  4G16G11G 2G19
  23619479.459    -2289041.331 5  -1758954.45421         7.750           0.313
  22770078.623    -7624730.353 6  -5875621.00321        16.500           0.969
  20510853.334   -20143669.674 7 -15612021.94823        26.500           3.031
  21197563.764     2693350.871 6   2107769.83722        15.000           1.719
 91  6 25 17 31 14.9980000  0  4G16G11G 2G19
  23623755.701    -2266564.313 5  -1741439.92221         7.750           0.250
  22773273.498    -7607949.505 6  -5862545.04621        16.250           0.938
  20505644.490   -20171045.248 7 -15633353.56023        26.750           3.219
  21201602.397     2714586.944 6   2124317.39922        15.250           1.719
 91  6 25 17 31 29.9980000  0  4G16G11G 2G19
  23628050.397    -2244001.415 5  -1723858.50221         8.000           0.406
  22776492.889    -7591028.343 6  -5849359.74921        16.500           0.875
  20500450.326   -20198336.744 7 -15654619.65323        26.500           3.125
  21205656.904     2735889.068 6   2140916.44322        14.750           1.625
 91  6 25 17 31 44.9980000  0  4G16G11G 2G19
  23632358.045    -2221331.885 4  -1706194.00021         7.250           0.219
  22779743.967    -7573946.215 6  -5836049.02321        16.500           0.906
  20495276.686   -20225523.090 7 -15675803.81823        26.250           3.188
  21209728.842     2757278.157 6   2157583.24322        15.500           1.688
 91  6 25 17 31 59.9980000  0  4G16G11G 2G19
  23636687.717    -2198566.158 4  -1688454.49821         7.250           0.281
  22783020.686    -7556713.587 6  -5822621.02421        16.250           0.875
  20490123.522   -20252614.668 7 -15696914.13823        27.000           3.250
  21213813.436     2778743.923 6   2174309.78722        15.750           1.656
 91  6 25 17 32 14.9980000  0  4G16G11G 2G19
  23641043.295    -2175708.318 5  -1670643.24021         8.000           0.344
  22786328.295    -7539334.235 6  -5809078.68821        15.750           0.938
  20484984.936   -20279614.919 7 -15717953.28523        26.750           3.156
  21217911.693     2800282.790 6   2191093.29522        15.000           1.656
 91  6 25 17 32 29.9980000  0  4G16G11G 2G19
  23645412.459    -2152760.797 5  -1652762.11921         7.750           0.313
  22789664.498    -7521810.514 6  -5795423.86521        15.750           0.938
  20479863.154   -20306525.952 7 -15738922.92623        26.750           3.188
  21222021.670     2821892.764 6   2207932.20822        15.250           1.594
 91  6 25 17 32 44.9980000  0  4G16G11G 2G19
  23649793.725    -2129724.075 5  -1634811.43621         8.250           0.188
  22793024.982    -7504142.726 6  -5781656.77821        15.500           0.906
  20474758.889   -20333348.080 7 -15759823.27423        26.750           3.188
  21226150.623     2843573.551 6   2224826.30422        15.250           1.563
 91  6 25 17 32 59.9980000  0  4G16G11G 2G19
  23654200.123    -2106586.884 5  -1616782.51621         8.250           0.375
  22796418.756    -7486319.415 6  -5767768.49921        15.500           0.938
  20469673.920   -20360069.521 7 -15780645.18123        26.500           3.219
  21230292.514     2865336.938 6   2241784.76922        14.750           1.656
 91  6 25 17 33 14.9980000  0  4G16G11G 2G19
  23658615.647    -2083351.915 5  -1598677.40921         8.000           0.281
  22799835.662    -7468343.306 6  -5753761.16521        15.000           0.969
  20464608.147   -20386692.604 7 -15801390.44023        26.500           3.156
  21234447.670     2887180.450 6   2258805.66222        15.250           1.625
 91  6 25 17 33 29.9980000  0  4G16G11G 2G19
  23663057.154    -2060022.389 5  -1580498.55621         8.000           0.375
  22803290.326    -7450217.642 6  -5739637.30121        16.000           0.844
  20459557.975   -20413220.455 7 -15822061.48623        25.750           3.219
  21238619.084     2909101.108 6   2275886.66622        16.250           1.594
 91  6 25 17 33 44.9980000  0  4G16G11G 2G19
  23667516.287    -2036604.811 5  -1562251.15821         7.500           0.281
  22806762.522    -7431948.758 6  -5725401.83321        16.500           0.906
  20454528.897   -20439659.057 7 -15842662.99623        26.250           3.063
  21242805.311     2931092.710 6   2293022.96022        15.500           1.500
 91  6 25 17 33 59.9980000  0  4G16G11G 2G19
  23671989.068    -2013091.642 4  -1543929.26321         7.250           0.375
  22810270.381    -7413528.679 6  -5711048.53921        16.750           0.906
  20449517.186   -20466000.244 7 -15863188.59123        26.250           3.125
  21247002.576     2953163.372 6   2310220.86322        15.750           1.563
